[[{"header":{"parameterUnit":"m.s-1","parameterCategory":1,"la1":30.6,"la2":28.766,"lo1":-90.7593,"lo2":-88.6598,"dy":0.0162,"dx":0.0183,"nx":116,"ny":114,"refTime":"2023-10-14T18:00:00:Z","depth":0,"parameterNumber":2,"parameterNumberName":"U-component_of_WINDS"},"data":[0.0,0.0,0.0,0.0,0.0,0.0,0.0,0.0,0.0,0.0,0.0,0.0,0.0,0.0,0.0,0.0,0.0,0.0,0.0,0.0,0.0,0.0,0.0,0.0,0.0,0.0,0.0,0.0,0.0,0.0,0.0,0.0,0.0,0.0,0.0,0.0,0.0,0.0,0.0,0.0,0.0,0.0,0.0,0.0,0.0,0.0,0.0,0.0,0.0,0.0,0.0,0.0,0.0,0.0,0.0,0.0,0.0,0.0,0.0,0.0,0.0,0.0,0.0,0.0,0.0,0.0,0.0,0.0,0.0,0.0,0.0,0.0,0.0,0.0,0.0,0.0,0.0,0.0,0.0,0.0,0.0,0.0,0.0,0.0,0.0,0.0,0.0,0.0,0.0,0.0,0.0,0.0,0.0,0.0,0.0,0.0,0.0,0.0,0.0,0.0,0.0,0.0,0.0,0.0,0.0,0.0,0.0,0.0,0.0,0.0,0.0,0.0,0.0,0.0,0.0,0.0,0.0,0.0,0.0,0.0,0.0,0.0,0.0,0.0,0.0,0.0,0.0,0.0,0.0,0.0,0.0,0.0,0.0,0.0,0.0,0.0,0.0,0.0,0.0,0.0,0.0,0.0,0.0,0.0,0.0,0.0,0.0,0.0,0.0,0.0,0.0,0.0,0.0,0.0,0.0,0.0,0.0,0.0,0.0,0.0,0.0,0.0,0.0,0.0,0.0,0.0,0.0,0.0,0.0,0.0,0.0,0.0,0.0,0.0,0.0,0.0,0.0,0.0,0.0,0.0,0.0,0.0,0.0,0.0,0.0,0.0,0.0,0.0,0.0,0.0,0.0,0.0,0.0,0.0,0.0,0.0,0.0,0.0,0.0,0.0,0.0,0.0,0.0,0.0,0.0,0.0,0.0,0.0,0.0,0.0,0.0,0.0,0.0,0.0,0.0,0.0,0.0,0.0,0.0,0.0,0.0,0.0,0.0,0.0,0.0,0.0,0.0,0.0,0.0,0.0,0.0,0.0,0.0,0.0,0.0,0.0,0.0,0.0,0.0,0.0,0.0,0.0,0.0,0.0,0.0,0.0,0.0,0.0,0.0,0.0,0.0,0.0,0.0,0.0,0.0,0.0,0.0,0.0,0.0,0.0,0.0,0.0,0.0,0.0,0.0,0.0,0.0,0.0,0.0,0.0,0.0,0.0,0.0,0.0,0.0,0.0,0.0,0.0,0.0,0.0,0.0,0.0,0.0,0.0,0.0,0.0,0.0,0.0,0.0,0.0,0.0,0.0,0.0,0.0,0.0,0.0,0.0,0.0,0.0,0.0,0.0,0.0,0.0,0.0,0.0,0.0,0.0,0.0,0.0,0.0,0.0,0.0,0.0,0.0,0.0,0.0,0.0,0.0,0.0,0.0,0.0,0.0,0.0,0.0,0.0,0.0,0.0,0.0,0.0,0.0,0.0,0.0,0.0,0.0,0.0,0.0,0.0,0.0,0.0,0.0,0.0,0.0,0.0,0.0,0.0,0.0,0.0,0.0,0.0,0.0,0.0,0.0,0.0,0.0,0.0,0.0,0.0,0.0,0.0,0.0,0.0,0.0,0.0,0.0,0.0,0.0,0.0,0.0,0.0,0.0,0.0,0.0,0.0,0.0,0.0,0.0,0.0,0.0,0.0,0.0,0.0,0.0,0.0,0.0,0.0,0.0,0.0,0.0,0.0,0.0,0.0,0.0,0.0,0.0,0.0,0.0,0.0,0.0,0.0,0.0,0.0,0.0,0.0,0.0,0.0,0.0,0.0,0.0,0.0,0.0,0.0,0.0,0.0,0.0,0.0,0.0,0.0,0.0,0.0,0.0,0.0,0.0,0.0,0.0,0.0,0.0,0.0,0.0,0.0,0.0,0.0,0.0,0.0,0.0,0.0,0.0,0.0,0.0,0.0,0.0,0.0,0.0,0.0,0.0,0.0,0.0,0.0,0.0,0.0,0.0,0.0,0.0,0.0,0.0,0.0,0.0,0.0,0.0,0.0,0.0,0.0,0.0,0.0,0.0,0.0,0.0,0.0,0.0,0.0,0.0,0.0,0.0,0.0,0.0,0.0,0.0,0.0,0.0,0.0,0.0,0.0,0.0,0.0,0.0,0.0,0.0,0.0,0.0,0.0,0.0,0.0,0.0,0.0,0.0,0.0,0.0,0.0,0.0,0.0,0.0,0.0,0.0,0.0,0.0,0.0,0.0,0.0,0.0,0.0,0.0,0.0,0.0,0.0,0.0,0.0,0.0,0.0,0.0,0.0,0.0,0.0,0.0,0.0,0.0,0.0,0.0,0.0,0.0,0.0,0.0,0.0,0.0,0.0,0.0,0.0,0.0,0.0,0.0,0.0,0.0,0.0,0.0,0.0,0.0,0.0,0.0,0.0,0.0,0.0,0.0,0.0,0.0,0.0,0.0,0.0,0.0,0.0,0.0,0.0,0.0,0.0,0.0,0.0,0.0,0.0,0.0,0.0,0.0,0.0,0.0,0.0,0.0,0.0,0.0,0.0,0.0,0.0,0.0,0.0,0.0,0.0,0.0,0.0,0.0,0.0,0.0,0.0,0.0,0.0,0.0,0.0,0.0,0.0,0.0,0.0,0.0,0.0,0.0,0.0,0.0,0.0,0.0,0.0,0.0,0.0,0.0,0.0,0.0,0.0,0.0,0.0,0.0,0.0,0.0,0.0,0.0,0.0,0.0,0.0,0.0,0.0,0.0,0.0,0.0,0.0,0.0,0.0,0.0,0.0,0.0,0.0,0.0,0.0,0.0,0.0,0.0,0.0,0.0,0.0,0.0,0.0,0.0,0.0,0.0,0.0,0.0,0.0,0.0,0.0,0.0,0.0,0.0,0.0,0.0,0.0,0.0,0.0,0.0,0.0,0.0,0.0,0.0,0.0,0.0,0.0,0.0,0.0,0.0,0.0,0.0,0.0,0.0,0.0,0.0,0.0,0.0,0.0,0.0,0.0,0.0,0.0,0.0,0.0,0.0,0.0,0.0,0.0,0.0,0.0,0.0,0.0,0.0,0.0,0.0,0.0,0.0,0.0,0.0,0.0,0.0,0.0,0.0,0.0,0.0,0.0,0.0,0.0,0.0,0.0,0.0,0.0,0.0,0.0,0.0,0.0,0.0,0.0,0.0,0.0,0.0,0.0,0.0,0.0,0.0,0.0,0.0,0.0,0.0,0.0,0.0,0.0,0.0,0.0,0.0,0.0,0.0,0.0,0.0,0.0,0.0,0.0,0.0,0.0,0.0,0.0,0.0,0.0,0.0,0.0,0.0,0.0,0.0,0.0,0.0,0.0,0.0,0.0,0.0,0.0,0.0,0.0,0.0,0.0,0.0,0.0,0.0,0.0,0.0,0.0,0.0,0.0,0.0,0.0,0.0,0.0,0.0,0.0,0.0,0.0,0.0,0.0,0.0,0.0,0.0,0.0,0.0,0.0,0.0,0.0,0.0,0.0,0.0,0.0,0.0,0.0,0.0,0.0,0.0,0.0,0.0,0.0,0.0,0.0,0.0,0.0,0.0,0.0,0.0,0.0,0.0,0.0,0.0,0.0,0.0,0.0,0.0,0.0,0.0,0.0,0.0,0.0,0.0,0.0,0.0,0.0,0.0,0.0,0.0,0.0,0.0,0.0,0.0,0.0,0.0,0.0,0.0,0.0,0.0,0.0,0.0,0.0,0.0,0.0,0.0,0.0,0.0,0.0,0.0,0.0,0.0,0.0,0.0,0.0,0.0,0.0,0.0,0.0,0.0,0.0,0.0,0.0,0.0,0.0,0.0,0.0,0.0,0.0,0.0,0.0,0.0,0.0,0.0,0.0,0.0,0.0,0.0,0.0,0.0,0.0,0.0,0.0,0.0,0.0,0.0,0.0,0.0,0.0,0.0,0.0,0.0,0.0,0.0,0.0,0.0,0.0,0.0,0.0,0.0,0.0,0.0,0.0,0.0,0.0,0.0,0.0,0.0,0.0,0.0,0.0,0.0,0.0,0.0,0.0,0.0,0.0,0.0,0.0,0.0,0.0,0.0,0.0,0.0,0.0,0.0,0.0,0.0,0.0,0.0,0.0,0.0,0.0,0.0,0.0,0.0,0.0,0.0,0.0,0.0,0.0,0.0,0.0,0.0,0.0,0.0,0.0,0.0,0.0,0.0,0.0,0.0,0.0,0.0,0.0,0.0,0.0,0.0,0.0,0.0,0.0,0.0,0.0,0.0,0.0,0.0,0.0,0.0,0.0,0.0,0.0,0.0,0.0,0.0,0.0,0.0,0.0,0.0,0.0,0.0,0.0,0.0,0.0,0.0,0.0,0.0,0.0,0.0,0.0,0.0,0.0,0.0,0.0,0.0,0.0,0.0,0.0,0.0,0.0,0.0,0.0,0.0,0.0,0.0,0.0,0.0,0.0,0.0,0.0,0.0,0.0,0.0,0.0,0.0,0.0,0.0,0.0,0.0,0.0,0.0,0.0,0.0,0.0,0.0,0.0,0.0,0.0,0.0,0.0,0.0,0.0,0.0,0.0,0.0,0.0,0.0,0.0,0.0,0.0,0.0,0.0,0.0,0.0,0.0,0.0,0.0,0.0,0.0,0.0,0.0,0.0,0.0,0.0,0.0,0.0,0.0,0.0,0.0,0.0,0.0,0.0,0.0,0.0,0.0,0.0,0.0,0.0,0.0,0.0,0.0,0.0,0.0,0.0,0.0,0.0,0.0,0.0,0.0,0.0,0.0,0.0,0.0,0.0,0.0,0.0,0.0,0.0,0.0,0.0,0.0,0.0,0.0,0.0,0.0,0.0,0.0,0.0,0.0,0.0,0.0,0.0,0.0,0.0,0.0,0.0,0.0,0.0,0.0,0.0,0.0,0.0,0.0,0.0,0.0,0.0,0.0,0.0,0.0,0.0,0.0,0.0,0.0,0.0,0.0,0.0,0.0,0.0,0.0,0.0,0.0,0.0,0.0,0.0,0.0,0.0,0.0,0.0,0.0,0.0,0.0,0.0,0.0,0.0,0.0,0.0,0.0,0.0,0.0,0.0,0.0,0.0,0.0,0.0,0.0,0.0,0.0,0.0,0.0,0.0,0.0,0.0,0.0,0.0,0.0,0.0,0.0,0.0,0.0,0.0,0.0,0.0,0.0,0.0,0.0,0.0,0.0,0.0,0.0,0.0,0.0,0.0,0.0,0.0,0.0,0.0,0.0,0.0,0.0,0.0,0.0,0.0,0.0,0.0,0.0,0.0,0.0,0.0,0.0,0.0,0.0,0.0,0.0,0.0,0.0,0.0,0.0,0.0,0.0,0.0,0.0,0.0,0.0,0.0,0.0,0.0,0.0,0.0,0.0,0.0,0.0,0.0,0.0,0.0,0.0,0.0,0.0,0.0,0.0,0.0,0.0,0.0,0.0,0.0,0.0,0.0,0.0,0.0,0.0,0.0,0.0,0.0,0.0,0.0,0.0,0.0,0.0,0.0,0.0,0.0,0.0,0.0,0.0,0.0,0.0,0.0,0.0,0.0,0.0,0.0,0.0,0.0,0.0,0.0,0.0,0.0,0.0,0.0,0.0,0.0,0.0,0.0,0.0,0.0,0.0,0.0,0.0,0.0,0.0,0.0,0.0,0.0,0.0,0.0,0.0,0.0,0.0,0.0,0.0,0.0,0.0,0.0,0.0,0.0,0.0,0.0,0.0,0.0,0.0,0.0,0.0,0.0,0.0,0.0,0.0,0.0,0.0,0.0,0.0,0.0,0.0,0.0,0.0,0.0,0.0,0.0,0.0,0.0,0.0,0.0,0.0,0.0,0.0,0.0,0.0,0.0,0.0,0.0,0.0,0.0,0.0,0.0,0.0,0.0,0.0,0.0,0.0,0.0,0.0,0.0,0.0,0.0,0.0,0.0,0.0,0.0,0.0,0.0,0.0,0.0,0.0,0.0,0.0,0.0,0.0,0.0,0.0,0.0,0.0,0.0,0.0,0.0,0.0,0.0,0.0,0.0,0.0,0.0,0.0,0.0,0.0,0.0,0.0,0.0,0.0,0.0,0.0,0.0,0.0,0.0,0.0,0.0,0.0,3.7467,0.0,0.0,0.0,0.0,0.0,0.0,0.0,0.0,0.0,0.0,0.0,0.0,0.0,0.0,0.0,0.0,0.0,0.0,0.0,0.0,0.0,0.0,0.0,0.0,0.0,0.0,0.0,0.0,0.0,0.0,0.0,0.0,0.0,0.0,0.0,0.0,0.0,0.0,0.0,0.0,0.0,0.0,0.0,0.0,0.0,0.0,0.0,0.0,0.0,0.0,0.0,0.0,0.0,0.0,0.0,0.0,0.0,0.0,0.0,0.0,0.0,0.0,0.0,0.0,0.0,0.0,0.0,0.0,0.0,0.0,0.0,0.0,0.0,0.0,0.0,0.0,0.0,0.0,0.0,0.0,0.0,0.0,0.0,0.0,0.0,0.0,0.0,0.0,0.0,0.0,0.0,0.0,0.0,0.0,0.0,0.0,0.0,0.0,0.0,0.0,0.0,0.0,0.0,0.0,0.0,0.0,0.0,0.0,0.0,0.0,0.0,0.0,0.0,0.0,0.0,0.0,3.8007,0.0,0.0,0.0,0.0,0.0,0.0,0.0,0.0,0.0,0.0,0.0,0.0,0.0,0.0,0.0,0.0,0.0,0.0,0.0,0.0,0.0,0.0,0.0,0.0,0.0,0.0,0.0,0.0,0.0,0.0,0.0,0.0,0.0,0.0,0.0,0.0,0.0,0.0,0.0,0.0,0.0,0.0,0.0,0.0,0.0,0.0,0.0,0.0,0.0,0.0,0.0,0.0,0.0,0.0,0.0,0.0,0.0,0.0,0.0,0.0,0.0,0.0,0.0,0.0,0.0,0.0,0.0,0.0,0.0,0.0,0.0,0.0,0.0,0.0,0.0,0.0,0.0,0.0,0.0,0.0,0.0,0.0,0.0,0.0,0.0,0.0,0.0,0.0,0.0,0.0,0.0,0.0,0.0,0.0,0.0,0.0,0.0,0.0,0.0,0.0,0.0,0.0,0.0,0.0,0.0,0.0,0.0,0.0,0.0,0.0,3.8452,3.9184,3.9513,3.9475,3.874,3.8432,3.8432,0.0,0.0,0.0,0.0,0.0,0.0,0.0,0.0,0.0,0.0,0.0,0.0,0.0,0.0,0.0,0.0,0.0,0.0,0.0,0.0,0.0,0.0,0.0,0.0,0.0,0.0,0.0,0.0,0.0,0.0,0.0,0.0,0.0,0.0,0.0,0.0,0.0,0.0,0.0,0.0,0.0,3.1136,3.1136,0.0,0.0,0.0,0.0,0.0,0.0,0.0,0.0,0.0,0.0,0.0,0.0,0.0,0.0,0.0,0.0,0.0,0.0,0.0,0.0,0.0,0.0,0.0,0.0,0.0,0.0,0.0,0.0,0.0,0.0,0.0,0.0,0.0,0.0,0.0,0.0,0.0,0.0,0.0,0.0,0.0,0.0,0.0,0.0,3.55,3.55,0.0,0.0,0.0,0.0,0.0,0.0,0.0,0.0,0.0,0.0,0.0,0.0,0.0,0.0,3.8007,3.8742,3.9127,3.9146,3.984,4.0167,4.0167,4.0283,4.0341,4.0342,4.0225,0.0,4.0167,4.0167,0.0,0.0,0.0,0.0,0.0,0.0,0.0,0.0,0.0,0.0,0.0,0.0,0.0,0.0,0.0,0.0,0.0,0.0,0.0,0.0,0.0,0.0,0.0,0.0,0.0,0.0,0.0,0.0,0.0,0.0,0.0,0.0,0.0,0.0,0.0,0.0,0.0,0.0,0.0,0.0,0.0,0.0,0.0,0.0,0.0,3.253,0.0,0.0,0.0,0.0,0.0,0.0,0.0,0.0,0.0,0.0,0.0,0.0,0.0,0.0,0.0,0.0,0.0,0.0,0.0,0.0,0.0,0.0,0.0,0.0,0.0,0.0,0.0,0.0,0.0,0.0,0.0,0.0,0.0,0.0,0.0,0.0,0.0,0.0,0.0,3.6907,3.6907,3.6907,3.6907,3.7042,0.0,0.0,0.0,0.0,0.0,0.0,0.0,0.0,0.0,3.9396,3.9873,4.014,4.014,4.1008,4.1433,4.1433,4.1799,4.1952,4.1952,4.1952,4.1952,4.1952,4.1952,4.1952,4.1897,4.0898,4.0496,4.0496,0.0,0.0,0.0,0.0,0.0,4.1952,0.0,0.0,0.0,0.0,0.0,0.0,0.0,0.0,0.0,0.0,0.0,0.0,0.0,0.0,0.0,0.0,0.0,0.0,0.0,0.0,0.0,0.0,0.0,0.0,0.0,0.0,0.0,0.0,0.0,0.0,0.0,0.0,0.0,0.0,0.0,0.0,0.0,0.0,0.0,0.0,0.0,0.0,0.0,0.0,0.0,0.0,0.0,0.0,0.0,0.0,0.0,0.0,0.0,0.0,0.0,0.0,0.0,0.0,0.0,0.0,0.0,0.0,0.0,0.0,0.0,0.0,0.0,0.0,0.0,0.0,0.0,0.0,0.0,0.0,0.0,0.0,0.0,3.7922,3.7909,3.7983,3.7922,3.7988,0.0,0.0,0.0,0.0,0.0,0.0,3.9894,3.9933,4.0319,4.1148,4.1797,4.2139,4.2139,4.2775,4.3104,4.3104,4.3104,4.3104,4.3104,4.3104,4.3104,4.3104,4.3104,4.3104,4.3008,4.1704,4.1168,4.1168,4.1168,4.1568,0.0,4.2139,4.2545,4.3104,0.0,0.0,0.0,0.0,0.0,0.0,0.0,0.0,0.0,0.0,0.0,0.0,0.0,0.0,0.0,0.0,0.0,0.0,0.0,0.0,0.0,0.0,0.0,0.0,0.0,0.0,0.0,0.0,0.0,0.0,0.0,0.0,0.0,0.0,0.0,0.0,0.0,0.0,0.0,0.0,0.0,0.0,0.0,0.0,0.0,0.0,0.0,0.0,0.0,0.0,0.0,0.0,0.0,0.0,0.0,0.0,0.0,0.0,0.0,0.0,0.0,0.0,0.0,0.0,0.0,0.0,0.0,0.0,0.0,0.0,0.0,0.0,0.0,0.0,0.0,0.0,0.0,0.0,0.0,3.7964,3.7727,0.0,0.0,0.0,0.0,4.0321,4.036,4.0743,4.1639,4.1677,4.2062,4.2931,4.3008,4.3028,4.3028,4.3085,4.3104,4.3104,4.3104,4.3104,4.3104,4.3104,4.3104,4.3104,4.3104,4.3104,4.3085,4.3008,4.297,4.297,4.297,4.3008,4.3028,4.3028,4.3066,4.3104,0.0,0.0,0.0,0.0,0.0,0.0,0.0,0.0,0.0,0.0,0.0,0.0,0.0,0.0,0.0,0.0,0.0,0.0,0.0,0.0,0.0,0.0,0.0,0.0,0.0,0.0,0.0,0.0,0.0,0.0,0.0,0.0,0.0,0.0,0.0,0.0,0.0,0.0,0.0,0.0,0.0,0.0,0.0,0.0,0.0,0.0,0.0,0.0,0.0,0.0,0.0,0.0,0.0,0.0,0.0,0.0,0.0,0.0,0.0,0.0,0.0,0.0,0.0,0.0,0.0,0.0,0.0,0.0,0.0,0.0,0.0,0.0,0.0,0.0,0.0,0.0,0.0,0.0,0.0,3.96,3.9503,0.0,0.0,4.091,4.1258,4.2106,4.2164,4.2318,4.2622,4.2641,4.2775,4.3085,4.3605,4.3876,4.3876,4.4436,4.4705,4.4705,4.4705,4.4705,4.4705,4.4705,4.4705,4.4705,4.4705,4.4705,4.4705,4.4705,4.4068,4.3104,4.3104,4.3412,4.3876,4.3876,4.4222,4.4705,0.0,0.0,0.0,0.0,0.0,0.0,0.0,0.0,0.0,0.0,0.0,0.0,0.0,0.0,0.0,0.0,0.0,0.0,0.0,0.0,0.0,0.0,0.0,0.0,0.0,0.0,0.0,0.0,0.0,0.0,0.0,0.0,0.0,0.0,0.0,0.0,0.0,0.0,0.0,0.0,0.0,0.0,3.5441,0.0,0.0,0.0,0.0,0.0,0.0,0.0,0.0,0.0,0.0,0.0,0.0,0.0,0.0,0.0,0.0,0.0,0.0,0.0,0.0,0.0,0.0,0.0,0.0,0.0,0.0,0.0,0.0,0.0,0.0,0.0,0.0,0.0,0.0,0.0,4.0767,4.0778,4.0935,4.13,4.1973,4.2037,4.2324,4.3041,4.3104,4.322,4.3489,4.3508,4.3645,4.3934,4.4453,4.4744,4.4744,4.5304,4.5592,4.5592,4.5592,4.5592,4.5592,4.5592,4.5592,4.5592,4.5592,4.5592,4.5612,4.5917,4.5374,4.4353,4.4068,4.4261,4.4744,4.4744,4.509,4.5592,0.0,0.0,0.0,0.0,0.0,0.0,0.0,0.0,0.0,0.0,0.0,0.0,0.0,0.0,0.0,0.0,0.0,0.0,0.0,0.0,0.0,0.0,0.0,0.0,0.0,0.0,0.0,0.0,0.0,0.0,0.0,0.0,0.0,0.0,0.0,0.0,0.0,0.0,0.0,0.0,0.0,0.0,3.5481,0.0,0.0,0.0,0.0,0.0,0.0,0.0,0.0,0.0,0.0,0.0,0.0,0.0,0.0,0.0,0.0,0.0,0.0,0.0,0.0,0.0,0.0,0.0,0.0,0.0,0.0,0.0,0.0,0.0,0.0,0.0,0.0,0.0,4.0637,4.0986,4.1337,4.1319,4.1792,4.2238,4.2519,4.2553,4.2728,4.3145,4.3175,4.3498,4.4288,4.432,4.4705,4.5581,4.562,4.5643,4.5688,4.5688,4.5688,4.5688,4.5688,4.5688,4.5688,4.5688,4.5688,4.5688,4.5688,4.5688,4.5746,4.6584,4.6947,4.6851,4.6013,4.5688,4.5688,4.5688,4.5688,4.5688,0.0,0.0,0.0,0.0,0.0,0.0,0.0,0.0,0.0,0.0,0.0,0.0,0.0,0.0,0.0,0.0,0.0,0.0,0.0,0.0,0.0,0.0,0.0,0.0,0.0,0.0,0.0,0.0,0.0,0.0,0.0,0.0,0.0,0.0,0.0,0.0,0.0,0.0,0.0,0.0,0.0,0.0,3.4924,0.0,0.0,0.0,0.0,0.0,0.0,0.0,0.0,0.0,0.0,0.0,0.0,0.0,0.0,0.0,0.0,0.0,0.0,0.0,0.0,0.0,0.0,0.0,0.0,0.0,0.0,0.0,0.0,0.0,0.0,0.0,0.0,4.1349,4.1101,4.1716,4.2085,4.1836,4.2143,4.267,4.3373,4.3666,4.4114,4.4855,4.4691,4.4656,4.4866,4.4654,4.5005,4.6076,4.6103,4.6521,4.7391,4.7413,4.7413,4.7413,4.7413,4.7413,4.7413,4.7413,4.7413,4.7413,4.7413,4.7413,4.7432,4.768,4.7774,4.7755,4.7507,4.7413,4.7413,4.7413,4.7413,4.7413,0.0,0.0,0.0,0.0,0.0,0.0,0.0,0.0,0.0,0.0,0.0,0.0,0.0,0.0,0.0,0.0,0.0,0.0,0.0,0.0,0.0,0.0,0.0,0.0,0.0,0.0,0.0,0.0,0.0,0.0,0.0,0.0,0.0,0.0,0.0,0.0,0.0,0.0,0.0,0.0,0.0,0.0,3.4699,3.4699,3.4799,3.491,3.4765,3.4905,3.5134,3.4983,0.0,0.0,0.0,0.0,0.0,0.0,0.0,0.0,0.0,0.0,0.0,0.0,0.0,0.0,0.0,0.0,0.0,0.0,0.0,0.0,0.0,0.0,0.0,0.0,4.1808,4.2302,4.2155,4.2653,4.2877,4.238,4.2953,4.351,4.3841,4.4065,4.4589,4.5606,4.5507,4.5534,4.5885,4.587,4.6146,4.6782,4.6975,4.7382,4.8082,4.8103,4.8103,4.8103,4.8103,4.8103,4.8103,4.8103,4.8103,0.0,4.8103,4.8103,4.8122,4.8488,4.8642,0.0,0.0,0.0,0.0,0.0,4.8103,4.8103,0.0,0.0,0.0,0.0,0.0,0.0,0.0,0.0,0.0,0.0,0.0,0.0,0.0,0.0,0.0,0.0,0.0,0.0,0.0,0.0,0.0,0.0,0.0,0.0,0.0,0.0,0.0,0.0,0.0,0.0,0.0,0.0,0.0,0.0,0.0,0.0,0.0,0.0,0.0,0.0,0.0,0.0,3.4865,3.4763,3.4773,3.4805,3.4662,3.4681,3.4793,3.483,0.0,0.0,0.0,0.0,0.0,0.0,0.0,0.0,0.0,0.0,0.0,0.0,0.0,0.0,0.0,0.0,0.0,0.0,0.0,0.0,0.0,0.0,0.0,0.0,4.2513,4.3591,4.3358,4.3691,4.3695,4.3025,4.3956,4.453,4.4173,4.4255,4.4773,4.5843,4.5882,4.6195,4.6965,0.0,0.0,0.0,0.0,4.8234,4.8327,4.8378,4.8392,4.8392,4.8392,4.8392,4.8392,4.8392,4.8392,4.8392,4.8392,4.8392,4.8449,4.9223,4.955,4.9473,4.8702,4.8392,4.8392,4.8392,4.8392,0.0,0.0,0.0,0.0,0.0,0.0,0.0,0.0,0.0,0.0,0.0,0.0,0.0,0.0,0.0,0.0,0.0,0.0,0.0,0.0,0.0,0.0,0.0,0.0,0.0,0.0,0.0,0.0,0.0,0.0,0.0,0.0,0.0,0.0,0.0,0.0,0.0,0.0,0.0,0.0,0.0,0.0,0.0,3.5902,3.5219,3.5247,3.5523,3.4386,3.4561,3.5379,3.559,3.6096,3.6757,3.7452,0.0,0.0,0.0,0.0,0.0,0.0,0.0,0.0,0.0,0.0,0.0,0.0,0.0,0.0,0.0,0.0,0.0,0.0,0.0,0.0,4.2347,4.2738,4.3092,4.3424,4.4313,4.4632,4.3867,4.4558,4.5043,4.4981,4.5851,4.6518,4.6751,4.6473,4.6499,4.6967,4.6823,0.0,4.8112,4.8529,4.905,4.9704,5.004,5.0207,5.0207,0.0,0.0,5.0207,5.0207,5.0207,5.0207,5.0207,5.0207,5.0207,5.038,5.0457,5.0438,5.0265,5.0207,5.0207,5.0207,5.0207,5.0207,0.0,0.0,0.0,0.0,0.0,0.0,0.0,0.0,0.0,0.0,0.0,0.0,0.0,0.0,0.0,0.0,0.0,0.0,0.0,0.0,0.0,0.0,0.0,0.0,0.0,0.0,0.0,0.0,0.0,0.0,0.0,0.0,0.0,0.0,0.0,0.0,0.0,0.0,0.0,0.0,0.0,0.0,3.7397,3.646,3.629,3.6467,3.575,3.5879,3.636,3.6505,3.7112,3.7886,3.8309,3.9111,3.9898,0.0,0.0,0.0,0.0,0.0,0.0,0.0,0.0,0.0,0.0,0.0,0.0,0.0,0.0,4.1452,0.0,0.0,4.2281,4.2731,4.3133,4.3619,4.4268,4.4843,4.4988,4.4418,4.5203,4.573,4.5561,4.6102,4.6625,4.7022,4.6859,4.7004,4.7616,4.7675,4.7979,4.8576,4.8995,4.9386,4.9797,5.0192,5.0405,5.0405,5.0607,5.0709,5.0709,5.0709,5.0709,5.0709,5.0709,5.0709,5.0709,5.0709,5.0709,5.0709,5.0709,5.0709,5.0709,5.0709,5.0709,5.0709,0.0,0.0,0.0,0.0,0.0,0.0,0.0,0.0,0.0,0.0,0.0,0.0,0.0,0.0,0.0,0.0,0.0,0.0,0.0,0.0,0.0,0.0,0.0,0.0,0.0,0.0,0.0,0.0,0.0,0.0,0.0,0.0,0.0,0.0,0.0,0.0,0.0,0.0,0.0,0.0,0.0,0.0,3.9032,3.8279,3.7756,3.7397,3.7242,3.727,3.7371,3.7499,3.8187,3.9009,3.9164,3.9795,4.0496,4.0496,4.0496,0.0,0.0,0.0,0.0,0.0,0.0,0.0,0.0,0.0,4.161,4.2194,4.2109,4.1975,4.2116,4.2415,4.2707,4.289,4.3604,4.4368,4.5014,4.5363,4.5477,4.5199,4.5986,4.6429,4.6154,4.6269,4.6631,4.7278,4.7333,4.7655,4.8388,4.8713,4.8975,4.9134,4.9597,4.9896,4.9972,5.0295,5.0455,5.0455,5.0623,5.0709,5.0709,5.0709,5.0709,5.0709,5.0709,5.0709,5.0709,5.0709,5.0709,5.0709,5.0709,5.0709,5.0709,5.0709,5.0709,5.0709,0.0,0.0,0.0,0.0,0.0,0.0,0.0,0.0,0.0,0.0,0.0,0.0,0.0,0.0,0.0,0.0,0.0,0.0,0.0,0.0,0.0,0.0,0.0,0.0,0.0,0.0,0.0,0.0,0.0,0.0,0.0,0.0,0.0,0.0,0.0,0.0,0.0,0.0,0.0,0.0,0.0,0.0,4.0585,4.0775,3.9732,3.8085,3.7444,3.7506,3.7997,3.8531,3.8955,3.9387,4.01,4.0402,4.0496,4.0496,0.0,4.0496,4.0496,4.1068,4.1658,4.1658,4.1977,4.2305,0.0,0.0,4.1873,4.1722,4.2454,4.2943,4.2375,4.313,4.3727,4.3454,4.4108,4.4646,4.4743,4.5984,4.6861,4.6847,4.6939,4.7003,4.6975,4.7617,4.8063,4.8154,4.8168,4.8366,4.8803,4.8875,4.9228,4.9932,5.0698,5.1306,5.1722,5.1717,5.1709,5.169,5.1017,5.0709,5.0709,5.0709,5.0709,5.0709,5.0709,5.0709,5.0709,5.0709,5.0709,5.0709,5.0709,5.0709,5.0709,5.0709,5.0709,5.0709,0.0,0.0,0.0,0.0,0.0,0.0,0.0,0.0,0.0,0.0,0.0,0.0,0.0,0.0,0.0,0.0,0.0,0.0,0.0,0.0,0.0,0.0,0.0,0.0,0.0,0.0,0.0,0.0,0.0,0.0,0.0,0.0,0.0,0.0,0.0,0.0,0.0,0.0,0.0,0.0,0.0,0.0,4.0308,4.0601,3.9906,3.8809,3.9044,3.9151,0.0,0.0,3.9912,4.0031,4.0206,4.0372,4.0471,4.0319,4.0375,0.0,4.1125,4.1891,0.0,0.0,4.2342,4.2576,4.2893,4.2855,4.2865,4.3258,4.3548,4.3695,4.3657,4.4066,4.4438,0.0,4.4994,4.5567,4.6035,4.6677,4.7278,4.7746,4.7801,4.7801,4.7801,4.8095,4.8508,4.9027,4.9068,4.9321,4.9963,5.0014,5.0157,5.0503,5.0831,5.1098,5.1295,5.1474,5.1546,5.155,5.1441,5.1408,5.1408,5.1408,5.1274,5.1069,5.1302,5.1128,5.0709,5.0709,5.0709,5.0709,5.0709,5.0709,5.0709,5.0709,5.0709,5.0709,0.0,0.0,0.0,0.0,0.0,0.0,0.0,0.0,0.0,0.0,0.0,0.0,0.0,0.0,0.0,0.0,0.0,0.0,0.0,3.5697,3.6291,0.0,0.0,0.0,0.0,0.0,0.0,0.0,0.0,0.0,0.0,0.0,0.0,0.0,0.0,0.0,0.0,0.0,0.0,0.0,0.0,0.0,4.026,4.055,4.0005,3.9212,4.0077,4.0256,0.0,0.0,4.0496,4.0469,4.0263,4.0345,4.0465,4.0278,4.0522,4.1015,4.179,0.0,0.0,4.2821,4.2903,4.3189,4.3564,4.3561,4.3664,4.4305,4.4384,4.4397,4.4585,4.4922,0.0,4.5379,4.5858,4.6429,4.7021,4.7282,4.7649,4.8223,4.8503,4.8655,4.8655,4.8655,4.9008,4.9876,4.9931,5.0188,5.076,5.0797,5.0894,5.1114,5.1246,5.1394,5.1628,5.1754,5.1811,5.1815,5.1878,5.1967,5.2102,5.221,5.2108,5.1844,5.2126,5.1931,5.1399,5.1399,5.1243,5.1032,5.1032,5.0899,5.0709,5.0709,5.0709,5.0709,0.0,0.0,0.0,0.0,0.0,0.0,0.0,0.0,0.0,0.0,0.0,0.0,0.0,0.0,0.0,0.0,0.0,0.0,0.0,3.5697,3.6291,3.6302,3.7848,3.8703,3.8703,0.0,0.0,0.0,0.0,0.0,0.0,0.0,0.0,0.0,0.0,0.0,0.0,0.0,0.0,0.0,0.0,0.0,4.1105,4.1435,4.0531,3.9179,3.9878,0.0,0.0,0.0,4.0496,4.0494,4.0489,4.0491,0.0,4.0489,4.1081,4.1878,0.0,0.0,4.3705,4.3353,4.391,4.4546,4.4558,4.4252,4.399,4.4009,4.4627,4.5074,4.4749,4.5602,4.6246,4.5937,4.6544,4.7076,4.7094,4.7764,4.8264,4.8301,4.905,4.955,0.0,4.955,4.9894,5.071,5.0765,5.076,5.0797,5.0797,5.1151,5.195,5.2349,5.293,5.3707,5.333,5.3146,5.3128,5.2302,5.2135,5.2593,5.2982,5.3158,5.3149,5.3156,5.3142,5.3123,5.3123,5.262,5.1868,5.1868,5.1392,5.0709,5.0709,5.0709,5.0709,0.0,0.0,0.0,0.0,0.0,0.0,0.0,0.0,0.0,0.0,0.0,0.0,0.0,0.0,0.0,0.0,0.0,0.0,0.0,3.5863,3.6497,3.6302,3.7848,3.8703,3.8703,3.9741,4.0308,0.0,0.0,0.0,0.0,0.0,0.0,0.0,0.0,0.0,0.0,0.0,0.0,0.0,0.0,0.0,4.1077,4.0839,4.006,3.9179,0.0,0.0,0.0,0.0,4.0496,4.0471,4.03,0.0,0.0,4.2068,4.2643,4.3153,4.3312,0.0,4.4581,4.4251,4.4545,4.48,4.4314,4.4297,4.4461,4.4733,4.5007,4.5332,4.5749,4.6393,4.6837,4.6705,4.7374,4.7911,4.7911,4.8136,4.8503,4.9087,4.9417,0.0,0.0,0.0,0.0,5.1541,5.1596,5.183,5.2352,5.2388,5.2522,5.2797,5.2923,5.313,5.3402,5.3266,5.3201,5.3201,5.2894,5.299,5.3405,5.386,5.3885,5.3614,5.3925,5.3719,5.32,5.32,5.3024,5.2755,5.2755,5.2236,5.1507,5.1507,5.1164,5.0709,0.0,0.0,0.0,0.0,0.0,0.0,0.0,0.0,0.0,0.0,0.0,0.0,0.0,0.0,0.0,0.0,0.0,0.0,0.0,0.0,3.6313,3.6449,3.762,3.8412,3.8681,3.9575,4.0005,3.9901,4.1341,0.0,0.0,0.0,0.0,0.0,0.0,0.0,0.0,0.0,0.0,0.0,0.0,0.0,4.1219,4.0689,4.0043,0.0,0.0,0.0,0.0,0.0,4.0496,4.0529,4.0666,4.1411,4.2411,4.3133,4.3649,4.3989,4.4072,4.4573,4.498,4.4517,4.466,4.4763,4.4139,4.4197,4.4544,4.5083,4.5334,4.5702,4.6496,4.7131,4.7521,4.7521,4.7966,4.8301,4.8301,4.8563,4.8972,4.9532,5.0101,0.0,0.0,0.0,0.0,5.2399,5.2435,5.2656,5.3177,5.3196,5.3196,5.3196,5.3196,5.3196,5.3196,5.3196,5.3196,5.3196,5.3339,5.3559,5.3819,5.4284,5.4341,5.4075,5.4371,5.4265,5.3889,5.3889,5.3799,5.3662,5.3662,5.3123,5.2368,5.2368,5.1834,5.1089,0.0,0.0,0.0,0.0,0.0,0.0,0.0,0.0,0.0,0.0,0.0,0.0,0.0,0.0,0.0,0.0,0.0,0.0,0.0,0.0,0.0,3.6612,3.715,3.7826,3.8618,3.9638,4.0054,3.9867,4.098,4.1388,0.0,0.0,0.0,0.0,0.0,0.0,0.0,0.0,0.0,0.0,0.0,0.0,4.1497,4.0963,0.0,0.0,0.0,0.0,0.0,0.0,0.0,0.0,0.0,4.246,4.3218,4.3724,4.408,4.4357,4.4573,4.4861,4.4937,4.4215,4.4325,4.452,4.411,4.4009,4.4224,4.5002,4.5557,4.6159,0.0,0.0,4.8301,4.8301,4.8301,4.8301,4.8301,4.905,4.9624,0.0,0.0,0.0,0.0,0.0,0.0,5.3196,0.0,5.3196,5.3196,5.3196,5.3196,5.3196,5.3196,5.3196,5.3196,5.3196,5.3196,5.3201,5.359,5.3777,5.3819,5.4259,5.4483,5.4503,5.4503,5.4731,5.5065,5.5085,5.4879,5.4531,5.4544,5.403,5.3277,5.3277,5.2717,5.1868,0.0,0.0,0.0,0.0,0.0,0.0,0.0,0.0,0.0,0.0,0.0,0.0,0.0,0.0,0.0,0.0,0.0,0.0,0.0,0.0,0.0,0.0,0.0,0.0,0.0,0.0,0.0,0.0,0.0,4.0724,4.0893,0.0,0.0,0.0,0.0,0.0,0.0,0.0,0.0,0.0,0.0,0.0,4.0954,0.0,0.0,0.0,0.0,0.0,0.0,0.0,0.0,0.0,0.0,4.3265,4.3443,4.4475,4.4648,4.4591,4.4891,4.5038,4.4988,4.4563,4.471,4.4803,4.415,4.4009,4.4162,4.4704,4.539,4.6159,0.0,0.0,0.0,4.8301,4.8301,0.0,4.8301,4.905,0.0,0.0,0.0,5.2239,5.2834,5.3086,0.0,0.0,5.3196,5.3196,5.3196,5.3196,5.3196,5.3196,5.3196,5.3196,5.3196,5.3196,5.3196,5.3196,5.3305,5.3505,5.3805,5.3914,5.417,5.4503,5.4503,5.4566,5.4686,5.4979,5.5049,5.4979,5.5275,5.4898,5.4164,5.4164,5.3623,5.2832,0.0,0.0,0.0,0.0,0.0,0.0,0.0,0.0,0.0,0.0,0.0,0.0,0.0,0.0,0.0,0.0,0.0,0.0,0.0,0.0,0.0,0.0,0.0,0.0,0.0,0.0,0.0,0.0,0.0,0.0,0.0,3.9584,4.0031,4.0376,0.0,0.0,0.0,0.0,0.0,0.0,0.0,0.0,0.0,0.0,0.0,0.0,0.0,0.0,0.0,0.0,0.0,4.2553,4.3493,4.3938,4.4193,4.4737,0.0,4.5042,4.5088,4.5096,4.5024,4.4676,4.4615,4.4478,4.3912,4.378,4.3966,4.4569,4.5053,0.0,0.0,0.0,0.0,0.0,0.0,0.0,4.8301,4.9352,5.0293,0.0,5.1825,0.0,5.3159,5.3196,5.3196,0.0,5.3196,5.3196,5.3196,5.3196,5.3196,5.3196,5.3196,5.3196,5.3196,5.3196,5.3196,5.3196,5.3196,5.3321,5.3545,5.3545,5.3686,5.3934,0.0,5.4037,5.4213,5.4441,5.4648,5.4885,5.5285,5.516,5.4773,5.4965,5.4491,5.378,0.0,0.0,0.0,0.0,0.0,0.0,0.0,0.0,0.0,0.0,0.0,0.0,0.0,0.0,0.0,0.0,0.0,0.0,0.0,0.0,0.0,0.0,0.0,0.0,0.0,0.0,0.0,0.0,0.0,0.0,0.0,0.0,0.0,0.0,0.0,0.0,0.0,0.0,0.0,0.0,0.0,0.0,0.0,0.0,0.0,0.0,0.0,0.0,0.0,0.0,4.3773,4.3741,4.3879,4.4393,4.4922,4.4714,4.5085,4.5485,4.523,4.5126,4.5024,4.4676,4.4308,4.3905,4.3572,4.3506,4.3708,4.4392,0.0,4.5175,4.6521,4.6999,4.7389,4.8031,0.0,4.8301,4.8301,4.9733,5.0797,5.0797,5.2228,5.3196,5.3196,5.3196,5.3196,5.3196,5.3196,5.3196,5.3196,5.3196,5.3196,5.3196,5.3196,5.3196,5.3196,5.3196,5.3196,5.3196,5.3196,5.3196,5.3196,5.3196,5.3196,5.3196,0.0,0.0,5.373,5.3777,5.4035,5.4448,5.4927,5.5091,5.5153,5.5541,5.5263,5.4667,0.0,0.0,0.0,0.0,0.0,0.0,0.0,0.0,0.0,0.0,0.0,0.0,0.0,0.0,0.0,0.0,0.0,0.0,0.0,0.0,0.0,0.0,0.0,0.0,0.0,0.0,0.0,0.0,0.0,0.0,0.0,0.0,0.0,0.0,0.0,0.0,0.0,0.0,0.0,0.0,0.0,0.0,0.0,0.0,0.0,0.0,0.0,0.0,0.0,0.0,4.3618,4.3514,4.4232,4.4339,4.4311,4.4847,4.5094,4.5232,4.5445,4.5315,4.5024,4.4676,4.4308,4.3905,4.3572,4.3506,0.0,0.0,0.0,4.5103,4.512,4.6476,0.0,4.7343,0.0,0.0,0.0,0.0,5.0797,0.0,0.0,0.0,0.0,0.0,0.0,0.0,0.0,0.0,5.3196,5.3196,5.3196,5.3196,5.3196,5.3196,5.3196,5.3196,5.3196,5.3196,5.3196,5.3196,5.3196,5.3196,5.3196,5.3196,0.0,0.0,5.3336,5.3668,5.3856,5.4004,5.4785,5.5091,5.5153,5.5541,5.561,5.5494,0.0,0.0,0.0,0.0,0.0,0.0,0.0,0.0,0.0,0.0,3.0402,3.0303,0.0,0.0,0.0,0.0,0.0,0.0,0.0,0.0,0.0,0.0,0.0,0.0,0.0,0.0,0.0,0.0,0.0,0.0,0.0,0.0,0.0,0.0,0.0,0.0,0.0,0.0,0.0,0.0,0.0,0.0,0.0,0.0,0.0,0.0,0.0,0.0,0.0,0.0,4.4365,4.4275,4.4512,4.447,4.4414,4.4948,4.5222,4.54,4.5561,4.5232,4.4806,4.4631,4.4161,4.3693,4.3539,0.0,0.0,0.0,0.0,4.465,4.4909,0.0,0.0,0.0,0.0,0.0,0.0,0.0,0.0,0.0,0.0,0.0,0.0,0.0,0.0,0.0,0.0,0.0,5.3196,5.3196,5.3196,5.3196,5.3196,5.3196,5.3196,5.3196,5.3196,5.3196,5.3196,5.3196,5.3196,5.3196,5.3196,5.3196,0.0,0.0,5.3217,5.3407,5.3619,5.3878,5.4525,5.492,5.5153,5.5541,5.5706,5.5706,0.0,0.0,0.0,0.0,0.0,0.0,0.0,3.0402,3.0402,3.0402,3.0402,3.0324,3.0105,3.0027,0.0,0.0,0.0,0.0,0.0,0.0,0.0,0.0,0.0,0.0,0.0,0.0,0.0,0.0,0.0,0.0,0.0,0.0,0.0,0.0,0.0,0.0,0.0,0.0,0.0,0.0,0.0,0.0,0.0,0.0,0.0,0.0,0.0,0.0,0.0,0.0,4.5096,4.5058,4.4797,4.472,4.4763,4.5107,4.534,4.5495,4.5495,4.5,4.4474,4.4474,4.3974,4.3506,4.3506,4.3565,0.0,0.0,4.4128,4.4377,4.4859,0.0,0.0,0.0,0.0,0.0,0.0,0.0,0.0,0.0,0.0,0.0,0.0,0.0,0.0,0.0,0.0,0.0,0.0,5.3196,5.3196,5.3196,5.3196,5.3196,5.3196,5.3196,5.3196,5.3196,5.3196,5.3196,5.3196,5.3196,5.3196,5.3196,0.0,0.0,0.0,5.3285,5.351,5.3865,5.4416,5.4815,5.5153,5.5541,5.5706,5.5706,0.0,0.0,0.0,0.0,0.0,0.0,0.0,3.0402,3.0402,3.0402,3.0402,3.0383,3.0364,3.0145,0.0,0.0,0.0,0.0,0.0,0.0,0.0,0.0,0.0,0.0,0.0,0.0,0.0,0.0,0.0,0.0,0.0,0.0,0.0,0.0,0.0,0.0,0.0,0.0,0.0,0.0,0.0,0.0,0.0,0.0,0.0,0.0,0.0,0.0,0.0,0.0,0.0,4.5091,4.5063,4.5058,4.5115,4.5467,0.0,0.0,4.5156,4.4619,4.4065,4.4065,4.3787,4.3506,4.3506,0.0,0.0,4.3982,4.4522,4.4822,4.4218,0.0,0.0,0.0,0.0,4.8576,0.0,0.0,0.0,0.0,0.0,0.0,0.0,0.0,0.0,0.0,0.0,0.0,0.0,5.3196,5.3196,5.3196,5.3196,5.3196,5.3196,5.3196,5.3196,5.3196,5.3196,5.3196,5.3196,5.3196,5.3196,5.3196,0.0,0.0,0.0,5.3599,5.3763,5.3878,5.4715,5.5061,5.5153,5.5541,5.5706,5.5706,0.0,0.0,0.0,0.0,0.0,0.0,0.0,3.0402,3.0402,3.0402,3.0402,3.0402,3.0402,3.0303,3.0959,0.0,0.0,0.0,0.0,0.0,0.0,0.0,0.0,0.0,0.0,0.0,0.0,0.0,0.0,0.0,0.0,0.0,0.0,0.0,0.0,0.0,0.0,0.0,0.0,0.0,0.0,0.0,0.0,0.0,0.0,0.0,0.0,0.0,0.0,0.0,0.0,0.0,4.5405,4.5405,0.0,0.0,4.5357,4.5096,4.5096,4.4567,4.4009,4.4009,4.3754,4.3506,4.3506,0.0,4.4061,4.4304,4.4757,4.4951,4.4445,0.0,0.0,0.0,0.0,0.0,0.0,0.0,0.0,0.0,0.0,0.0,0.0,0.0,0.0,0.0,0.0,0.0,0.0,5.3196,5.3196,5.3196,5.3196,5.3196,5.3196,5.3196,5.3196,5.3196,5.3196,5.3196,5.3196,5.3196,5.3196,5.3196,0.0,0.0,0.0,5.3634,5.3959,5.4284,5.4869,5.5256,5.5486,5.5643,5.5706,5.5706,0.0,0.0,0.0,0.0,0.0,0.0,3.0402,3.0402,3.0402,3.0402,3.0402,3.0402,3.0402,3.0402,3.1077,3.2742,0.0,0.0,0.0,0.0,0.0,0.0,0.0,0.0,0.0,0.0,0.0,0.0,0.0,0.0,0.0,0.0,0.0,0.0,0.0,0.0,0.0,0.0,0.0,0.0,0.0,0.0,0.0,0.0,0.0,0.0,0.0,0.0,0.0,0.0,0.0,0.0,0.0,0.0,0.0,0.0,4.5283,4.4948,4.4948,4.4414,4.3881,4.3982,4.3754,4.356,0.0,4.4012,4.4283,4.467,4.5005,4.5159,4.4818,4.5981,0.0,0.0,0.0,4.8687,0.0,0.0,0.0,0.0,0.0,0.0,0.0,0.0,0.0,0.0,0.0,0.0,0.0,0.0,5.3196,5.3196,5.3196,5.3196,5.3196,5.3196,5.3196,5.3196,5.3196,5.3196,5.3196,5.3196,5.3196,0.0,0.0,0.0,0.0,5.3915,5.4303,5.4558,5.5068,5.5444,5.5706,5.5706,5.5706,5.5706,0.0,0.0,0.0,0.0,0.0,0.0,0.0,3.0402,3.0402,3.0402,3.0402,3.0402,3.0402,3.0402,3.1077,3.2742,0.0,0.0,0.0,0.0,0.0,0.0,0.0,0.0,0.0,0.0,0.0,0.0,0.0,0.0,0.0,0.0,0.0,0.0,0.0,0.0,0.0,0.0,0.0,0.0,0.0,0.0,4.0496,0.0,0.0,0.0,0.0,0.0,0.0,0.0,0.0,0.0,0.0,4.5592,4.5592,0.0,4.5132,4.4618,4.4618,4.4065,4.358,4.3913,4.3754,4.3687,0.0,4.4583,4.4682,4.5033,4.5354,4.5495,4.5164,4.6136,4.6875,4.6454,4.747,0.0,0.0,0.0,0.0,0.0,0.0,0.0,0.0,0.0,0.0,0.0,0.0,0.0,0.0,0.0,5.3196,5.3196,5.3196,5.3196,5.3196,5.3196,5.3196,5.3196,5.3196,5.3196,5.3196,5.3196,0.0,0.0,0.0,0.0,0.0,5.456,5.4844,5.459,5.5387,5.5703,5.5706,5.5706,5.5706,5.5706,0.0,0.0,0.0,0.0,0.0,0.0,0.0,3.0402,3.0402,3.0402,3.0402,3.0402,3.0402,3.0402,3.1077,3.2742,0.0,0.0,0.0,0.0,0.0,0.0,0.0,0.0,0.0,0.0,0.0,0.0,0.0,0.0,0.0,0.0,0.0,0.0,0.0,0.0,0.0,0.0,0.0,0.0,0.0,4.0496,4.0496,0.0,0.0,0.0,0.0,0.0,0.0,0.0,0.0,0.0,0.0,0.0,0.0,4.5592,4.5297,4.494,4.494,4.4606,4.4273,4.437,4.433,4.4308,4.454,4.4785,4.4966,4.5077,4.5378,4.5429,4.4869,4.5988,4.6798,4.616,4.7312,0.0,0.0,0.0,0.0,0.0,0.0,0.0,0.0,0.0,0.0,0.0,0.0,0.0,0.0,0.0,5.3196,5.3196,5.3196,5.3196,5.3196,5.3196,5.3196,5.3196,5.3196,5.3196,5.3196,5.3196,0.0,0.0,0.0,0.0,0.0,5.429,5.4606,5.459,5.539,5.5706,5.5706,5.5706,5.5706,5.5706,0.0,0.0,0.0,0.0,0.0,0.0,0.0,3.0402,3.0402,3.0402,3.0402,3.0402,3.0402,3.0402,3.1077,3.2742,0.0,0.0,0.0,0.0,0.0,0.0,0.0,0.0,0.0,0.0,0.0,0.0,0.0,0.0,0.0,0.0,0.0,0.0,0.0,0.0,0.0,0.0,0.0,0.0,4.0496,4.0496,4.0496,0.0,0.0,0.0,0.0,0.0,0.0,0.0,0.0,0.0,0.0,0.0,0.0,0.0,4.5445,4.5255,0.0,4.4861,4.4625,4.4767,4.4685,0.0,4.4925,4.505,4.5148,4.5255,4.5448,4.5527,4.5283,4.6206,4.6914,4.6624,4.7818,0.0,0.0,0.0,0.0,0.0,0.0,0.0,0.0,0.0,0.0,0.0,0.0,0.0,0.0,0.0,5.3196,5.3196,5.3196,5.3196,5.3196,5.3196,5.3196,5.3196,5.3196,5.3196,5.3196,0.0,0.0,0.0,0.0,0.0,0.0,5.4371,5.4738,5.4782,5.5457,5.5706,5.5706,5.5706,5.5706,5.5706,0.0,0.0,0.0,0.0,0.0,0.0,0.0,0.0,0.0,0.0,3.0402,3.0402,3.0402,3.0463,3.1136,0.0,0.0,0.0,0.0,0.0,0.0,0.0,0.0,0.0,0.0,0.0,0.0,0.0,3.5381,3.5362,3.5128,0.0,0.0,0.0,0.0,0.0,0.0,0.0,0.0,0.0,4.0496,4.0496,0.0,0.0,0.0,0.0,0.0,0.0,0.0,0.0,0.0,0.0,0.0,0.0,0.0,0.0,0.0,0.0,0.0,4.4911,0.0,0.0,0.0,0.0,4.5452,4.5354,0.0,4.5546,4.5592,4.5737,4.6186,4.666,4.7146,4.7591,4.8753,0.0,0.0,0.0,0.0,0.0,0.0,0.0,0.0,0.0,0.0,0.0,0.0,0.0,0.0,0.0,0.0,5.3196,5.3196,5.3196,5.3196,5.3196,5.3196,5.3196,5.3196,5.3196,5.3196,0.0,0.0,0.0,0.0,0.0,0.0,5.4708,5.5068,5.5147,5.5532,5.5706,5.5706,5.5706,5.5706,5.5706,0.0,0.0,0.0,0.0,0.0,0.0,0.0,0.0,0.0,0.0,0.0,3.0402,3.0402,3.0999,0.0,0.0,0.0,0.0,0.0,0.0,0.0,0.0,0.0,0.0,0.0,0.0,0.0,3.54,3.546,3.546,3.5416,3.5415,0.0,0.0,0.0,0.0,0.0,0.0,0.0,0.0,4.0496,4.0496,0.0,0.0,0.0,0.0,4.1487,4.2352,0.0,0.0,0.0,0.0,0.0,0.0,0.0,0.0,4.5592,4.5581,4.5504,0.0,4.5376,4.5455,4.5424,0.0,0.0,4.5548,0.0,0.0,0.0,4.5664,4.588,4.6518,4.7042,4.7207,4.8566,0.0,0.0,0.0,0.0,0.0,0.0,0.0,0.0,0.0,0.0,0.0,0.0,0.0,0.0,0.0,0.0,5.3196,5.3196,5.3196,5.3196,5.3196,5.3196,5.3196,5.3196,5.3196,5.3196,0.0,0.0,0.0,0.0,0.0,0.0,5.4412,5.4815,5.5147,5.5532,5.5706,5.5706,5.5706,5.5706,5.5706,0.0,0.0,0.0,0.0,0.0,0.0,0.0,0.0,0.0,0.0,0.0,0.0,0.0,0.0,0.0,0.0,0.0,0.0,0.0,0.0,0.0,0.0,0.0,0.0,0.0,0.0,0.0,0.0,0.0,3.55,0.0,0.0,0.0,0.0,0.0,0.0,0.0,0.0,0.0,4.0487,4.0366,0.0,0.0,0.0,0.0,0.0,4.2083,4.2949,0.0,4.4609,4.5205,4.5592,0.0,0.0,0.0,0.0,4.5592,4.5592,4.5592,4.5592,4.5592,4.5592,4.5592,4.5592,4.5592,0.0,0.0,0.0,0.0,4.6231,4.6333,4.7013,0.0,0.0,0.0,0.0,0.0,0.0,0.0,0.0,0.0,0.0,0.0,0.0,0.0,0.0,0.0,0.0,0.0,0.0,0.0,0.0,5.3196,5.3196,5.3196,5.3196,5.3196,5.3196,5.3196,5.3196,5.3196,0.0,0.0,0.0,0.0,0.0,5.4157,5.4598,5.5014,5.5402,5.5607,5.5706,5.5706,5.5706,5.5706,5.5706,0.0,0.0,0.0,0.0,0.0,0.0,0.0,0.0,0.0,0.0,0.0,0.0,0.0,0.0,0.0,0.0,0.0,0.0,0.0,0.0,0.0,0.0,0.0,0.0,0.0,0.0,0.0,0.0,0.0,0.0,0.0,0.0,0.0,0.0,0.0,0.0,0.0,0.0,0.0,4.0477,4.0204,0.0,0.0,0.0,0.0,0.0,0.0,0.0,0.0,4.5304,4.5592,4.5592,4.5592,0.0,0.0,0.0,0.0,0.0,4.5592,4.5592,4.5592,4.5592,4.5592,4.5592,0.0,0.0,0.0,0.0,0.0,0.0,0.0,0.0,0.0,0.0,0.0,0.0,0.0,0.0,0.0,0.0,0.0,0.0,0.0,0.0,0.0,0.0,0.0,0.0,0.0,0.0,0.0,0.0,5.3196,5.3196,5.3196,5.3196,5.3196,5.3196,5.3196,5.3196,5.3196,5.3196,0.0,0.0,0.0,0.0,5.4535,5.4922,5.5334,5.5706,5.5706,5.5706,5.5706,5.5706,5.5706,5.5706,0.0,0.0,0.0,0.0,0.0,0.0,0.0,0.0,0.0,0.0,0.0,0.0,0.0,0.0,0.0,0.0,0.0,0.0,0.0,0.0,0.0,0.0,0.0,0.0,0.0,0.0,0.0,0.0,0.0,0.0,3.6512,3.6601,3.7517,0.0,0.0,0.0,0.0,0.0,0.0,4.0477,4.0204,0.0,0.0,0.0,0.0,0.0,0.0,0.0,0.0,4.5304,4.5592,4.5592,4.5592,0.0,0.0,0.0,0.0,0.0,4.5592,4.5592,4.5592,4.5592,4.5592,4.5592,0.0,0.0,0.0,0.0,0.0,0.0,0.0,0.0,0.0,0.0,0.0,0.0,0.0,0.0,0.0,0.0,0.0,0.0,0.0,0.0,0.0,0.0,0.0,0.0,0.0,0.0,0.0,0.0,0.0,5.3196,5.3196,5.3196,5.3196,5.3196,5.3196,5.3196,5.3196,5.3196,5.3196,0.0,0.0,0.0,5.4535,5.4922,5.5334,5.5706,5.5706,5.5706,5.5706,5.5706,5.5706,5.5706,0.0,0.0,0.0,0.0,0.0,0.0,0.0,0.0,0.0,0.0,0.0,0.0,0.0,0.0,0.0,0.0,0.0,0.0,0.0,0.0,0.0,0.0,0.0,0.0,0.0,0.0,0.0,0.0,0.0,3.6192,3.6718,3.7662,3.8756,3.9956,0.0,0.0,0.0,0.0,0.0,4.0252,0.0,0.0,0.0,0.0,0.0,0.0,0.0,0.0,0.0,0.0,4.5592,4.5592,4.5592,0.0,0.0,0.0,0.0,0.0,4.5592,4.5592,4.5592,4.5592,4.5592,0.0,0.0,0.0,0.0,0.0,0.0,0.0,0.0,0.0,0.0,0.0,0.0,0.0,0.0,0.0,0.0,0.0,0.0,0.0,0.0,0.0,0.0,0.0,0.0,0.0,0.0,0.0,0.0,0.0,0.0,0.0,5.3196,5.3196,5.3196,5.3196,5.3196,5.3196,5.3196,5.3196,5.3196,0.0,0.0,5.4297,5.4554,5.517,5.5526,5.5706,5.5706,5.5706,5.5706,5.5706,5.5706,5.5706,0.0,0.0,0.0,0.0,0.0,0.0,0.0,0.0,0.0,0.0,0.0,0.0,0.0,0.0,0.0,0.0,0.0,0.0,0.0,0.0,0.0,0.0,0.0,0.0,0.0,0.0,0.0,3.55,3.6098,3.6708,3.7343,3.8867,3.9917,0.0,0.0,0.0,0.0,0.0,0.0,4.0182,0.0,0.0,0.0,0.0,0.0,0.0,0.0,0.0,0.0,0.0,0.0,0.0,0.0,0.0,0.0,4.5592,4.5592,4.5592,4.5592,4.5592,4.5592,4.5592,0.0,0.0,0.0,0.0,0.0,0.0,0.0,0.0,0.0,0.0,0.0,0.0,0.0,0.0,0.0,0.0,0.0,0.0,0.0,0.0,0.0,0.0,0.0,0.0,0.0,0.0,0.0,0.0,0.0,0.0,0.0,0.0,5.3196,5.3196,5.3196,5.3196,5.3196,5.3196,5.3196,5.3196,5.3251,5.339,5.4159,5.4558,5.4708,5.5408,5.5706,5.5706,5.5706,5.5706,5.5706,5.5706,5.5706,5.5706,0.0,0.0,0.0,0.0,0.0,0.0,0.0,0.0,0.0,0.0,0.0,0.0,0.0,0.0,0.0,0.0,0.0,0.0,0.0,0.0,0.0,0.0,0.0,0.0,0.0,3.55,3.55,3.55,3.6297,3.7515,3.9125,4.0013,4.0437,4.0496,0.0,0.0,0.0,0.0,0.0,0.0,4.0726,0.0,0.0,0.0,0.0,0.0,0.0,0.0,0.0,0.0,0.0,0.0,0.0,0.0,4.5592,4.5592,4.5592,4.5592,4.5592,4.5592,4.5592,4.5592,0.0,0.0,0.0,0.0,0.0,0.0,0.0,0.0,0.0,0.0,0.0,0.0,0.0,0.0,0.0,0.0,0.0,0.0,0.0,0.0,0.0,0.0,0.0,0.0,0.0,0.0,0.0,0.0,0.0,0.0,0.0,0.0,5.3196,5.3196,5.3196,5.3196,5.3196,5.3196,5.3196,5.3196,5.3402,5.3777,5.4276,5.4704,5.5081,5.5518,5.5706,5.5706,5.5706,5.5706,5.5706,5.5706,5.5706,5.5706,0.0,0.0,0.0,0.0,0.0,0.0,0.0,0.0,0.0,0.0,0.0,0.0,0.0,0.0,0.0,0.0,0.0,0.0,0.0,0.0,0.0,0.0,0.0,3.55,3.55,3.55,3.5757,3.6253,3.7645,3.882,3.9803,4.0277,0.0,0.0,0.0,0.0,0.0,0.0,0.0,0.0,4.1048,4.1923,0.0,0.0,0.0,0.0,0.0,0.0,0.0,0.0,4.5592,4.5592,4.5592,4.5592,4.5592,4.5592,4.5592,4.5592,4.5592,4.5592,4.5592,4.5592,0.0,0.0,0.0,0.0,0.0,0.0,0.0,0.0,0.0,0.0,0.0,0.0,0.0,0.0,0.0,0.0,0.0,0.0,0.0,0.0,0.0,0.0,0.0,0.0,0.0,0.0,0.0,0.0,0.0,0.0,0.0,0.0,0.0,5.3196,5.3196,5.3196,5.3196,5.3196,5.3196,5.3196,5.3422,5.3833,5.4293,5.4738,5.5137,5.5526,5.5706,5.5706,5.5706,5.5706,5.5706,5.5706,5.5706,5.5706,0.0,0.0,0.0,0.0,0.0,0.0,0.0,0.0,0.0,0.0,0.0,0.0,0.0,0.0,0.0,0.0,0.0,0.0,0.0,0.0,0.0,0.0,0.0,3.5619,3.5876,3.5877,3.6159,3.6704,3.8445,3.9624,4.0225,0.0,0.0,0.0,0.0,0.0,0.0,0.0,0.0,0.0,0.0,4.2889,0.0,0.0,0.0,0.0,0.0,0.0,0.0,0.0,4.5592,4.5592,4.5592,4.5592,4.5592,4.5592,4.5592,4.5592,4.5592,4.5592,4.5669,0.0,0.0,0.0,0.0,0.0,0.0,0.0,0.0,0.0,0.0,0.0,0.0,0.0,0.0,0.0,0.0,0.0,0.0,0.0,0.0,0.0,0.0,0.0,0.0,0.0,0.0,0.0,0.0,0.0,0.0,0.0,0.0,0.0,0.0,5.3196,5.3196,5.3196,5.3196,5.3196,5.3196,5.3196,5.3499,5.4035,5.4355,5.4793,5.531,5.5585,5.5706,5.5706,5.5706,5.5706,5.5706,5.5706,5.5706,5.5706,0.0,0.0,0.0,0.0,0.0,0.0,0.0,0.0,0.0,0.0,0.0,0.0,0.0,0.0,0.0,0.0,0.0,0.0,0.0,0.0,0.0,0.0,0.0,3.5877,3.6689,3.6727,3.6722,3.6723,3.8453,3.9721,4.0496,4.0496,0.0,0.0,0.0,0.0,0.0,0.0,0.0,0.0,0.0,4.4071,4.4415,0.0,0.0,0.0,0.0,0.0,0.0,0.0,4.5592,4.5592,4.5592,4.5592,4.5592,4.5592,4.5592,4.5592,4.5592,4.5592,4.5802,0.0,0.0,0.0,0.0,0.0,0.0,0.0,0.0,0.0,0.0,0.0,0.0,0.0,0.0,0.0,0.0,0.0,0.0,0.0,0.0,0.0,0.0,0.0,0.0,0.0,0.0,0.0,0.0,0.0,0.0,0.0,0.0,0.0,0.0,5.3196,5.3196,5.3196,5.3196,5.3196,5.3196,5.3201,5.3681,5.4503,5.4507,5.4962,5.5706,5.5706,5.5706,5.5706,5.5706,5.5706,5.5706,5.5706,5.5706,5.5706,0.0,0.0,0.0,0.0,0.0,0.0,0.0,0.0,0.0,0.0,0.0,0.0,0.0,0.0,0.0,0.0,0.0,0.0,0.0,0.0,0.0,0.0,0.0,0.0,0.0,0.0,3.852,3.8531,3.9604,4.0277,0.0,0.0,0.0,4.037,0.0,0.0,0.0,0.0,0.0,0.0,4.394,4.4593,4.5246,0.0,0.0,0.0,0.0,0.0,0.0,0.0,0.0,0.0,4.5592,4.5592,4.5592,4.5592,4.5592,4.5592,4.5592,4.5592,0.0,0.0,0.0,0.0,0.0,0.0,0.0,0.0,0.0,0.0,0.0,0.0,0.0,0.0,0.0,0.0,0.0,0.0,0.0,0.0,0.0,0.0,0.0,0.0,0.0,0.0,0.0,0.0,0.0,0.0,0.0,0.0,0.0,0.0,0.0,0.0,5.3196,5.3196,5.3196,5.3196,5.3206,5.3485,5.3938,5.4519,5.4793,5.5212,5.5706,5.5706,5.5706,5.5706,5.5706,5.5706,5.5706,5.5706,5.5706,5.5706,0.0,0.0,0.0,0.0,0.0,0.0,0.0,0.0,0.0,0.0,0.0,0.0,0.0,0.0,0.0,0.0,0.0,0.0,0.0,0.0,0.0,0.0,0.0,0.0,0.0,3.9077,3.9781,0.0,0.0,0.0,0.0,0.0,0.0,4.0356,0.0,4.0852,0.0,0.0,0.0,4.4097,4.4617,4.5052,4.5417,0.0,0.0,0.0,0.0,0.0,0.0,0.0,0.0,0.0,4.5592,4.5592,4.5592,4.5592,4.5592,4.5592,4.5592,4.584,0.0,0.0,0.0,0.0,0.0,0.0,0.0,0.0,0.0,0.0,0.0,0.0,0.0,0.0,0.0,0.0,0.0,0.0,0.0,0.0,0.0,0.0,0.0,0.0,0.0,0.0,0.0,0.0,0.0,0.0,0.0,0.0,0.0,0.0,0.0,0.0,0.0,5.3447,5.3447,5.3543,5.371,5.3777,5.4138,5.4753,5.5167,5.548,5.5706,5.5706,5.5706,5.5706,5.5706,5.5706,5.5706,5.5706,5.5706,5.5706,0.0,0.0,0.0,0.0,0.0,0.0,0.0,0.0,0.0,0.0,0.0,0.0,0.0,0.0,0.0,0.0,0.0,0.0,0.0,0.0,0.0,0.0,0.0,0.0,0.0,0.0,0.0,0.0,0.0,0.0,0.0,0.0,4.0407,4.0287,0.0,4.1425,0.0,4.3261,4.4106,4.444,4.5232,4.5349,4.5088,4.5426,0.0,0.0,0.0,0.0,0.0,0.0,0.0,0.0,4.5592,4.5592,4.5592,4.5592,4.5577,4.5564,4.5586,0.0,0.0,0.0,0.0,0.0,0.0,0.0,0.0,0.0,0.0,0.0,0.0,0.0,0.0,0.0,0.0,0.0,0.0,0.0,0.0,0.0,0.0,0.0,0.0,0.0,0.0,0.0,0.0,0.0,0.0,0.0,0.0,0.0,0.0,0.0,0.0,0.0,0.0,0.0,5.3782,5.4044,5.4495,5.4101,5.4366,5.5176,5.5532,5.5706,5.5706,5.5706,5.5706,5.5706,5.5706,5.5706,5.5706,5.5706,5.5706,5.5706,0.0,0.0,0.0,0.0,0.0,0.0,0.0,0.0,0.0,0.0,0.0,0.0,0.0,0.0,0.0,0.0,0.0,0.0,0.0,0.0,0.0,0.0,0.0,0.0,0.0,0.0,0.0,0.0,0.0,0.0,0.0,0.0,0.0,4.1434,0.0,4.2418,4.3672,4.4059,4.4492,4.4939,4.5132,4.5019,4.4735,4.5083,4.515,0.0,0.0,0.0,0.0,0.0,0.0,0.0,4.5592,4.5592,4.5592,4.5592,4.5415,4.5258,4.5522,4.6007,0.0,0.0,0.0,0.0,0.0,0.0,0.0,0.0,0.0,0.0,0.0,0.0,0.0,0.0,0.0,0.0,0.0,0.0,0.0,0.0,0.0,0.0,0.0,0.0,0.0,0.0,0.0,0.0,0.0,0.0,0.0,0.0,0.0,0.0,5.3196,5.3196,5.3235,0.0,5.3653,5.4044,5.4511,5.4731,5.5098,5.5577,5.566,5.5706,5.5706,5.5706,5.5706,5.5706,5.5706,5.5706,5.5706,5.5706,5.5706,5.5706,0.0,0.0,0.0,0.0,0.0,0.0,0.0,0.0,0.0,0.0,0.0,0.0,0.0,0.0,0.0,0.0,0.0,0.0,0.0,0.0,0.0,0.0,0.0,0.0,0.0,0.0,0.0,0.0,0.0,0.0,0.0,0.0,0.0,4.185,0.0,4.3384,4.4099,4.4504,4.4752,4.4864,4.4864,4.4763,4.4647,4.4966,4.5096,4.5134,4.5485,0.0,0.0,0.0,0.0,0.0,0.0,0.0,4.5592,4.5592,4.5483,4.5388,4.5559,0.0,0.0,0.0,0.0,0.0,0.0,0.0,0.0,0.0,0.0,0.0,0.0,0.0,0.0,0.0,0.0,0.0,0.0,0.0,0.0,0.0,0.0,0.0,0.0,0.0,0.0,0.0,0.0,0.0,0.0,0.0,0.0,0.0,0.0,0.0,5.3196,5.3381,5.3494,5.3485,5.4117,5.4655,5.5075,5.5294,5.5504,5.5706,5.5706,5.5706,5.5706,5.5706,5.5706,5.5706,5.5706,5.5706,5.5706,5.5706,5.5706,5.5706,0.0,0.0,0.0,0.0,0.0,0.0,0.0,0.0,0.0,0.0,0.0,0.0,0.0,0.0,0.0,0.0,0.0,0.0,0.0,0.0,0.0,0.0,0.0,0.0,0.0,0.0,0.0,0.0,0.0,0.0,0.0,0.0,0.0,4.2293,0.0,0.0,4.407,4.4786,4.4872,4.4501,4.4567,4.4553,4.4544,4.4946,4.5096,4.5134,4.5485,4.5592,4.5592,4.5592,0.0,0.0,0.0,0.0,4.5592,4.5592,4.5564,4.5539,4.5581,0.0,0.0,0.0,0.0,0.0,0.0,0.0,0.0,0.0,0.0,0.0,0.0,0.0,0.0,0.0,0.0,0.0,0.0,0.0,0.0,0.0,0.0,0.0,0.0,0.0,0.0,0.0,0.0,0.0,0.0,0.0,0.0,0.0,0.0,5.322,5.33,5.3629,5.3805,5.3814,5.4686,5.531,5.5706,5.5706,5.5706,5.5706,5.5706,5.5706,5.5706,5.5706,5.5706,5.5706,5.5706,5.5706,5.5706,5.5706,5.5706,5.5706,0.0,0.0,0.0,0.0,0.0,0.0,0.0,0.0,0.0,0.0,0.0,0.0,0.0,0.0,0.0,0.0,0.0,0.0,0.0,0.0,0.0,0.0,0.0,0.0,0.0,0.0,0.0,0.0,0.0,0.0,0.0,0.0,0.0,4.3972,0.0,0.0,0.0,4.5058,4.472,4.4106,4.4464,4.4399,4.4154,4.4839,0.0,0.0,0.0,4.5592,4.5592,4.5592,4.5592,0.0,0.0,0.0,4.5592,4.5592,4.5381,4.5227,0.0,0.0,0.0,0.0,0.0,0.0,0.0,0.0,0.0,0.0,0.0,0.0,0.0,0.0,0.0,0.0,0.0,0.0,0.0,0.0,0.0,0.0,0.0,0.0,0.0,0.0,0.0,0.0,0.0,0.0,0.0,0.0,5.3359,5.3711,5.3371,0.0,5.372,5.3768,5.3805,5.3814,5.4686,5.531,5.5706,5.5706,5.5706,5.5706,5.5706,5.5706,5.5706,5.5706,5.5706,5.5706,5.5706,5.5706,5.5706,5.5706,5.5706,5.5706,0.0,0.0,0.0,0.0,0.0,0.0,0.0,0.0,0.0,0.0,0.0,0.0,0.0,0.0,0.0,0.0,0.0,0.0,0.0,0.0,0.0,0.0,0.0,0.0,0.0,0.0,0.0,0.0,0.0,0.0,0.0,4.2987,4.3585,0.0,0.0,0.0,0.0,0.0,4.4502,4.4005,4.3985,4.4136,4.4357,0.0,0.0,0.0,0.0,0.0,0.0,4.5592,4.5592,4.5592,4.5592,0.0,0.0,0.0,4.5497,0.0,4.6713,0.0,0.0,0.0,0.0,0.0,0.0,0.0,0.0,0.0,0.0,0.0,0.0,0.0,0.0,0.0,0.0,0.0,0.0,0.0,0.0,0.0,0.0,0.0,0.0,0.0,0.0,0.0,0.0,0.0,0.0,5.354,5.3744,5.4174,5.4028,0.0,5.4187,5.4421,5.4636,5.4875,5.5015,5.531,5.5706,5.5706,5.5706,5.5706,5.5706,5.5706,5.5706,5.5706,5.5706,5.5706,5.5706,5.5706,5.5706,5.5706,5.5706,5.5706,0.0,0.0,0.0,0.0,0.0,0.0,0.0,0.0,0.0,0.0,0.0,0.0,0.0,0.0,0.0,0.0,0.0,0.0,0.0,0.0,0.0,0.0,0.0,0.0,0.0,0.0,0.0,0.0,0.0,0.0,4.3412,4.4159,4.4495,0.0,4.5171,0.0,0.0,0.0,0.0,0.0,0.0,4.405,0.0,0.0,0.0,0.0,0.0,0.0,0.0,0.0,0.0,0.0,0.0,0.0,0.0,0.0,0.0,0.0,0.0,0.0,0.0,0.0,0.0,0.0,0.0,0.0,0.0,0.0,0.0,0.0,0.0,0.0,0.0,0.0,0.0,0.0,0.0,0.0,0.0,0.0,0.0,0.0,0.0,0.0,0.0,0.0,0.0,0.0,5.3777,5.3805,5.4066,5.4629,5.4558,5.4558,5.4644,5.4955,5.5303,5.5703,5.5399,5.5411,5.5706,5.5706,5.5706,5.5706,5.5706,5.5706,5.5706,5.5706,5.5706,5.5706,5.5706,5.5706,5.5706,5.5706,5.5706,5.5706,0.0,0.0,0.0,0.0,0.0,0.0,0.0,0.0,0.0,0.0,0.0,0.0,0.0,0.0,0.0,0.0,0.0,0.0,0.0,0.0,0.0,0.0,0.0,0.0,0.0,0.0,0.0,0.0,0.0,0.0,4.4256,4.4801,4.5061,4.5061,4.5118,4.4716,4.4069,0.0,0.0,0.0,0.0,0.0,0.0,0.0,0.0,0.0,0.0,0.0,0.0,0.0,0.0,0.0,0.0,0.0,0.0,0.0,0.0,0.0,0.0,0.0,0.0,0.0,0.0,0.0,0.0,0.0,0.0,0.0,0.0,0.0,0.0,0.0,0.0,0.0,0.0,0.0,0.0,0.0,0.0,0.0,0.0,0.0,0.0,0.0,0.0,0.0,0.0,0.0,5.3777,5.3805,5.4198,5.5041,5.4693,5.4674,5.508,5.5081,5.5303,5.5706,5.5673,5.5673,5.5706,5.5706,5.5706,5.5706,5.5706,5.5706,5.5706,5.5706,5.5706,5.5706,5.5706,5.5706,5.5706,5.5706,5.5706,5.5706,0.0,0.0,0.0,0.0,0.0,0.0,0.0,0.0,0.0,0.0,0.0,0.0,0.0,0.0,3.6412,3.7443,3.8043,0.0,0.0,0.0,0.0,0.0,0.0,0.0,0.0,0.0,0.0,0.0,0.0,4.3793,4.399,4.4758,4.4847,4.4406,4.4883,4.483,4.4384,4.4537,0.0,0.0,0.0,0.0,0.0,0.0,0.0,0.0,0.0,0.0,0.0,0.0,0.0,0.0,0.0,0.0,0.0,0.0,0.0,0.0,0.0,0.0,0.0,0.0,0.0,0.0,0.0,0.0,0.0,0.0,0.0,0.0,0.0,0.0,0.0,0.0,0.0,0.0,0.0,0.0,0.0,0.0,0.0,0.0,0.0,0.0,0.0,0.0,0.0,0.0,5.4221,5.4497,5.4905,5.5474,5.536,5.5334,5.5486,5.5489,5.5563,5.5706,5.5706,5.5706,5.5706,5.5706,5.5706,5.5706,5.5706,5.5706,5.5706,5.5706,5.5706,5.5706,5.5706,5.5706,5.5706,5.5706,5.5706,5.5706,0.0,0.0,0.0,0.0,0.0,0.0,0.0,0.0,0.0,0.0,0.0,0.0,0.0,0.0,0.0,3.8348,3.9204,3.9921,4.0475,4.0496,0.0,0.0,0.0,0.0,0.0,0.0,0.0,0.0,0.0,0.0,0.0,4.4656,4.46,4.402,4.4647,4.467,0.0,0.0,0.0,4.4201,0.0,0.0,4.4223,0.0,0.0,0.0,0.0,0.0,0.0,0.0,0.0,0.0,0.0,0.0,0.0,0.0,0.0,0.0,4.6661,0.0,0.0,0.0,0.0,0.0,0.0,0.0,0.0,0.0,0.0,0.0,0.0,0.0,0.0,0.0,0.0,0.0,0.0,0.0,0.0,0.0,0.0,0.0,0.0,0.0,0.0,0.0,0.0,0.0,5.4479,5.4873,5.5288,5.5698,5.5706,5.5706,5.5706,5.5706,5.5706,5.5706,5.5706,5.5706,5.5706,5.5706,5.5706,5.5706,5.5706,5.5706,5.5706,5.5706,5.5706,5.5706,5.5706,5.5706,5.5706,5.5706,5.5706,5.5706,0.0,0.0,0.0,0.0,0.0,0.0,0.0,0.0,0.0,0.0,0.0,0.0,0.0,0.0,0.0,3.9246,4.0038,4.0494,4.0496,4.0496,0.0,0.0,0.0,0.0,0.0,0.0,0.0,0.0,0.0,0.0,0.0,0.0,4.4366,0.0,4.4416,4.4187,4.3548,0.0,4.4176,4.3586,0.0,4.4132,4.3589,0.0,0.0,0.0,4.4637,4.4846,0.0,0.0,0.0,0.0,0.0,0.0,0.0,0.0,0.0,0.0,0.0,0.0,0.0,0.0,0.0,0.0,0.0,0.0,0.0,0.0,0.0,0.0,0.0,0.0,0.0,0.0,0.0,0.0,0.0,0.0,0.0,0.0,0.0,0.0,0.0,0.0,0.0,0.0,0.0,5.4022,5.4499,5.4906,5.53,5.5698,5.5706,5.5706,5.5706,5.5706,5.5706,5.5706,5.5706,5.5706,5.5706,5.5706,5.5706,5.5706,5.5706,5.5706,5.5706,5.5706,5.5706,5.5706,5.5706,5.5706,5.5706,5.5706,5.5706,5.5706,0.0,0.0,0.0,0.0,0.0,0.0,0.0,0.0,0.0,0.0,0.0,0.0,0.0,0.0,0.0,3.9862,4.0079,4.0296,4.0494,4.0496,4.0781,4.141,4.1448,4.1714,0.0,0.0,0.0,0.0,0.0,0.0,0.0,0.0,0.0,0.0,4.411,4.3916,4.3526,4.3985,0.0,0.0,4.3812,4.3824,0.0,0.0,0.0,0.0,0.0,4.5376,0.0,0.0,4.5255,4.5483,0.0,0.0,0.0,0.0,0.0,0.0,4.5898,0.0,0.0,0.0,0.0,0.0,5.156,5.2099,0.0,0.0,0.0,0.0,0.0,0.0,0.0,0.0,0.0,0.0,0.0,0.0,0.0,0.0,0.0,0.0,0.0,0.0,0.0,0.0,0.0,5.4496,5.492,5.5316,5.5585,5.5703,5.5706,5.5706,5.5706,5.5706,5.5706,5.5706,5.5706,5.5706,5.5706,5.5706,5.5706,5.5706,5.5706,5.5706,5.5706,5.5706,5.5706,5.5706,5.5706,5.5706,5.5706,5.5706,5.5706,5.5706,0.0,0.0,0.0,0.0,0.0,0.0,0.0,0.0,0.0,0.0,0.0,0.0,0.0,0.0,0.0,0.0,4.0277,4.0489,4.101,4.0903,4.1203,4.2063,4.1956,4.2181,0.0,0.0,0.0,0.0,0.0,0.0,0.0,0.0,0.0,0.0,0.0,0.0,0.0,0.0,0.0,0.0,4.3734,0.0,0.0,4.4395,4.4714,0.0,0.0,0.0,4.5371,4.5327,4.5436,0.0,0.0,0.0,0.0,0.0,0.0,0.0,0.0,0.0,0.0,0.0,0.0,0.0,5.1084,5.1659,0.0,0.0,0.0,0.0,0.0,0.0,0.0,0.0,0.0,0.0,0.0,0.0,0.0,0.0,0.0,0.0,0.0,0.0,0.0,0.0,5.4508,5.4931,5.5328,5.5574,5.5706,5.5706,5.5706,5.5706,5.5706,5.5706,5.5706,5.5706,5.5706,5.5706,5.5706,5.5706,5.5706,5.5706,5.5706,5.5706,5.5706,5.5706,5.5706,5.5706,5.5706,5.5706,5.5706,5.5706,5.5706,5.5706,0.0,0.0,0.0,0.0,0.0,0.0,0.0,0.0,0.0,0.0,0.0,0.0,0.0,0.0,0.0,0.0,4.0506,4.0903,4.1762,4.1536,4.1738,4.2547,4.2293,4.2555,4.3425,0.0,0.0,0.0,0.0,0.0,0.0,0.0,0.0,0.0,0.0,0.0,0.0,0.0,0.0,4.3526,4.3814,4.3779,0.0,0.0,4.4557,0.0,4.4971,4.5118,4.5204,4.5499,4.5575,0.0,0.0,0.0,0.0,0.0,4.5592,0.0,0.0,0.0,0.0,0.0,0.0,0.0,5.0476,5.1241,5.1791,0.0,0.0,0.0,0.0,0.0,0.0,0.0,0.0,0.0,0.0,0.0,0.0,0.0,0.0,0.0,0.0,0.0,0.0,5.4582,5.4945,5.5319,5.5673,5.5706,5.5706,5.5706,5.5706,5.5706,5.5706,5.5706,5.5706,5.5706,5.5706,5.5706,5.5706,5.5706,5.5706,5.5706,5.5706,5.5706,5.5706,5.5706,5.5706,5.5706,5.5706,5.5706,5.5706,5.5706,5.5706,5.5706,3.6023,0.0,0.0,0.0,0.0,0.0,0.0,0.0,0.0,0.0,0.0,0.0,0.0,0.0,0.0,0.0,0.0,4.1095,4.1907,4.1905,4.2243,4.3101,4.3077,4.3447,4.4338,4.4183,0.0,0.0,0.0,0.0,0.0,0.0,0.0,0.0,0.0,0.0,0.0,0.0,0.0,4.3515,4.3563,0.0,4.3548,4.397,4.4311,4.4638,4.4971,4.5265,4.5511,0.0,4.5422,4.524,0.0,0.0,0.0,0.0,0.0,0.0,0.0,0.0,0.0,0.0,0.0,0.0,5.0341,5.0822,5.1128,0.0,0.0,0.0,0.0,0.0,0.0,0.0,0.0,0.0,0.0,0.0,0.0,0.0,0.0,0.0,0.0,0.0,5.5061,5.4993,5.5366,5.5627,5.5703,5.5706,5.5706,5.5706,5.5706,5.5706,5.5706,5.5706,5.5706,5.5706,5.5706,5.5706,5.5706,5.5706,5.5706,5.5706,5.5706,5.5706,5.5706,5.5706,5.5706,5.5706,5.5706,5.5706,5.5706,5.5706,5.5706,5.5706,3.6821,0.0,0.0,0.0,0.0,0.0,0.0,0.0,0.0,0.0,0.0,0.0,0.0,0.0,0.0,0.0,0.0,0.0,0.0,0.0,4.3039,4.3913,4.3753,4.3844,4.4293,4.4147,4.4024,0.0,0.0,0.0,0.0,0.0,0.0,0.0,0.0,0.0,0.0,0.0,4.3506,4.3506,4.3506,0.0,4.3764,4.3932,4.4592,4.5473,4.5643,4.6181,4.682,4.6642,4.6597,0.0,0.0,4.624,4.6165,0.0,4.5592,4.5592,0.0,0.0,0.0,4.768,0.0,0.0,0.0,5.0709,5.0803,5.1221,0.0,0.0,0.0,0.0,0.0,0.0,0.0,0.0,0.0,0.0,0.0,0.0,0.0,0.0,0.0,0.0,5.5402,5.5402,5.5585,5.5706,5.5706,5.5706,5.5706,5.5706,5.5706,5.5706,5.5706,5.5706,5.5706,5.5706,5.5706,5.5706,5.5706,5.5706,5.5706,5.5706,5.5706,5.5706,5.5706,5.5706,5.5706,5.5706,5.5706,5.5706,5.5706,5.5706,5.5706,5.5706,3.7595,0.0,0.0,0.0,0.0,0.0,0.0,0.0,0.0,0.0,0.0,0.0,0.0,0.0,0.0,0.0,0.0,0.0,0.0,0.0,0.0,4.4363,4.4076,4.3928,4.4005,4.3738,4.3734,0.0,0.0,0.0,0.0,0.0,0.0,0.0,0.0,0.0,0.0,0.0,0.0,4.3506,0.0,4.3666,4.3924,4.4157,4.5066,4.6241,4.6547,4.7261,4.8053,4.7798,0.0,4.7988,4.7331,4.7139,0.0,0.0,0.0,0.0,0.0,0.0,0.0,0.0,0.0,4.8759,0.0,0.0,0.0,5.0709,0.0,0.0,0.0,0.0,0.0,0.0,0.0,0.0,0.0,0.0,0.0,0.0,0.0,0.0,0.0,0.0,5.5706,5.5706,5.5706,5.5706,5.5706,5.5706,5.5706,5.5706,5.5706,5.5706,5.5706,5.5706,5.5706,5.5706,5.5706,5.5706,5.5706,5.5706,5.5706,5.5706,5.5706,5.5706,5.5706,5.5706,5.5706,5.5706,5.5706,5.5706,5.5706,5.5706,5.5706,5.5706,3.8553,3.8557,0.0,0.0,0.0,0.0,0.0,0.0,0.0,0.0,0.0,0.0,0.0,0.0,0.0,0.0,0.0,0.0,4.3436,0.0,0.0,0.0,4.3576,4.3708,4.3982,4.3963,4.3963,4.4009,0.0,0.0,0.0,0.0,0.0,0.0,4.3506,0.0,0.0,0.0,4.3506,0.0,4.3506,4.3522,0.0,4.4753,4.5448,4.6042,4.7401,4.7984,4.8098,0.0,4.8061,4.8084,0.0,4.7966,0.0,0.0,0.0,0.0,0.0,0.0,0.0,0.0,4.9243,0.0,0.0,0.0,5.0709,5.0709,0.0,0.0,0.0,0.0,0.0,0.0,0.0,0.0,0.0,0.0,0.0,0.0,0.0,0.0,0.0,0.0,0.0,5.5706,5.5706,5.5706,5.5706,5.5706,5.5706,5.5706,5.5706,5.5706,5.5706,5.5706,5.5706,5.5706,5.5706,5.5706,5.5706,5.5706,5.5706,5.5706,5.5706,5.5706,5.5706,5.5706,5.5706,5.5706,5.5706,5.5706,5.5706,5.5706,5.5706,5.5706,3.8795,3.9079,0.0,0.0,0.0,0.0,0.0,0.0,0.0,0.0,0.0,0.0,0.0,0.0,0.0,0.0,0.0,4.3297,0.0,0.0,0.0,0.0,0.0,0.0,4.4005,4.3816,4.371,4.371,4.371,0.0,0.0,0.0,0.0,0.0,4.3506,0.0,4.3506,0.0,0.0,0.0,0.0,0.0,0.0,4.523,4.6549,4.8045,4.9189,4.9608,4.9608,0.0,4.9608,0.0,0.0,0.0,0.0,0.0,0.0,0.0,0.0,0.0,0.0,0.0,0.0,0.0,0.0,0.0,5.0709,0.0,0.0,0.0,0.0,0.0,0.0,0.0,0.0,0.0,0.0,0.0,0.0,0.0,0.0,0.0,0.0,0.0,0.0,0.0,0.0,5.5706,5.5706,5.5706,5.5706,5.5706,5.5706,5.5706,5.5706,5.5706,5.5706,5.5706,5.5706,5.5706,5.5706,5.5706,5.5706,5.5706,5.5706,5.5706,5.5706,5.5706,5.5706,5.5706,5.5706,5.5706,5.5706,5.5706,5.5706,5.5706,3.9474,0.0,0.0,0.0,0.0,0.0,0.0,0.0,0.0,0.0,0.0,0.0,4.2632,4.3155,0.0,0.0,0.0,4.3506,0.0,0.0,4.3861,0.0,0.0,0.0,0.0,0.0,4.3506,4.3506,0.0,0.0,0.0,0.0,0.0,0.0,0.0,4.3506,4.3506,0.0,0.0,4.3524,4.374,4.4517,4.5582,4.6124,4.7602,4.9524,5.0261,5.0539,5.0552,5.0666,5.0709,0.0,4.9957,0.0,0.0,0.0,0.0,0.0,4.8817,0.0,0.0,0.0,0.0,0.0,0.0,0.0,0.0,0.0,0.0,0.0,0.0,0.0,0.0,0.0,0.0,0.0,0.0,0.0,0.0,0.0,0.0,0.0,0.0,0.0,0.0,0.0,5.5032,0.0,5.5687,5.5706,5.5706,5.5706,5.5706,5.5706,5.5706,5.5706,5.5706,5.5706,5.5706,5.5706,5.5706,5.5706,5.5706,5.5706,5.5706,5.5706,5.5706,5.5706,5.5706,5.5706,5.5706,5.5706,5.5706,5.5706,5.5706,5.5706,4.1026,4.104,0.0,0.0,0.0,0.0,0.0,0.0,0.0,0.0,0.0,0.0,0.0,0.0,0.0,0.0,0.0,4.3506,4.3506,0.0,4.3509,0.0,0.0,4.3509,0.0,0.0,0.0,4.3506,0.0,0.0,0.0,0.0,0.0,0.0,0.0,4.3506,4.3506,4.3506,4.3506,4.3561,4.4356,4.5835,4.7607,0.0,4.8414,4.9541,4.9974,0.0,0.0,5.0562,5.0709,0.0,0.0,0.0,0.0,0.0,0.0,0.0,0.0,0.0,0.0,0.0,0.0,0.0,0.0,0.0,5.0709,0.0,0.0,0.0,0.0,0.0,0.0,0.0,0.0,0.0,0.0,0.0,0.0,0.0,0.0,0.0,0.0,0.0,0.0,0.0,5.4513,0.0,5.5667,5.5706,5.5706,5.5706,5.5706,5.5706,5.5706,5.5706,5.5706,5.5706,5.5706,5.5706,5.5706,5.5706,5.5706,5.5706,5.5706,5.5706,5.5706,5.5706,5.5706,5.5706,5.5706,5.5706,5.5706,5.5706,5.5706,5.5706,0.0,0.0,0.0,0.0,0.0,0.0,0.0,4.3326,0.0,0.0,0.0,0.0,0.0,0.0,4.3506,0.0,0.0,4.3506,4.3506,4.3506,0.0,0.0,0.0,4.3506,0.0,0.0,0.0,0.0,0.0,0.0,0.0,0.0,0.0,0.0,0.0,4.3506,0.0,0.0,0.0,0.0,0.0,4.6929,4.7384,0.0,0.0,4.9949,5.035,5.0493,0.0,5.0658,5.0709,5.0709,5.0709,5.0709,5.0709,5.0709,5.0709,0.0,0.0,0.0,5.0709,5.0709,0.0,0.0,0.0,0.0,0.0,0.0,0.0,0.0,0.0,0.0,0.0,0.0,0.0,0.0,0.0,0.0,0.0,0.0,0.0,0.0,0.0,0.0,0.0,5.2755,5.3857,5.4629,0.0,5.5417,5.5706,5.5706,5.5706,5.5706,5.5706,5.5706,5.5706,5.5706,5.5706,5.5706,5.5706,5.5706,5.5706,5.5706,5.5706,5.5706,5.5706,5.5706,5.5706,5.5706,5.5706,5.5706,5.5706,5.5706,5.5706,5.5706,4.2731,0.0,0.0,0.0,0.0,0.0,0.0,0.0,0.0,0.0,4.3506,0.0,4.3506,0.0,4.3506,0.0,4.3506,4.3506,4.3506,4.3506,0.0,4.3506,4.3506,0.0,0.0,0.0,0.0,0.0,0.0,4.3506,0.0,0.0,0.0,0.0,0.0,0.0,0.0,0.0,4.4232,0.0,0.0,4.7719,0.0,0.0,4.9426,0.0,0.0,5.0486,5.0559,5.098,5.1128,5.1185,5.1493,5.1378,5.1128,5.1128,5.0919,5.0709,5.0709,5.0709,0.0,0.0,5.0709,0.0,5.0709,0.0,0.0,0.0,0.0,0.0,0.0,0.0,0.0,0.0,0.0,0.0,0.0,0.0,0.0,0.0,0.0,0.0,0.0,0.0,5.1582,5.1887,5.3238,5.4164,0.0,0.0,5.5706,5.5706,5.5706,5.5706,5.5706,5.5706,5.5706,5.5706,5.5706,5.5706,5.5706,5.5706,5.5706,5.5706,5.5706,5.5706,5.5706,5.5706,5.5706,5.5706,5.5706,5.5706,5.5706,5.5706,5.5706,5.5706,0.0,0.0,0.0,0.0,4.3506,0.0,0.0,0.0,4.3506,0.0,4.3506,4.3506,4.3506,4.3506,4.3506,4.3506,4.3506,0.0,4.3506,4.3506,0.0,0.0,4.3506,4.3506,4.3506,0.0,0.0,0.0,0.0,0.0,0.0,0.0,0.0,0.0,4.3506,0.0,4.3543,4.4356,4.4755,4.4983,4.6981,4.8216,4.8996,4.9835,0.0,4.9119,4.9903,5.0193,5.0374,5.1553,5.1964,5.2118,5.2947,5.264,5.1964,5.1964,5.1411,5.0806,5.0765,5.0765,5.0748,5.0709,0.0,0.0,0.0,0.0,5.0709,0.0,0.0,0.0,0.0,0.0,0.0,0.0,0.0,0.0,0.0,0.0,0.0,0.0,0.0,0.0,0.0,5.0709,5.1012,5.1772,5.2678,0.0,0.0,0.0,0.0,5.5706,5.5706,5.5706,5.5706,5.5706,5.5706,5.5706,5.5706,5.5706,5.5706,5.5706,5.5706,5.5706,5.5706,5.5706,5.5706,5.5706,5.5706,5.5706,5.5706,5.5706,5.5706,5.5706,5.5706,5.5706,4.3506,4.3506,4.3506,0.0,4.3506,4.3506,0.0,0.0,0.0,0.0,4.3506,4.3506,4.3506,4.3506,4.3506,4.3506,4.3506,0.0,0.0,0.0,0.0,4.3506,4.3506,4.3506,4.3506,4.3506,0.0,4.3506,0.0,0.0,4.3506,0.0,0.0,0.0,0.0,0.0,4.3543,4.4356,4.5393,4.6613,4.8011,4.8714,0.0,0.0,5.0856,5.074,5.1255,5.1438,5.1586,5.254,5.287,5.2909,5.3123,5.3046,5.287,5.287,5.2719,5.2414,5.1777,5.1582,5.145,5.0842,5.0709,5.0709,0.0,0.0,0.0,0.0,0.0,0.0,0.0,0.0,0.0,0.0,0.0,0.0,0.0,0.0,0.0,0.0,0.0,0.0,5.0709,5.0709,5.0784,5.0993,5.2375,0.0,0.0,0.0,0.0,5.5706,5.5706,5.5706,5.5706,5.5706,5.5706,5.5706,5.5706,5.5706,5.5706,5.5706,5.5706,5.5706,5.5706,5.5706,5.5706,5.5706,5.5706,5.5706,5.5706,5.5706,5.5706,5.5706,5.5706,5.5706,4.3506,0.0,0.0,4.3506,0.0,0.0,4.3506,0.0,0.0,4.3506,4.3506,0.0,4.3506,4.3506,4.3506,4.3506,4.3506,0.0,0.0,0.0,0.0,4.3506,4.3506,4.3506,4.3506,4.3506,0.0,4.3506,0.0,0.0,4.3506,0.0,0.0,0.0,0.0,4.3708,0.0,4.5269,4.6475,4.7697,4.8568,0.0,0.0,5.0898,5.1645,5.2203,5.2819,5.2794,5.2601,5.3469,5.378,5.3837,5.4184,5.4049,5.378,5.378,5.3508,5.3082,5.2601,5.2467,5.2274,5.1433,5.1221,5.1128,5.0784,5.0709,5.0709,0.0,0.0,0.0,0.0,0.0,0.0,0.0,0.0,0.0,0.0,0.0,0.0,0.0,0.0,0.0,5.0709,5.0709,5.0709,5.0709,0.0,0.0,0.0,0.0,0.0,5.5687,5.5706,5.5706,5.5706,5.5706,5.5706,5.5706,5.5706,5.5706,5.5706,5.5706,5.5706,5.5706,5.5706,5.5706,5.5706,5.5706,5.5706,5.5706,5.5706,5.5706,5.5706,5.5706,5.5706,5.5706,0.0,0.0,0.0,0.0,0.0,0.0,0.0,4.3561,0.0,4.3506,0.0,4.3533,4.3652,4.3656,4.3697,4.3802,0.0,4.3776,4.3656,4.3662,4.3616,4.3506,4.3506,4.3506,4.3506,4.3506,0.0,0.0,0.0,4.3506,4.3506,0.0,0.0,0.0,0.0,0.0,0.0,4.6507,4.7558,0.0,4.8795,4.9706,5.0845,5.1302,5.227,5.3483,5.4295,5.4056,5.3508,5.4376,5.4667,5.4782,5.5475,5.5225,5.4667,5.4667,5.4126,5.3508,5.3392,5.3373,5.3162,5.2291,5.2079,5.1851,5.1032,5.0861,5.0822,5.0729,5.0709,0.0,0.0,0.0,0.0,0.0,0.0,0.0,0.0,0.0,0.0,0.0,0.0,0.0,0.0,5.0709,5.0709,0.0,0.0,0.0,0.0,0.0,0.0,0.0,5.5706,0.0,5.5706,0.0,5.5706,5.5706,5.5706,5.5706,5.5706,5.5706,5.5706,5.5706,5.5706,5.5706,5.5706,5.5706,5.5706,5.5706,5.5706,5.5706,5.5706,5.5706,5.5706,5.5706,0.0,0.0,0.0,0.0,0.0,4.3726,4.4392,4.3924,4.3506,4.3506,4.3506,0.0,4.4422,4.4486,4.4756,4.5415,4.5475,0.0,0.0,0.0,0.0,4.3529,4.3506,4.3506,4.3506,4.3506,4.3506,0.0,4.3506,4.3506,4.3506,4.3506,4.3506,0.0,0.0,0.0,4.6691,4.6984,0.0,4.8361,4.9105,4.9967,5.0919,5.1965,5.3159,5.4347,5.4821,5.4683,5.4395,5.5206,5.5494,5.5513,5.5667,5.559,5.5494,5.5494,5.5379,5.5129,5.4453,5.426,5.4068,5.32,5.2967,5.2755,5.189,5.1697,5.1507,5.0842,5.0709,5.0709,5.0709,0.0,0.0,0.0,0.0,0.0,0.0,0.0,0.0,0.0,0.0,0.0,0.0,0.0,0.0,0.0,0.0,0.0,0.0,0.0,0.0,0.0,0.0,0.0,0.0,0.0,0.0,5.5706,5.5706,5.5706,5.5706,5.5706,5.5706,5.5706,5.5706,5.5706,5.5706,5.5706,5.5706,5.5706,5.5706,5.5706,5.5706,5.5706,5.5706,5.5706,0.0,0.0,0.0,0.0,0.0,0.0,0.0,4.4984,0.0,4.4739,4.4733,4.4898,4.5273,4.5322,4.5476,4.5874,4.5893,4.5746,4.5351,4.5319,4.5149,4.4754,4.4732,0.0,4.4121,4.4121,4.3924,4.3506,4.3506,4.3506,4.3506,4.3506,4.3506,4.3543,0.0,4.5984,0.0,0.0,0.0,4.8375,4.921,5.0176,5.1244,5.2446,5.3689,5.4857,5.5274,5.5296,5.5186,5.5571,5.5706,5.5706,5.5706,5.5706,5.5706,5.5706,5.5706,5.561,5.5225,5.5129,5.4917,5.4087,5.3876,5.3642,5.2774,5.2214,5.1791,5.1392,5.0993,5.0709,5.0709,5.0709,0.0,0.0,0.0,0.0,0.0,0.0,0.0,0.0,0.0,0.0,0.0,0.0,0.0,0.0,0.0,0.0,0.0,0.0,0.0,0.0,0.0,0.0,0.0,0.0,0.0,5.5706,5.5706,5.5706,5.5706,5.5706,5.5706,5.5706,5.5706,5.5706,5.5706,5.5706,5.5706,5.5706,5.5706,5.5706,5.5706,5.5706,5.5706,5.5706,0.0,4.4525,0.0,0.0,4.548,0.0,0.0,4.6154,4.6094,4.5924,4.59,4.5973,4.6136,4.6158,4.6217,4.6405,4.6405,4.6347,4.6176,4.6154,4.6085,4.5906,4.5902,4.5608,4.4975,4.4792,4.4392,0.0,4.3579,4.3506,4.3506,4.3506,4.3671,0.0,0.0,0.0,0.0,0.0,4.8301,4.8393,4.9435,5.0476,5.1524,5.2744,5.3985,5.5137,5.5353,5.5544,5.5706,5.5706,5.5706,5.5706,5.5706,5.5706,5.5706,5.5706,5.5706,5.5706,5.5706,5.5706,5.5552,5.4917,5.4763,5.4532,5.3662,5.2947,5.2349,5.1983,5.126,5.0709,5.0709,5.0709,0.0,0.0,0.0,0.0,0.0,0.0,0.0,0.0,0.0,0.0,0.0,0.0,0.0,0.0,0.0,0.0,0.0,0.0,0.0,0.0,0.0,0.0,5.5706,0.0,5.5706,0.0,5.5706,5.5706,5.5706,5.5706,5.5706,5.5706,5.5706,5.5706,5.5706,5.5706,5.5706,5.5706,5.5706,5.5706,5.5706,5.5706,5.5706,5.5706,0.0,0.0,0.0,0.0,0.0,0.0,0.0,4.6989,4.6736,4.5993,4.5893,4.6172,4.6909,4.6994,4.7278,4.8011,4.8071,4.7767,4.7049,4.6992,4.6659,4.5925,4.5902,4.5865,4.5792,4.5071,4.4663,0.0,0.0,4.3506,4.3506,4.3506,4.4277,0.0,0.0,0.0,0.0,4.8264,4.8301,4.8448,5.005,5.0965,5.1524,5.2732,5.3996,5.5055,5.4723,5.5075,5.5706,5.5706,5.5706,5.5706,5.5706,5.5706,5.5706,5.5706,5.5706,5.5706,5.5706,5.5706,5.5687,5.561,5.559,5.5379,5.4552,5.4318,5.3818,5.2233,5.126,5.0709,5.0709,5.0709,5.0709,0.0,0.0,0.0,0.0,0.0,0.0,0.0,0.0,0.0,0.0,5.0709,0.0,0.0,0.0,0.0,0.0,0.0,0.0,0.0,0.0,5.5706,5.5706,5.5706,0.0,5.5706,5.5706,5.5706,5.5706,5.5706,5.5706,5.5706,5.5706,5.5706,5.5706,5.5706,5.5706,5.5706,5.5706,5.5706,5.5706,5.5706,5.5706,5.5706,0.0,0.0,0.0,0.0,0.0,0.0,0.0,4.7819,4.77,4.7382,4.7333,4.7461,4.779,4.7822,4.7946,4.8278,4.8301,4.8154,4.784,4.7819,4.7672,4.7347,4.7347,4.7108,4.6627,4.631,4.5893,0.0,0.0,0.0,0.0,4.4933,0.0,0.0,0.0,4.7558,4.8301,4.8301,4.8301,4.8448,5.0136,5.09,5.121,5.291,5.4044,5.4742,5.4822,5.5218,5.5706,5.5706,5.5706,5.5706,5.5706,5.5706,5.5706,5.5706,5.5706,5.5706,5.5706,5.5706,5.5706,5.5706,5.5706,5.561,5.5283,5.4859,5.4145,5.2928,5.1625,5.0709,5.0709,5.0709,5.0709,0.0,0.0,0.0,0.0,0.0,0.0,0.0,0.0,0.0,0.0,0.0,5.0899,0.0,0.0,0.0,0.0,0.0,0.0,5.5667,0.0,5.5706,5.5706,5.5706,5.5706,5.5706,5.5706,5.5706,5.5706,5.5706,5.5706,5.5706,5.5706,5.5706,5.5706,5.5706,5.5706,5.5706,5.5706,5.5706,5.5706,5.5706,5.5706,5.5763,4.6617,0.0,4.7521,0.0,4.8301,4.8765,4.8999,4.9035,4.9035,4.9035,4.9047,4.8841,4.8343,4.8301,4.8301,4.8301,4.8301,4.8301,4.8301,4.8301,4.8301,4.8301,4.8301,0.0,4.7466,4.7223,4.6824,4.6246,4.6012,0.0,0.0,0.0,0.0,0.0,4.7356,4.7764,4.8301,4.8301,4.8448,4.8802,5.0228,5.0944,5.132,5.2983,5.3987,5.4543,5.4815,5.5266,5.5706,5.5706,5.5706,5.5706,5.5706,5.5706,5.5706,5.5706,5.5706,5.5706,5.5706,5.5706,5.5706,5.5706,5.5706,5.5706,5.5706,5.5263,5.453,5.3431,5.2049,5.0974,5.0748,5.0709,5.0709,0.0,0.0,0.0,0.0,0.0,0.0,0.0,0.0,5.0709,5.0709,0.0,0.0,0.0,0.0,0.0,0.0,0.0,0.0,0.0,0.0,0.0,0.0,0.0,5.5706,5.5706,5.5706,5.5706,5.5706,5.5706,5.5706,5.5706,5.5706,5.5706,5.5706,5.5706,5.5706,5.5706,5.5706,5.5706,5.5706,5.5706,5.5706,5.5824,4.8264,4.8283,4.8563,4.9422,4.9574,4.9858,5.0655,5.076,5.076,5.076,5.0764,5.0144,4.8486,4.8301,4.8301,4.8301,4.8301,4.8301,4.8301,4.8301,4.8301,0.0,0.0,4.8301,4.8296,4.7503,4.7094,4.7099,0.0,0.0,4.592,0.0,4.7094,4.7131,4.7929,4.8296,4.8301,4.8301,4.8806,4.9665,5.0477,5.1279,5.2074,5.2894,5.3743,5.4503,5.4511,5.5021,5.5706,5.5706,5.5706,5.5706,5.5706,5.5706,5.5706,5.5706,5.5706,5.5706,5.5706,5.5706,5.5706,5.5706,5.5706,5.5706,5.5706,5.5687,5.5206,5.3546,5.2505,5.164,5.0842,5.0709,5.0709,5.0709,0.0,0.0,0.0,0.0,0.0,0.0,5.0709,5.0709,5.0709,0.0,0.0,0.0,0.0,0.0,0.0,0.0,0.0,5.5706,5.5706,0.0,5.5706,5.5706,5.5706,5.5706,5.5706,5.5706,5.5706,5.5706,5.5706,5.5706,5.5706,5.5706,5.5706,5.5706,5.5706,5.5706,5.5706,5.5706,5.5706,5.5706,5.5706,5.5824,4.9898,4.999,5.0081,5.0362,5.0422,5.0508,5.0765,5.0797,5.0797,5.0797,5.0797,5.0592,5.0054,4.9516,4.8942,0.0,4.8301,4.8301,0.0,4.8301,4.8301,4.8301,4.8301,4.8301,4.8301,4.8058,4.7911,4.7911,0.0,0.0,0.0,4.7801,4.7911,4.7929,4.8191,4.8301,4.8301,4.8301,4.8806,4.9661,5.0472,5.1279,5.2092,5.2889,5.3535,5.4061,5.4398,5.483,5.5328,5.5602,5.5706,5.5706,5.5706,5.5706,5.5706,5.5706,5.5706,5.5706,5.5706,5.5706,5.5706,5.5706,5.5706,5.5706,5.5706,5.5283,5.4725,5.4203,5.2928,5.181,5.1563,5.107,5.0709,5.0709,0.0,0.0,0.0,0.0,0.0,0.0,0.0,5.0919,0.0,5.1753,0.0,0.0,0.0,0.0,0.0,0.0,0.0,0.0,5.5706,0.0,5.5706,5.5706,5.5706,5.5706,5.5706,5.5706,5.5706,5.5706,5.5706,5.5706,5.5706,5.5706,5.5706,5.5706,5.5706,5.5706,5.5706,5.5706,5.5706,5.5706,5.6074,5.6709,5.071,5.0797,5.0894,5.1206,5.1242,5.1353,5.1659,5.1696,5.1696,5.1696,5.1696,5.1589,5.1278,5.0797,0.0,4.8887,4.8799,0.0,4.832,4.8301,4.8301,4.8301,4.8301,4.8301,4.8301,0.0,0.0,4.8301,4.8301,4.8301,4.8301,4.8301,4.8301,4.8301,4.8301,4.8301,4.8301,4.8301,4.8985,5.0091,5.06,5.1458,5.2509,5.3012,5.3444,5.3869,5.4326,5.4768,5.5167,5.5568,5.5706,5.5706,5.5706,5.5706,5.5706,5.5706,5.5706,5.5706,5.5706,5.5706,5.5706,5.5706,5.5706,5.5706,5.5706,5.5302,5.4859,5.4552,5.3623,5.2774,5.2447,5.1972,5.1647,5.1647,0.0,5.1647,0.0,0.0,0.0,0.0,0.0,0.0,0.0,5.2678,0.0,0.0,0.0,0.0,0.0,0.0,0.0,5.5706,5.5706,0.0,5.5706,5.5706,5.5706,5.5706,5.5706,5.5706,5.5706,5.5706,5.5706,5.5706,5.5706,5.5706,5.5706,5.5706,5.5706,5.5706,5.5706,5.5706,5.5744,5.6074,5.6538,5.7173,5.0962,5.0962,0.0,0.0,5.2079,0.0,5.3086,5.3196,5.3196,5.3196,5.3196,5.2902,5.2152,5.2069,5.1464,4.99,0.0,0.0,0.0,4.8384,4.8361,4.8301,4.8301,0.0,4.8301,4.8301,4.8301,4.8301,4.8301,4.8301,4.8301,4.8301,4.8301,4.8301,4.8301,4.8301,4.8301,4.8301,4.9274,5.0797,5.0797,5.177,5.3196,5.3196,5.3424,5.3823,5.4313,5.4734,5.5115,5.5544,5.5706,5.5706,5.5706,5.5706,5.5706,5.5706,5.5706,5.5706,5.5706,5.5706,5.5706,5.5706,5.5706,5.5706,5.5706,5.5706,5.5494,5.4744,5.4532,5.4241,5.3431,5.3238,5.32,5.32,5.32,5.32,5.32,0.0,0.0,0.0,0.0,0.0,0.0,5.403,5.4513,0.0,0.0,0.0,0.0,0.0,5.5706,5.5706,5.5706,5.5706,5.5706,5.5706,5.5706,5.5706,5.5706,5.5706,5.5706,5.5706,5.5706,5.5706,5.5706,5.5706,5.5706,5.5706,5.5706,5.5706,5.5706,5.5706,5.5805,5.6673,5.7038,5.7324,0.0,0.0,5.2682,5.2889,5.2926,5.2976,5.3177,5.3196,5.3196,5.3196,5.3196,5.313,5.2944,5.2926,5.2512,5.1509,5.0872,5.0168,4.9358,4.9293,4.9007,4.832,4.8301,4.8301,4.8301,4.8301,4.8301,4.8301,4.8301,4.8301,4.8301,4.8301,4.8301,4.8301,4.8301,4.8301,4.8301,4.8301,4.9274,5.0797,5.0797,5.177,5.3196,5.3196,5.3261,5.3442,5.4219,5.4566,5.4742,5.5469,5.5706,5.5706,5.5706,5.5706,5.5706,5.5706,5.5706,5.5706,5.5706,5.5706,5.5706,5.5706,5.5706,5.5706,5.5706,5.5706,5.5648,5.5456,5.4936,5.4436,5.4222,5.3642,5.32,5.32,5.32,5.32,5.32,0.0,0.0,0.0,5.32,5.345,5.4126,5.4378,5.4744,0.0,0.0,0.0,0.0,0.0,5.5706,5.5706,5.5706,5.5706,5.5706,5.5706,5.5706,5.5706,5.5706,5.5706,5.5706,5.5706,5.5706,5.5706,5.5706,5.5706,5.5706,5.5706,5.5706,5.5706,5.5706,5.5706,5.5805,5.6673,5.742,5.8146,5.3104,5.3196,5.3196,5.3196,5.3196,5.3196,5.3196,5.3196,5.3196,5.3196,5.3196,5.3196,5.3196,5.3196,5.3028,5.259,5.1814,5.1013,5.0201,4.9806,4.94,4.8901,4.8509,4.8301,4.8301,4.8301,4.8301,4.8301,4.8301,4.8301,4.8301,4.8301,4.8301,4.8301,4.8301,4.8301,4.8338,4.8728,4.9627,5.0834,5.1206,5.2082,5.3196,5.3196,5.3316,5.3564,5.4257,5.4628,5.4877,5.5492,5.5706,5.5706,5.5706,5.5706,5.5706,5.5706,5.5706,5.5706,5.5706,5.5706,5.5706,5.5706,5.5706,5.5706,5.5706,5.5706,5.5706,5.5706,5.534,5.5052,5.5052,5.4664,5.4337,5.4337,5.4337,5.4337,5.4337,5.4337,0.0,5.4337,5.4337,5.453,5.4994,5.5052,5.5225,5.5667,0.0,0.0,5.5706,5.5706,5.5706,5.5706,5.5706,5.5706,5.5706,5.5706,5.5706,5.5706,5.5706,5.5706,5.5706,5.5706,5.5706,5.5706,5.5706,5.5706,5.5706,5.5706,5.5706,5.5706,5.5706,5.5706,5.584,5.7129,5.7896,5.847,5.3196,5.3196,5.3196,5.3196,5.3196,5.3196,5.3196,5.3196,5.3196,5.3196,5.3196,5.3196,5.3196,5.3196,5.3196,5.3196,5.2572,5.1841,5.1028,5.034,4.985,4.9603,4.8887,4.843,4.8301,4.8301,4.8301,4.8301,4.8301,4.8301,4.8301,4.8301,4.8301,4.8301,4.8301,4.8301,4.8356,4.9233,5.0059,5.0875,5.167,5.2472,5.3196,5.3196,5.3412,5.3786,5.4305,5.4712,5.5075,5.5535,5.5706,5.5706,5.5706,5.5706,5.5706,5.5706,5.5706,5.5706,5.5706,5.5706,5.5706,5.5706,5.5706,5.5706,5.5706,5.5706,5.5706,5.5706,5.5706,5.5706,5.5706,5.5706,5.5706,5.5706,5.5706,5.5706,5.5706,0.0,5.5706,5.5706,5.5706,5.5706,5.5706,5.5706,5.5706,5.5706,5.5706,0.0,0.0,5.5706,5.5706,5.5706,5.5706,5.5706,5.5706,5.5706,5.5706,5.5706,5.5706,5.5706,5.5706,5.5706,5.5706,5.5706,5.5706,5.5706,5.5706,5.5706,5.5706,5.5706,5.5706,5.5706,5.5917,5.7662,5.8297,5.8547,5.3196,5.3196,5.3196,5.3196,5.3196,5.3196,5.3196,5.3196,5.3196,5.3196,5.3196,5.3196,5.3196,5.3196,5.3196,5.3196,5.3088,5.2674,5.1864,5.17,5.1028,4.9653,4.9466,4.905,4.832,4.8301,4.8301,4.8301,4.8301,4.8301,4.8301,4.8301,4.8301,4.8301,4.8301,4.8301,4.8356,4.9233,5.0059,5.0875,5.167,5.2472,5.3196,5.3196,5.323,5.34,5.4206,5.4547,5.472,5.5444,5.5706,5.5706,5.5706,5.5706,5.5706,5.5706,5.5706,5.5706,5.5706,5.5706,5.5706,5.5706,5.5706,5.5706,5.5706,5.5706,5.5706,5.5706,5.5706,5.5706,5.5706,5.5706,5.5706,5.5706,5.5706,5.5706,5.5706,0.0,5.5706,5.5706,5.5706,5.5706,5.5706,5.5706,5.5706,5.5706,5.5706,5.5706,5.5706,5.5706,5.5706,5.5706,5.5706,5.5706,5.5706,5.5706,5.5706,5.5706,5.5706,5.5706,5.5706,5.5706,5.5706,5.5706,5.5706,5.5706,5.5706,5.5706,5.5706,5.5706,5.5706,5.5706,5.5917,5.7662,5.8297,5.8547,5.3196,5.3196,5.3196,5.3196,5.3196,5.3196,5.3196,5.3196,5.3196,5.3196,5.3196,5.3196,5.3196,5.3196,5.3196,5.3196,5.3196,5.3046,5.2674,5.2236,5.1475,5.0308,4.9831,4.9185,4.832,4.8301,4.8301,4.8301,4.8301,4.8301,4.8301,4.8301,4.8301,4.8301,4.8301,4.8301,4.8393,4.9682,5.0453,5.0907,5.2155,5.2871,5.3196,5.3196,5.3328,5.3604,5.4251,5.4632,5.492,5.5504,5.5706,5.5706,5.5706,5.5706,5.5706,5.5706,5.5706,5.5706,5.5706,5.5706,5.5706,5.5706,5.5706,5.5706,5.5706,5.5706,5.5706,5.5706,5.5706,5.5706,5.5706,5.5706,5.5706,5.5706,5.5706,0.0,0.0,5.5706,5.5706,5.5706,5.5706,5.5706,5.5706,5.5706,5.5706,5.5706,5.5706,5.5706,5.5706,5.5706,5.5706,5.5706,5.5706,5.5706,5.5706,5.5706,5.5706,5.5706,5.5706,5.5706,5.5706,5.5706,5.5706,5.5706,5.5706,5.5706,5.5706,5.5706,5.5706,5.5706,5.5706,5.5706,5.5917,5.7662,5.8297,5.8547,5.3196,5.3196,5.3196,5.3196,5.3196,5.3196,5.3196,5.3196,5.3196,5.3196,5.3196,5.3196,5.3196,5.3196,5.3196,5.3196,5.3196,5.3196,5.3196,5.2614,5.1841,5.0837,4.9836,4.8984,4.832,4.8301,4.8301,4.8301,4.8301,4.8301,4.8301,4.8301,4.8301,4.8301,4.8301,4.8411,4.871,5.0173,5.0907,5.1206,5.2632,5.3196,5.3196,5.3196,5.3444,5.3869,5.4326,5.4768,5.5167,5.5568,5.5706,5.5706,5.5706,5.5706,5.5706,5.5706,5.5706,5.5706,5.5706,5.5706,5.5706,5.5706,5.5706,5.5706,5.5706,5.5706,5.5706,5.5706,5.5706,5.5706,5.5706,5.5706,5.5706,5.5706,0.0,0.0,0.0,5.5706,5.5706,5.5706,5.5706,5.5706,5.5706,5.5706,5.5706,5.5706,5.5706,5.5706,5.5706,5.5706,5.5706,5.5706,5.5706,5.5706,5.5706,5.5706,5.5706,5.5706,5.5706,5.5706,5.5706,5.5706,5.5706,5.5706,5.5706,5.5706,5.5706,5.5706,5.5706,5.5706,5.5706,5.5706,5.5917,5.7662,5.8297,5.8547,5.3196,5.3196,5.3196,5.3196,5.3196,5.3196,5.3196,5.3196,5.3196,5.3196,5.3196,5.3196,5.3196,5.3196,5.3196,5.3196,5.3196,5.3196,5.3196,5.313,5.2422,5.0879,4.9253,4.8361,4.8301,4.8301,4.8301,4.8301,4.8301,4.8301,4.8301,4.8301,4.8301,4.8301,4.8301,4.8746,4.955,5.0435,5.1224,5.1982,5.2852,5.3196,5.3196,5.3196,5.3444,5.3869,5.4326,5.4768,5.5167,5.5568,5.5706,5.5706,5.5706,5.5706,5.5706,5.5706,5.5706,5.5706,5.5706,5.5706,5.5706,5.5706,5.5706,5.5706,5.5706,5.5706,5.5706,5.5706,5.5706,5.5706,5.5706,5.5706,5.5706,5.5706,0.0,0.0,5.5706,5.5706,5.5706,5.5706,5.5706,5.5706,5.5706,5.5706,5.5706,5.5706,5.5706,5.5706,5.5706,5.5706,5.5706,5.5706,5.5706,5.5706,5.5706,5.5706,5.5706,5.5706,5.5706,5.5706,5.5706,5.5706,5.5706,5.5706,5.5706,5.5706,5.5706,5.5706,5.5706,5.5706,5.5706,5.5706,5.5917,5.7662,5.8297,5.8547,5.3196,5.3196,5.3196,5.3196,5.3196,5.3196,5.3196,5.3196,5.3196,5.3196,5.3196,5.3196,5.3196,5.3196,5.3196,5.3196,5.3196,5.3196,5.3196,5.3196,5.2483,5.0862,4.9188,4.8301,4.8301,4.8301,4.8301,4.8301,4.8301,4.8301,4.8301,4.8301,4.8301,4.8315,4.8861,4.9293,4.9684,5.0991,5.1725,5.2074,5.2889,5.3196,5.3196,5.3196,5.3444,5.3869,5.4326,5.4768,5.5167,5.5568,5.5706,5.5706,5.5706,5.5706,5.5706,5.5706,5.5706,5.5706,5.5706,5.5706,5.5706,5.5706,5.5706,5.5706,5.5706,5.5706,5.5706,5.5706,5.5706,5.5706,5.5706,5.5706,5.5706,5.5706,0.0,5.5706,5.5706,5.5706,5.5706,5.5706,5.5706,5.5706,5.5706,5.5706,5.5706,5.5706,5.5706,5.5706,5.5706,5.5706,5.5706,5.5706,5.5706,5.5706,5.5706,5.5706,5.5706,5.5706,5.5706,5.5706,5.5706,5.5706,5.5706,5.5706,5.5706,5.5706,5.5706,5.5706,5.6016,5.6519,5.6519,5.6841,5.7451,5.8624,5.9047,5.9201,5.3196,5.3196,5.3196,5.3196,5.3196,5.3196,5.3196,5.3196,5.3196,5.3196,5.3196,5.3196,5.3196,5.3196,5.3196,5.3196,5.3196,5.3196,5.3196,5.2734,5.1955,5.0852,4.9192,4.8301,4.8301,4.8301,4.8301,4.8301,4.8301,4.8301,4.8301,4.8301,4.8453,4.8728,4.9325,4.9881,5.0432,5.1528,5.2147,5.2417,5.2976,5.3196,5.3196,5.3196,5.3444,5.3869,5.4326,5.4768,5.5167,5.5568,5.5706,5.5706,5.5706,5.5706,5.5706,5.5706,5.5706,5.5706,5.5706,5.5706,5.5706,5.5706,5.5706,5.5706,5.5706,5.5706,5.5706,5.5706,5.5706,5.5706,5.5706,5.5706,5.5706,5.5706,5.5706,5.5706,5.5706,5.5706,5.5706,5.5706,5.5706,5.5706,5.5706,5.5706,5.5706,5.5706,5.5706,5.5706,5.5706,5.5706,5.5706,5.5706,5.5706,5.5706,5.5706,5.5706,5.5706,5.5706,5.5706,5.5706,5.5706,5.5706,5.5706,5.5725,5.5997,5.6112,5.6132,5.6398,5.6879,5.7401,5.7401,5.7761,5.8393,5.9201,5.9489,5.9627,5.3196,5.3196,5.3196,5.3196,5.3196,5.3196,5.3196,5.3196,5.3196,5.3196,5.3196,5.3196,5.3196,5.3196,5.3196,5.3196,5.3196,5.3196,5.3196,5.1697,5.0795,5.0792,4.9192,4.8301,4.8301,4.8301,4.8301,4.8301,4.8301,4.8301,4.832,4.832,4.8765,4.961,4.9624,5.0505,5.2005,5.2005,5.2472,5.3196,5.3196,5.3196,5.3196,5.3196,5.3449,5.3874,5.433,5.4753,5.5167,5.5568,5.5706,5.5706,5.5706,5.5706,5.5706,5.5706,5.5706,5.5706,5.5706,5.5706,5.5706,5.5706,5.5706,5.5706,5.5706,5.5706,5.5706,5.5706,5.5706,5.5706,5.5706,5.5706,5.5706,5.5706,5.5706,5.5706,5.5706,5.5706,5.5706,5.5706,5.5706,5.5706,5.5706,5.5706,5.5706,5.5706,5.5706,5.5706,5.5706,5.5706,5.5706,5.5706,5.5706,5.5706,5.5706,5.5706,5.5706,5.5706,5.5706,5.5706,5.5706,5.5706,5.5706,5.5763,5.6634,5.7,5.7077,5.7934,5.8297,5.8316,5.8316,5.8316,5.8412,5.9223,5.9511,5.9627,5.3196,5.3196,5.3196,5.3196,5.3196,5.3196,5.3196,5.3196,5.3196,5.3196,5.3196,5.3196,5.3196,5.3196,5.3196,5.3196,5.3196,5.2962,5.2386,5.1383,5.055,4.9973,4.8883,4.8301,4.8301,4.8301,4.8301,4.8301,4.8301,4.8618,4.9215,4.9215,4.9651,5.0477,5.1027,5.1546,5.2037,5.2601,5.2976,5.3196,5.3196,5.3196,5.3196,5.3196,5.3657,5.4305,5.4459,5.4945,5.5532,5.566,5.5706,5.5706,5.5706,5.5706,5.5706,5.5706,5.5706,5.5706,5.5706,5.5706,5.5706,5.5706,5.5706,5.5706,5.5706,5.5706,5.5706,5.5706,5.5706,5.5706,5.5706,5.5706,5.5706,5.5706,5.5706,5.5706,5.5706,5.5706,5.5706,5.5706,5.5706,5.5706,5.5706,5.5706,5.5706,5.5706,5.5706,5.5706,5.5706,5.5706,5.5706,5.5706,5.5706,5.5706,5.5706,5.5706,5.5706,5.5706,5.5706,5.6016,5.6615,5.6615,5.6956,5.755,5.78,5.7915,5.7934,5.8182,5.8624,5.9143,5.9143,5.9511,6.0089,6.0319,6.0418,6.0457,5.3196,5.3196,5.3196,5.3196,5.3196,5.3196,5.3196,5.3196,5.3196,5.3196,5.3196,5.3196,5.3196,5.3196,5.3196,5.3196,5.2913,5.2383,5.1571,5.0775,4.9959,4.9127,4.8901,4.8652,4.832,4.8635,4.8805,4.8802,4.9127,4.9554,5.0078,5.0078,5.0495,5.1298,5.178,5.2184,5.2509,5.2999,5.3196,5.3196,5.3196,5.3196,5.3217,5.3385,5.3767,5.4267,5.4613,5.5048,5.5492,5.5649,5.5706,5.5706,5.5706,5.5706,5.5706,5.5706,5.5706,5.5706,5.5706,5.5706,5.5706,5.5706,5.5706,5.5706,5.5706,5.5706,5.5706,5.5706,5.5706,5.5706,5.5706,5.5706,5.5706,5.5706,5.5706,5.5706,5.5706,5.5706,5.5706,5.5706,5.5706,5.5706,5.5706,5.5706,5.5706,5.5706,5.5706,5.5706,5.5706,5.5706,5.5706,5.5706,5.6035,5.6209,5.6209,5.6552,5.6552,5.6228,5.6552,5.6995,5.7514,5.7514,5.7802,5.8316,5.8643,5.8778,5.8797,5.9143,5.9588,6.0012,6.0012,6.0341,6.0803,6.0803,6.0803,6.0803,5.3196,5.3196,5.3196,5.3196,5.3196,5.3196,5.3196,5.3196,5.3196,5.3196,5.3196,5.3196,5.3196,5.3196,5.3196,5.3196,5.2456,5.1655,5.0856,5.0105,4.9317,4.8444,4.9252,4.9339,4.8534,4.9294,4.9713,4.9716,5.044,5.0839,5.0907,5.0907,5.1334,5.2115,5.2115,5.2509,5.3196,5.3196,5.3196,5.3196,5.3196,5.3196,5.3241,5.3649,5.3833,5.3973,5.4796,5.5111,5.5205,5.558,5.5706,5.5706,5.5706,5.5706,5.5706,5.5706,5.5706,5.5706,5.5706,5.5706,5.5706,5.5706,5.5706,5.5706,5.5706,5.5706,5.5706,5.5706,5.5706,5.5706,5.5706,5.5706,5.5706,5.5706,5.5706,5.5706,5.5706,5.5706,5.5706,5.5706,5.5706,5.5706,5.5706,5.5706,5.5706,5.5706,5.5706,5.5706,5.5706,5.5706,5.5744,5.5805,5.6596,5.7038,5.7115,5.7973,5.7973,5.7135,5.7915,5.8335,5.8412,5.8412,5.8451,5.8566,5.93,5.9627,5.9685,6.0476,6.0803,6.0803,6.0803,6.0803,6.0803,6.0803,6.0803,6.0803,5.3196,5.3196,5.3196,5.3196,5.3196,5.3196,5.3196,5.3196,5.3196,5.3196,5.3196,5.3196,5.3196,5.3196,5.3196,5.3196,5.2456,5.1657,5.0851,5.0642,5.0168,4.9358,5.0103,5.0447,5.0261,5.0441,5.0535,5.0545,5.071,5.1114,5.1743,5.1743,5.2165,5.2944,5.2944,5.3031,5.3196,5.3196,5.3196,5.3196,5.3196,5.3196,5.3241,5.3649,5.4026,5.4412,5.4912,5.5303,5.5582,5.5665,5.5706,5.5706,5.5706,5.5706,5.5706,5.5706,5.5706,5.5706,5.5706,5.5706,5.5706,5.5706,5.5706,5.5706,5.5706,5.5706,5.5706,5.5706,5.5706,5.5706,5.5706,5.5706,5.5706,5.5706,5.5706,5.5706,5.5706,5.5706,5.5706,5.5706,5.5706,5.5706,5.5706,5.5706,5.5706,5.5706,5.5706,5.5706,5.5706,5.5706,5.6016,5.6692,5.6904,5.7324,5.8011,5.8838,5.8838,5.8028,5.8201,5.8624,5.9239,5.9239,5.9608,6.0265,6.0438,6.0515,6.0534,6.0726,6.0803,6.0803,6.0803,6.0803,6.0803,6.0803,6.0803,6.0803,5.3196,5.3196,5.3196,5.3196,5.3196,5.3196,5.3196,5.3196,5.3196,5.3196,5.3196,5.3196,5.3196,5.3196,5.3196,5.3196,5.2464,5.1829,5.1395,5.1019,5.0613,5.0201,5.0937,5.1374,5.1367,5.1747,5.1751,5.1371,5.1751,5.2155,5.2564,5.2564,5.2797,5.3196,5.3196,5.3196,5.3196,5.3196,5.3196,5.3196,5.3196,5.3196,5.3267,5.3902,5.4284,5.4586,5.5173,5.5518,5.5706,5.5706,5.5706,5.5706,5.5706,5.5706,5.5706,5.5706,5.5706,5.5706,5.5706,5.5706,5.5706,5.5706,5.5706,5.5706,5.5706,5.5706,5.5706,5.5706,5.5706,5.5706,5.5706,5.5706,5.5706,5.5706,5.5706,5.5706,5.5706,5.5706,5.5706,5.5706,5.5706,5.5706,5.5706,5.5706,5.5706,5.5706,5.5706,5.5706,5.5706,5.6093,5.6538,5.6981,5.7786,5.8418,5.8874,5.9704,5.9915,5.9492,5.9492,5.9704,6.0127,6.0127,6.0361,6.0803,6.0803,6.0803,6.0803,6.0803,6.0803,6.0803,6.0803,6.0803,6.0803,6.0803,6.0803,6.0803,5.3196,5.3196,5.3196,5.3196,5.3196,5.3196,5.3196,5.3196,5.3196,5.3196,5.3196,5.3196,5.3196,5.3196,5.3196,5.3196,5.2454,5.2008,5.2009,5.1383,5.1012,5.1002,5.1775,5.2213,5.2213,5.286,5.2871,5.2202,5.2871,5.3196,5.3196,5.3196,5.3196,5.3196,5.3196,5.3196,5.3196,5.3196,5.3196,5.3196,5.3196,5.3196,5.3298,5.4177,5.4503,5.4613,5.5411,5.5706,5.5706,5.5706,5.5706,5.5706,5.5706,5.5706,5.5706,5.5706,5.5706,5.5706,5.5706,5.5706,5.5706,5.5706,5.5706,5.5706,5.5706,5.5706,5.5706,5.5706,5.5706,5.5706,5.5706,5.5706,5.5706,5.5706,5.5706,5.5706,5.5706,5.5706,5.5706,5.5706,5.5706,5.5706,5.5706,5.5706,5.5706,5.5706,5.5706,5.5766,5.592,5.6615,5.7135,5.7423,5.8781,5.9569,5.9723,6.0438,6.0803,6.0803,6.0803,6.0803,6.0803,6.0803,6.0803,6.0803,6.0803,6.0803,6.0803,6.0803,6.0803,6.0803,6.0803,6.0803,6.0803,6.0803,6.0803,6.0803,5.3196,5.3196,5.3196,5.3196,5.3196,5.3196,5.3196,5.3196,5.3196,5.3196,5.3196,5.3196,5.3196,5.3196,5.3196,5.3196,5.2454,5.2006,5.1996,5.1905,5.1836,5.1833,5.2614,5.3046,5.3046,5.313,5.3159,5.3031,5.3159,5.3196,5.3196,5.3196,5.3196,5.3196,5.3196,5.3196,5.3196,5.3196,5.3196,5.3196,5.3196,5.3196,5.3298,5.4177,5.4503,5.4613,5.5411,5.5706,5.5706,5.5706,5.5706,5.5706,5.5706,5.5706,5.5706,5.5706,5.5706,5.5706,5.5706,5.5706,5.5706,5.5706,5.5706,5.5706,5.5706,5.5706,5.5706,5.5706,5.5706,5.5706,5.5706,5.5706,5.5706,5.5706,5.5706,5.5706,5.5706,5.5706,5.5706,5.5706,5.5706,5.5706,5.5706,5.5706,5.5706,5.5706,5.5706,5.6035,5.6788,5.6942,5.7651,5.9127,5.9374,5.9858,6.0611,6.0745,6.0803,6.0803,6.0803,6.0803,6.0803,6.0803,6.0803,6.0803,6.0803,6.0803,6.0803,6.0803,6.0803,6.0803,6.0803,6.0803,6.0803,6.0803,6.0803,6.0803,5.3196,5.3196,5.3196,5.3196,5.3196,5.3196,5.3196,5.3196,5.3196,5.3196,5.3196,5.3196,5.3196,5.3196,5.3196,5.3196,5.2871,5.2671,5.2679,5.2661,5.2671,5.2679,5.3009,5.3196,5.3196,5.3196,5.3196,5.3196,5.3196,5.3196,5.3196,5.3196,5.3196,5.3196,5.3196,5.3196,5.3196,5.3196,5.3196,5.3196,5.3196,5.3196,5.3298,5.4177,5.4503,5.4613,5.5411,5.5706,5.5706,5.5706,5.5706,5.5706,5.5706,5.5706,5.5706,5.5706,5.5706,5.5706,5.5706,5.5706,5.5706,5.5706,5.5706,5.5706,5.5706,5.5706,5.5706,5.5706,5.5706,5.5706,5.5706,5.5706,5.5706,5.5706,5.5706,5.5706,5.5706,5.5706,5.5706,5.5706,5.5706,5.5706,5.5706,5.5706,5.5706,5.5706,5.6151,5.6596,5.6981,5.7882,5.8742,5.947,5.9973,6.0418,6.0803,6.0803,6.0803,6.0803,6.0803,6.0803,6.0803,6.0803,6.0803,6.0803,6.0803,6.0803,6.0803,6.0803,6.0803,6.0803,6.0803,6.0803,6.0803,6.0803,6.0803,6.0803]},{"header":{"parameterUnit":"m.s-1","parameterCategory":1,"la1":30.6,"la2":28.766,"lo1":-90.7593,"lo2":-88.6598,"dy":0.0162,"dx":0.0183,"nx":116,"ny":114,"refTime":"2023-10-14T18:00:00:Z","depth":0,"parameterNumber":3,"parameterNumberName":"V-component_of_WINDS"},"data":[0.0,0.0,0.0,0.0,0.0,0.0,0.0,0.0,0.0,0.0,0.0,0.0,0.0,0.0,0.0,0.0,0.0,0.0,0.0,0.0,0.0,0.0,0.0,0.0,0.0,0.0,0.0,0.0,0.0,0.0,0.0,0.0,0.0,0.0,0.0,0.0,0.0,0.0,0.0,0.0,0.0,0.0,0.0,0.0,0.0,0.0,0.0,0.0,0.0,0.0,0.0,0.0,0.0,0.0,0.0,0.0,0.0,0.0,0.0,0.0,0.0,0.0,0.0,0.0,0.0,0.0,0.0,0.0,0.0,0.0,0.0,0.0,0.0,0.0,0.0,0.0,0.0,0.0,0.0,0.0,0.0,0.0,0.0,0.0,0.0,0.0,0.0,0.0,0.0,0.0,0.0,0.0,0.0,0.0,0.0,0.0,0.0,0.0,0.0,0.0,0.0,0.0,0.0,0.0,0.0,0.0,0.0,0.0,0.0,0.0,0.0,0.0,0.0,0.0,0.0,0.0,0.0,0.0,0.0,0.0,0.0,0.0,0.0,0.0,0.0,0.0,0.0,0.0,0.0,0.0,0.0,0.0,0.0,0.0,0.0,0.0,0.0,0.0,0.0,0.0,0.0,0.0,0.0,0.0,0.0,0.0,0.0,0.0,0.0,0.0,0.0,0.0,0.0,0.0,0.0,0.0,0.0,0.0,0.0,0.0,0.0,0.0,0.0,0.0,0.0,0.0,0.0,0.0,0.0,0.0,0.0,0.0,0.0,0.0,0.0,0.0,0.0,0.0,0.0,0.0,0.0,0.0,0.0,0.0,0.0,0.0,0.0,0.0,0.0,0.0,0.0,0.0,0.0,0.0,0.0,0.0,0.0,0.0,0.0,0.0,0.0,0.0,0.0,0.0,0.0,0.0,0.0,0.0,0.0,0.0,0.0,0.0,0.0,0.0,0.0,0.0,0.0,0.0,0.0,0.0,0.0,0.0,0.0,0.0,0.0,0.0,0.0,0.0,0.0,0.0,0.0,0.0,0.0,0.0,0.0,0.0,0.0,0.0,0.0,0.0,0.0,0.0,0.0,0.0,0.0,0.0,0.0,0.0,0.0,0.0,0.0,0.0,0.0,0.0,0.0,0.0,0.0,0.0,0.0,0.0,0.0,0.0,0.0,0.0,0.0,0.0,0.0,0.0,0.0,0.0,0.0,0.0,0.0,0.0,0.0,0.0,0.0,0.0,0.0,0.0,0.0,0.0,0.0,0.0,0.0,0.0,0.0,0.0,0.0,0.0,0.0,0.0,0.0,0.0,0.0,0.0,0.0,0.0,0.0,0.0,0.0,0.0,0.0,0.0,0.0,0.0,0.0,0.0,0.0,0.0,0.0,0.0,0.0,0.0,0.0,0.0,0.0,0.0,0.0,0.0,0.0,0.0,0.0,0.0,0.0,0.0,0.0,0.0,0.0,0.0,0.0,0.0,0.0,0.0,0.0,0.0,0.0,0.0,0.0,0.0,0.0,0.0,0.0,0.0,0.0,0.0,0.0,0.0,0.0,0.0,0.0,0.0,0.0,0.0,0.0,0.0,0.0,0.0,0.0,0.0,0.0,0.0,0.0,0.0,0.0,0.0,0.0,0.0,0.0,0.0,0.0,0.0,0.0,0.0,0.0,0.0,0.0,0.0,0.0,0.0,0.0,0.0,0.0,0.0,0.0,0.0,0.0,0.0,0.0,0.0,0.0,0.0,0.0,0.0,0.0,0.0,0.0,0.0,0.0,0.0,0.0,0.0,0.0,0.0,0.0,0.0,0.0,0.0,0.0,0.0,0.0,0.0,0.0,0.0,0.0,0.0,0.0,0.0,0.0,0.0,0.0,0.0,0.0,0.0,0.0,0.0,0.0,0.0,0.0,0.0,0.0,0.0,0.0,0.0,0.0,0.0,0.0,0.0,0.0,0.0,0.0,0.0,0.0,0.0,0.0,0.0,0.0,0.0,0.0,0.0,0.0,0.0,0.0,0.0,0.0,0.0,0.0,0.0,0.0,0.0,0.0,0.0,0.0,0.0,0.0,0.0,0.0,0.0,0.0,0.0,0.0,0.0,0.0,0.0,0.0,0.0,0.0,0.0,0.0,0.0,0.0,0.0,0.0,0.0,0.0,0.0,0.0,0.0,0.0,0.0,0.0,0.0,0.0,0.0,0.0,0.0,0.0,0.0,0.0,0.0,0.0,0.0,0.0,0.0,0.0,0.0,0.0,0.0,0.0,0.0,0.0,0.0,0.0,0.0,0.0,0.0,0.0,0.0,0.0,0.0,0.0,0.0,0.0,0.0,0.0,0.0,0.0,0.0,0.0,0.0,0.0,0.0,0.0,0.0,0.0,0.0,0.0,0.0,0.0,0.0,0.0,0.0,0.0,0.0,0.0,0.0,0.0,0.0,0.0,0.0,0.0,0.0,0.0,0.0,0.0,0.0,0.0,0.0,0.0,0.0,0.0,0.0,0.0,0.0,0.0,0.0,0.0,0.0,0.0,0.0,0.0,0.0,0.0,0.0,0.0,0.0,0.0,0.0,0.0,0.0,0.0,0.0,0.0,0.0,0.0,0.0,0.0,0.0,0.0,0.0,0.0,0.0,0.0,0.0,0.0,0.0,0.0,0.0,0.0,0.0,0.0,0.0,0.0,0.0,0.0,0.0,0.0,0.0,0.0,0.0,0.0,0.0,0.0,0.0,0.0,0.0,0.0,0.0,0.0,0.0,0.0,0.0,0.0,0.0,0.0,0.0,0.0,0.0,0.0,0.0,0.0,0.0,0.0,0.0,0.0,0.0,0.0,0.0,0.0,0.0,0.0,0.0,0.0,0.0,0.0,0.0,0.0,0.0,0.0,0.0,0.0,0.0,0.0,0.0,0.0,0.0,0.0,0.0,0.0,0.0,0.0,0.0,0.0,0.0,0.0,0.0,0.0,0.0,0.0,0.0,0.0,0.0,0.0,0.0,0.0,0.0,0.0,0.0,0.0,0.0,0.0,0.0,0.0,0.0,0.0,0.0,0.0,0.0,0.0,0.0,0.0,0.0,0.0,0.0,0.0,0.0,0.0,0.0,0.0,0.0,0.0,0.0,0.0,0.0,0.0,0.0,0.0,0.0,0.0,0.0,0.0,0.0,0.0,0.0,0.0,0.0,0.0,0.0,0.0,0.0,0.0,0.0,0.0,0.0,0.0,0.0,0.0,0.0,0.0,0.0,0.0,0.0,0.0,0.0,0.0,0.0,0.0,0.0,0.0,0.0,0.0,0.0,0.0,0.0,0.0,0.0,0.0,0.0,0.0,0.0,0.0,0.0,0.0,0.0,0.0,0.0,0.0,0.0,0.0,0.0,0.0,0.0,0.0,0.0,0.0,0.0,0.0,0.0,0.0,0.0,0.0,0.0,0.0,0.0,0.0,0.0,0.0,0.0,0.0,0.0,0.0,0.0,0.0,0.0,0.0,0.0,0.0,0.0,0.0,0.0,0.0,0.0,0.0,0.0,0.0,0.0,0.0,0.0,0.0,0.0,0.0,0.0,0.0,0.0,0.0,0.0,0.0,0.0,0.0,0.0,0.0,0.0,0.0,0.0,0.0,0.0,0.0,0.0,0.0,0.0,0.0,0.0,0.0,0.0,0.0,0.0,0.0,0.0,0.0,0.0,0.0,0.0,0.0,0.0,0.0,0.0,0.0,0.0,0.0,0.0,0.0,0.0,0.0,0.0,0.0,0.0,0.0,0.0,0.0,0.0,0.0,0.0,0.0,0.0,0.0,0.0,0.0,0.0,0.0,0.0,0.0,0.0,0.0,0.0,0.0,0.0,0.0,0.0,0.0,0.0,0.0,0.0,0.0,0.0,0.0,0.0,0.0,0.0,0.0,0.0,0.0,0.0,0.0,0.0,0.0,0.0,0.0,0.0,0.0,0.0,0.0,0.0,0.0,0.0,0.0,0.0,0.0,0.0,0.0,0.0,0.0,0.0,0.0,0.0,0.0,0.0,0.0,0.0,0.0,0.0,0.0,0.0,0.0,0.0,0.0,0.0,0.0,0.0,0.0,0.0,0.0,0.0,0.0,0.0,0.0,0.0,0.0,0.0,0.0,0.0,0.0,0.0,0.0,0.0,0.0,0.0,0.0,0.0,0.0,0.0,0.0,0.0,0.0,0.0,0.0,0.0,0.0,0.0,0.0,0.0,0.0,0.0,0.0,0.0,0.0,0.0,0.0,0.0,0.0,0.0,0.0,0.0,0.0,0.0,0.0,0.0,0.0,0.0,0.0,0.0,0.0,0.0,0.0,0.0,0.0,0.0,0.0,0.0,0.0,0.0,0.0,0.0,0.0,0.0,0.0,0.0,0.0,0.0,0.0,0.0,0.0,0.0,0.0,0.0,0.0,0.0,0.0,0.0,0.0,0.0,0.0,0.0,0.0,0.0,0.0,0.0,0.0,0.0,0.0,0.0,0.0,0.0,0.0,0.0,0.0,0.0,0.0,0.0,0.0,0.0,0.0,0.0,0.0,0.0,0.0,0.0,0.0,0.0,0.0,0.0,0.0,0.0,0.0,0.0,0.0,0.0,0.0,0.0,0.0,0.0,0.0,0.0,0.0,0.0,0.0,0.0,0.0,0.0,0.0,0.0,0.0,0.0,0.0,0.0,0.0,0.0,0.0,0.0,0.0,0.0,0.0,0.0,0.0,0.0,0.0,0.0,0.0,0.0,0.0,0.0,0.0,0.0,0.0,0.0,0.0,0.0,0.0,0.0,0.0,0.0,0.0,0.0,0.0,0.0,0.0,0.0,0.0,0.0,0.0,0.0,0.0,0.0,0.0,0.0,0.0,0.0,0.0,0.0,0.0,0.0,0.0,0.0,0.0,0.0,0.0,0.0,0.0,0.0,0.0,0.0,0.0,0.0,0.0,0.0,0.0,0.0,0.0,0.0,0.0,0.0,0.0,0.0,0.0,0.0,0.0,0.0,0.0,0.0,0.0,0.0,0.0,0.0,0.0,0.0,0.0,0.0,0.0,0.0,0.0,0.0,0.0,0.0,0.0,0.0,0.0,0.0,0.0,0.0,0.0,0.0,0.0,0.0,0.0,0.0,0.0,0.0,0.0,0.0,0.0,0.0,0.0,0.0,0.0,0.0,0.0,0.0,0.0,0.0,0.0,0.0,0.0,0.0,0.0,0.0,0.0,0.0,0.0,0.0,0.0,0.0,0.0,0.0,0.0,0.0,0.0,0.0,0.0,0.0,0.0,0.0,0.0,0.0,0.0,0.0,0.0,0.0,0.0,0.0,0.0,0.0,0.0,0.0,0.0,0.0,0.0,0.0,0.0,0.0,0.0,0.0,0.0,0.0,0.0,0.0,0.0,0.0,0.0,0.0,0.0,0.0,0.0,0.0,0.0,0.0,0.0,0.0,0.0,0.0,0.0,0.0,0.0,0.0,0.0,0.0,0.0,0.0,0.0,0.0,0.0,0.0,0.0,0.0,0.0,0.0,0.0,0.0,0.0,0.0,0.0,0.0,0.0,0.0,0.0,0.0,0.0,0.0,0.0,0.0,0.0,0.0,0.0,0.0,0.0,0.0,0.0,0.0,0.0,0.0,0.0,0.0,0.0,0.0,0.0,0.0,0.0,0.0,0.0,0.0,0.0,0.0,0.0,0.0,0.0,0.0,0.0,0.0,0.0,0.0,0.0,0.0,0.0,0.0,0.0,0.0,0.0,0.0,0.0,0.0,0.0,0.0,0.0,0.0,0.0,0.0,0.0,0.0,0.0,0.0,0.0,0.0,0.0,0.0,0.0,0.0,0.0,0.0,0.0,0.0,0.0,0.0,0.0,0.0,0.0,0.0,0.0,0.0,0.0,0.0,0.0,0.0,0.0,0.0,0.0,0.0,0.0,0.0,0.0,0.0,0.0,0.0,0.0,0.0,0.0,0.0,0.0,0.0,0.0,0.0,0.0,0.0,0.0,0.0,0.0,0.0,0.0,0.0,0.0,0.0,0.0,0.0,0.0,0.0,0.0,0.0,0.0,0.0,0.0,0.0,0.0,0.0,0.0,0.0,0.0,0.0,0.0,0.0,0.0,0.0,0.0,0.0,0.6617,0.0,0.0,0.0,0.0,0.0,0.0,0.0,0.0,0.0,0.0,0.0,0.0,0.0,0.0,0.0,0.0,0.0,0.0,0.0,0.0,0.0,0.0,0.0,0.0,0.0,0.0,0.0,0.0,0.0,0.0,0.0,0.0,0.0,0.0,0.0,0.0,0.0,0.0,0.0,0.0,0.0,0.0,0.0,0.0,0.0,0.0,0.0,0.0,0.0,0.0,0.0,0.0,0.0,0.0,0.0,0.0,0.0,0.0,0.0,0.0,0.0,0.0,0.0,0.0,0.0,0.0,0.0,0.0,0.0,0.0,0.0,0.0,0.0,0.0,0.0,0.0,0.0,0.0,0.0,0.0,0.0,0.0,0.0,0.0,0.0,0.0,0.0,0.0,0.0,0.0,0.0,0.0,0.0,0.0,0.0,0.0,0.0,0.0,0.0,0.0,0.0,0.0,0.0,0.0,0.0,0.0,0.0,0.0,0.0,0.0,0.0,0.0,0.0,0.0,0.0,0.0,0.6702,0.0,0.0,0.0,0.0,0.0,0.0,0.0,0.0,0.0,0.0,0.0,0.0,0.0,0.0,0.0,0.0,0.0,0.0,0.0,0.0,0.0,0.0,0.0,0.0,0.0,0.0,0.0,0.0,0.0,0.0,0.0,0.0,0.0,0.0,0.0,0.0,0.0,0.0,0.0,0.0,0.0,0.0,0.0,0.0,0.0,0.0,0.0,0.0,0.0,0.0,0.0,0.0,0.0,0.0,0.0,0.0,0.0,0.0,0.0,0.0,0.0,0.0,0.0,0.0,0.0,0.0,0.0,0.0,0.0,0.0,0.0,0.0,0.0,0.0,0.0,0.0,0.0,0.0,0.0,0.0,0.0,0.0,0.0,0.0,0.0,0.0,0.0,0.0,0.0,0.0,0.0,0.0,0.0,0.0,0.0,0.0,0.0,0.0,0.0,0.0,0.0,0.0,0.0,0.0,0.0,0.0,0.0,0.0,0.0,0.0,0.6769,0.6887,0.6934,0.6927,0.682,0.6766,0.6766,0.0,0.0,0.0,0.0,0.0,0.0,0.0,0.0,0.0,0.0,0.0,0.0,0.0,0.0,0.0,0.0,0.0,0.0,0.0,0.0,0.0,0.0,0.0,0.0,0.0,0.0,0.0,0.0,0.0,0.0,0.0,0.0,0.0,0.0,0.0,0.0,0.0,0.0,0.0,0.0,0.0,0.5841,0.5403,0.0,0.0,0.0,0.0,0.0,0.0,0.0,0.0,0.0,0.0,0.0,0.0,0.0,0.0,0.0,0.0,0.0,0.0,0.0,0.0,0.0,0.0,0.0,0.0,0.0,0.0,0.0,0.0,0.0,0.0,0.0,0.0,0.0,0.0,0.0,0.0,0.0,0.0,0.0,0.0,0.0,0.0,0.0,0.0,0.63,0.63,0.0,0.0,0.0,0.0,0.0,0.0,0.0,0.0,0.0,0.0,0.0,0.0,0.0,0.0,0.6702,0.6809,0.6877,0.688,0.6991,0.7049,0.7049,0.7069,0.7079,0.7068,0.7059,0.0,0.7049,0.7049,0.0,0.0,0.0,0.0,0.0,0.0,0.0,0.0,0.0,0.0,0.0,0.0,0.0,0.0,0.0,0.0,0.0,0.0,0.0,0.0,0.0,0.0,0.0,0.0,0.0,0.0,0.0,0.0,0.0,0.0,0.0,0.0,0.0,0.0,0.0,0.0,0.0,0.0,0.0,0.0,0.0,0.0,0.0,0.0,0.0,0.928,0.0,0.0,0.0,0.0,0.0,0.0,0.0,0.0,0.0,0.0,0.0,0.0,0.0,0.0,0.0,0.0,0.0,0.0,0.0,0.0,0.0,0.0,0.0,0.0,0.0,0.0,0.0,0.0,0.0,0.0,0.0,0.0,0.0,0.0,0.0,0.0,0.0,0.0,0.0,0.6529,0.6529,0.6529,0.6529,0.6552,0.0,0.0,0.0,0.0,0.0,0.0,0.0,0.0,0.0,0.6924,0.7031,0.7089,0.7089,0.7231,0.7294,0.7294,0.7358,0.7386,0.7386,0.7386,0.7386,0.7386,0.7386,0.7386,0.7364,0.7177,0.7095,0.7095,0.0,0.0,0.0,0.0,0.0,0.7386,0.0,0.0,0.0,0.0,0.0,0.0,0.0,0.0,0.0,0.0,0.0,0.0,0.0,0.0,0.0,0.0,0.0,0.0,0.0,0.0,0.0,0.0,0.0,0.0,0.0,0.0,0.0,0.0,0.0,0.0,0.0,0.0,0.0,0.0,0.0,0.0,0.0,0.0,0.0,0.0,0.0,0.0,0.0,0.0,0.0,0.0,0.0,0.0,0.0,0.0,0.0,0.0,0.0,0.0,0.0,0.0,0.0,0.0,0.0,0.0,0.0,0.0,0.0,0.0,0.0,0.0,0.0,0.0,0.0,0.0,0.0,0.0,0.0,0.0,0.0,0.0,0.0,0.6954,0.7026,0.6729,0.6954,0.703,0.0,0.0,0.0,0.0,0.0,0.0,0.7023,0.703,0.7087,0.7221,0.737,0.7454,0.7454,0.7554,0.76,0.76,0.76,0.76,0.76,0.76,0.76,0.76,0.76,0.76,0.7584,0.733,0.7224,0.7224,0.7224,0.7318,0.0,0.7454,0.7514,0.76,0.0,0.0,0.0,0.0,0.0,0.0,0.0,0.0,0.0,0.0,0.0,0.0,0.0,0.0,0.0,0.0,0.0,0.0,0.0,0.0,0.0,0.0,0.0,0.0,0.0,0.0,0.0,0.0,0.0,0.0,0.0,0.0,0.0,0.0,0.0,0.0,0.0,0.0,0.0,0.0,0.0,0.0,0.0,0.0,0.0,0.0,0.0,0.0,0.0,0.0,0.0,0.0,0.0,0.0,0.0,0.0,0.0,0.0,0.0,0.0,0.0,0.0,0.0,0.0,0.0,0.0,0.0,0.0,0.0,0.0,0.0,0.0,0.0,0.0,0.0,0.0,0.0,0.0,0.0,0.6833,0.7654,0.0,0.0,0.0,0.0,0.7076,0.7082,0.7161,0.7365,0.7372,0.744,0.757,0.7584,0.7587,0.7587,0.7597,0.76,0.76,0.76,0.76,0.76,0.76,0.76,0.76,0.76,0.76,0.7597,0.7584,0.7577,0.7577,0.7577,0.7584,0.7587,0.7587,0.7594,0.76,0.0,0.0,0.0,0.0,0.0,0.0,0.0,0.0,0.0,0.0,0.0,0.0,0.0,0.0,0.0,0.0,0.0,0.0,0.0,0.0,0.0,0.0,0.0,0.0,0.0,0.0,0.0,0.0,0.0,0.0,0.0,0.0,0.0,0.0,0.0,0.0,0.0,0.0,0.0,0.0,0.0,0.0,0.0,0.0,0.0,0.0,0.0,0.0,0.0,0.0,0.0,0.0,0.0,0.0,0.0,0.0,0.0,0.0,0.0,0.0,0.0,0.0,0.0,0.0,0.0,0.0,0.0,0.0,0.0,0.0,0.0,0.0,0.0,0.0,0.0,0.0,0.0,0.0,0.0,0.7005,0.7321,0.0,0.0,0.7225,0.7275,0.7413,0.7423,0.745,0.7527,0.7531,0.7554,0.7597,0.7689,0.7724,0.7724,0.781,0.7858,0.7858,0.7858,0.7858,0.7858,0.7858,0.7858,0.7858,0.7858,0.7858,0.7858,0.7858,0.7758,0.76,0.76,0.7655,0.7724,0.7724,0.7785,0.7858,0.0,0.0,0.0,0.0,0.0,0.0,0.0,0.0,0.0,0.0,0.0,0.0,0.0,0.0,0.0,0.0,0.0,0.0,0.0,0.0,0.0,0.0,0.0,0.0,0.0,0.0,0.0,0.0,0.0,0.0,0.0,0.0,0.0,0.0,0.0,0.0,0.0,0.0,0.0,0.0,0.0,0.0,0.6299,0.0,0.0,0.0,0.0,0.0,0.0,0.0,0.0,0.0,0.0,0.0,0.0,0.0,0.0,0.0,0.0,0.0,0.0,0.0,0.0,0.0,0.0,0.0,0.0,0.0,0.0,0.0,0.0,0.0,0.0,0.0,0.0,0.0,0.0,0.0,0.7786,0.7834,0.8247,0.8414,0.8135,0.8112,0.7964,0.7626,0.76,0.7621,0.7668,0.7672,0.7684,0.7734,0.7826,0.7864,0.7864,0.795,0.8001,0.8001,0.8001,0.8001,0.8001,0.8001,0.8001,0.8001,0.8001,0.8001,0.8004,0.8071,0.8001,0.7833,0.7758,0.7792,0.7864,0.7864,0.7925,0.8001,0.0,0.0,0.0,0.0,0.0,0.0,0.0,0.0,0.0,0.0,0.0,0.0,0.0,0.0,0.0,0.0,0.0,0.0,0.0,0.0,0.0,0.0,0.0,0.0,0.0,0.0,0.0,0.0,0.0,0.0,0.0,0.0,0.0,0.0,0.0,0.0,0.0,0.0,0.0,0.0,0.0,0.0,0.6296,0.0,0.0,0.0,0.0,0.0,0.0,0.0,0.0,0.0,0.0,0.0,0.0,0.0,0.0,0.0,0.0,0.0,0.0,0.0,0.0,0.0,0.0,0.0,0.0,0.0,0.0,0.0,0.0,0.0,0.0,0.0,0.0,0.0,0.72,0.8292,0.9176,0.9349,1.048,1.0788,0.9621,0.947,0.8936,0.7705,0.7649,0.7731,0.7859,0.7902,0.7971,0.8063,0.807,0.8048,0.8018,0.8018,0.8018,0.8018,0.8018,0.8018,0.8018,0.8018,0.8018,0.8018,0.8018,0.8018,0.8028,0.8227,0.8304,0.8287,0.8088,0.8018,0.8018,0.8018,0.8018,0.8018,0.0,0.0,0.0,0.0,0.0,0.0,0.0,0.0,0.0,0.0,0.0,0.0,0.0,0.0,0.0,0.0,0.0,0.0,0.0,0.0,0.0,0.0,0.0,0.0,0.0,0.0,0.0,0.0,0.0,0.0,0.0,0.0,0.0,0.0,0.0,0.0,0.0,0.0,0.0,0.0,0.0,0.0,0.6305,0.0,0.0,0.0,0.0,0.0,0.0,0.0,0.0,0.0,0.0,0.0,0.0,0.0,0.0,0.0,0.0,0.0,0.0,0.0,0.0,0.0,0.0,0.0,0.0,0.0,0.0,0.0,0.0,0.0,0.0,0.0,0.0,0.8754,0.8701,0.9093,0.9764,1.0783,1.0361,0.9925,0.974,0.8834,0.8164,0.7909,0.8788,0.9352,0.9396,1.0271,1.0403,0.9623,0.9589,0.9201,0.837,0.836,0.836,0.836,0.836,0.836,0.836,0.836,0.836,0.836,0.836,0.836,0.8364,0.8421,0.8451,0.8447,0.839,0.836,0.836,0.836,0.836,0.836,0.0,0.0,0.0,0.0,0.0,0.0,0.0,0.0,0.0,0.0,0.0,0.0,0.0,0.0,0.0,0.0,0.0,0.0,0.0,0.0,0.0,0.0,0.0,0.0,0.0,0.0,0.0,0.0,0.0,0.0,0.0,0.0,0.0,0.0,0.0,0.0,0.0,0.0,0.0,0.0,0.0,0.0,0.8812,0.8812,0.8818,0.8856,0.9183,0.8551,0.7648,0.8227,0.0,0.0,0.0,0.0,0.0,0.0,0.0,0.0,0.0,0.0,0.0,0.0,0.0,0.0,0.0,0.0,0.0,0.0,0.0,0.0,0.0,0.0,0.0,0.0,0.9748,0.9693,1.023,0.9909,1.0319,1.2202,1.1296,1.0773,1.1453,1.0808,1.0205,0.9863,1.0571,1.105,1.1175,1.1317,1.1092,1.0425,0.9811,0.917,0.8505,0.8495,0.8495,0.8495,0.8495,0.8495,0.8495,0.8495,0.8495,0.0,0.8495,0.8495,0.8499,0.8563,0.8591,0.0,0.0,0.0,0.0,0.0,0.8495,0.8495,0.0,0.0,0.0,0.0,0.0,0.0,0.0,0.0,0.0,0.0,0.0,0.0,0.0,0.0,0.0,0.0,0.0,0.0,0.0,0.0,0.0,0.0,0.0,0.0,0.0,0.0,0.0,0.0,0.0,0.0,0.0,0.0,0.0,0.0,0.0,0.0,0.0,0.0,0.0,0.0,0.0,0.0,1.2304,1.23,1.2154,1.1762,1.0206,0.9344,0.8998,0.9241,0.0,0.0,0.0,0.0,0.0,0.0,0.0,0.0,0.0,0.0,0.0,0.0,0.0,0.0,0.0,0.0,0.0,0.0,0.0,0.0,0.0,0.0,0.0,0.0,1.0735,1.0692,1.1973,1.1096,1.1161,1.345,1.2799,1.2638,1.3835,1.3834,1.3409,1.2512,1.259,1.2703,1.2777,0.0,0.0,0.0,0.0,0.8763,0.8793,0.8626,0.8546,0.8546,0.8546,0.8546,0.8546,0.8546,0.8546,0.8546,0.8546,0.8546,0.8557,0.8666,0.8723,0.871,0.8587,0.8546,0.8546,0.8546,0.8546,0.0,0.0,0.0,0.0,0.0,0.0,0.0,0.0,0.0,0.0,0.0,0.0,0.0,0.0,0.0,0.0,0.0,0.0,0.0,0.0,0.0,0.0,0.0,0.0,0.0,0.0,0.0,0.0,0.0,0.0,0.0,0.0,0.0,0.0,0.0,0.0,0.0,0.0,0.0,0.0,0.0,0.0,0.0,1.2296,1.2299,1.1293,1.0039,1.1287,0.9635,0.7148,0.8874,0.8271,0.6812,0.692,0.0,0.0,0.0,0.0,0.0,0.0,0.0,0.0,0.0,0.0,0.0,0.0,0.0,0.0,0.0,0.0,0.0,0.0,0.0,0.0,1.2997,1.3054,1.3432,1.4806,1.4105,1.3539,1.3831,1.3849,1.3932,1.4196,1.3486,1.2928,1.2746,1.3724,1.3843,1.2695,1.3357,0.0,1.2414,1.1023,1.0384,1.0593,0.9416,0.8825,0.8825,0.0,0.0,0.8825,0.8825,0.8825,0.8825,0.8825,0.8825,0.8825,0.8855,0.8869,0.8865,0.8835,0.8825,0.8825,0.8825,0.8825,0.8825,0.0,0.0,0.0,0.0,0.0,0.0,0.0,0.0,0.0,0.0,0.0,0.0,0.0,0.0,0.0,0.0,0.0,0.0,0.0,0.0,0.0,0.0,0.0,0.0,0.0,0.0,0.0,0.0,0.0,0.0,0.0,0.0,0.0,0.0,0.0,0.0,0.0,0.0,0.0,0.0,0.0,0.0,1.2934,1.0595,0.9449,0.923,1.024,0.9477,0.8165,0.9239,0.8643,0.7461,0.7533,0.7293,0.7001,0.0,0.0,0.0,0.0,0.0,0.0,0.0,0.0,0.0,0.0,0.0,0.0,0.0,0.0,1.124,0.0,0.0,1.3471,1.3537,1.369,1.4094,1.4933,1.4625,1.4495,1.5037,1.4783,1.4803,1.5438,1.5049,1.4827,1.4995,1.5622,1.5742,1.5127,1.5003,1.4683,1.4116,1.2742,1.207,1.22,1.074,0.9998,0.9998,0.9251,0.8899,0.8899,0.8899,0.8899,0.8899,0.8899,0.8899,0.8899,0.8899,0.8899,0.8899,0.8899,0.8899,0.8899,0.8899,0.8899,0.8899,0.0,0.0,0.0,0.0,0.0,0.0,0.0,0.0,0.0,0.0,0.0,0.0,0.0,0.0,0.0,0.0,0.0,0.0,0.0,0.0,0.0,0.0,0.0,0.0,0.0,0.0,0.0,0.0,0.0,0.0,0.0,0.0,0.0,0.0,0.0,0.0,0.0,0.0,0.0,0.0,0.0,0.0,1.3643,0.9389,0.8273,0.8967,0.9027,0.9077,0.9156,0.9371,0.8849,0.8114,0.8135,0.7668,0.7095,0.7095,0.7095,0.0,0.0,0.0,0.0,0.0,0.0,0.0,0.0,0.0,0.9822,1.0154,1.1653,1.2745,1.2201,1.3756,1.4849,1.4,1.4141,1.4443,1.4667,1.4794,1.5258,1.6353,1.5764,1.5676,1.6699,1.684,1.6987,1.7266,1.7286,1.7257,1.718,1.6049,1.5427,1.5507,1.3813,1.3078,1.3404,1.1626,1.0724,1.0724,0.9482,0.8899,0.8899,0.8899,0.8899,0.8899,0.8899,0.8899,0.8899,0.8899,0.8899,0.8899,0.8899,0.8899,0.8899,0.8899,0.8899,0.8899,0.0,0.0,0.0,0.0,0.0,0.0,0.0,0.0,0.0,0.0,0.0,0.0,0.0,0.0,0.0,0.0,0.0,0.0,0.0,0.0,0.0,0.0,0.0,0.0,0.0,0.0,0.0,0.0,0.0,0.0,0.0,0.0,0.0,0.0,0.0,0.0,0.0,0.0,0.0,0.0,0.0,0.0,1.3814,1.12,0.978,0.9198,0.951,0.8498,0.7192,0.8201,0.7892,0.7089,0.7206,0.7181,0.7095,0.7095,0.0,0.7095,0.7095,0.723,0.7369,0.7369,0.8314,0.9234,0.0,0.0,1.1551,1.2569,1.2299,1.2504,1.4552,1.4457,1.4393,1.5375,1.5809,1.6043,1.6064,1.6538,1.6926,1.708,1.6997,1.6992,1.7127,1.7361,1.7508,1.7542,1.7561,1.7009,1.571,1.5484,1.5536,1.5834,1.3023,1.2273,1.3814,1.089,0.9409,0.9405,0.9067,0.8899,0.8899,0.8899,0.8899,0.8899,0.8899,0.8899,0.8899,0.8899,0.8899,0.8899,0.8899,0.8899,0.8899,0.8899,0.8899,0.8899,0.0,0.0,0.0,0.0,0.0,0.0,0.0,0.0,0.0,0.0,0.0,0.0,0.0,0.0,0.0,0.0,0.0,0.0,0.0,0.0,0.0,0.0,0.0,0.0,0.0,0.0,0.0,0.0,0.0,0.0,0.0,0.0,0.0,0.0,0.0,0.0,0.0,0.0,0.0,0.0,0.0,0.0,1.4485,1.3143,1.1963,1.0763,0.8868,0.8099,0.0,0.0,0.7364,0.7149,0.7906,0.7665,0.7239,0.794,0.7654,0.0,0.724,0.7398,0.0,0.0,0.906,0.972,1.0583,1.1208,1.1774,1.2328,1.2732,1.306,1.3321,1.4424,1.522,0.0,1.5823,1.6599,1.6798,1.7032,1.7266,1.7408,1.7428,1.7428,1.7428,1.7535,1.7655,1.7829,1.7829,1.7647,1.7234,1.7206,1.727,1.7405,1.6164,1.5836,1.6574,1.4426,1.3331,1.3317,1.238,1.1927,1.1927,1.1927,1.1367,1.0361,0.9465,0.9001,0.8899,0.8899,0.8899,0.8899,0.8899,0.8899,0.8899,0.8899,0.8899,0.8899,0.0,0.0,0.0,0.0,0.0,0.0,0.0,0.0,0.0,0.0,0.0,0.0,0.0,0.0,0.0,0.0,0.0,0.0,0.0,1.0068,1.284,0.0,0.0,0.0,0.0,0.0,0.0,0.0,0.0,0.0,0.0,0.0,0.0,0.0,0.0,0.0,0.0,0.0,0.0,0.0,0.0,0.0,1.4903,1.3975,1.3083,1.1895,0.8724,0.8156,0.0,0.0,0.7095,0.725,0.8123,0.7808,0.7272,0.8149,0.7819,0.7301,0.784,0.0,0.0,0.9788,1.0127,1.0443,1.1508,1.2042,1.2327,1.243,1.3279,1.3839,1.322,1.4637,0.0,1.506,1.6014,1.6913,1.7172,1.7253,1.7387,1.7582,1.7669,1.7709,1.7709,1.7709,1.7822,1.8123,1.8143,1.8236,1.8491,1.8504,1.8524,1.8604,1.8179,1.7995,1.8093,1.6551,1.5778,1.5764,1.4646,1.3879,1.3444,1.3017,1.2105,1.0857,0.9735,0.9171,0.9034,0.9034,0.9021,0.8984,0.8984,0.8946,0.8899,0.8899,0.8899,0.8899,0.0,0.0,0.0,0.0,0.0,0.0,0.0,0.0,0.0,0.0,0.0,0.0,0.0,0.0,0.0,0.0,0.0,0.0,0.0,1.0068,1.284,1.4049,1.4104,1.4099,1.4099,0.0,0.0,0.0,0.0,0.0,0.0,0.0,0.0,0.0,0.0,0.0,0.0,0.0,0.0,0.0,0.0,0.0,1.4809,1.3102,1.2392,1.2002,0.9677,0.0,0.0,0.0,0.7095,0.7106,0.7139,0.7128,0.0,0.7139,0.7267,0.7691,0.0,0.0,1.004,1.1313,1.1727,1.1845,1.1874,1.2898,1.3831,1.3836,1.4084,1.4673,1.5929,1.5438,1.5236,1.6437,1.6941,1.7192,1.7199,1.7414,1.7582,1.7595,1.7822,1.7989,0.0,1.7989,1.8129,1.8457,1.8477,1.8491,1.8504,1.8504,1.8617,1.8876,1.7373,1.672,1.7047,1.5324,1.4458,1.4453,1.4213,1.3316,1.1825,1.0254,0.9523,0.9461,0.9418,0.9385,0.9382,0.9382,0.9308,0.9189,0.9189,0.9076,0.8899,0.8899,0.8899,0.8899,0.0,0.0,0.0,0.0,0.0,0.0,0.0,0.0,0.0,0.0,0.0,0.0,0.0,0.0,0.0,0.0,0.0,0.0,0.0,1.1545,1.2846,1.4049,1.4104,1.4099,1.4099,1.4098,1.4658,0.0,0.0,0.0,0.0,0.0,0.0,0.0,0.0,0.0,0.0,0.0,0.0,0.0,0.0,0.0,1.4597,1.2717,1.2128,1.2002,0.0,0.0,0.0,0.0,0.7095,0.7239,0.8039,0.0,0.0,0.7406,0.8168,0.9099,0.9565,0.0,1.0241,1.1508,1.1223,1.1092,1.2825,1.2885,1.288,1.3943,1.4244,1.4511,1.5183,1.5904,1.6528,1.6956,1.7287,1.7468,1.7468,1.7535,1.7669,1.7836,1.7956,0.0,0.0,0.0,0.0,1.8744,1.8764,1.8865,1.9087,1.91,1.9133,1.9233,1.8709,1.8473,1.8583,1.8017,1.772,1.772,1.765,1.6787,1.5203,1.3585,1.2224,1.1075,0.9994,0.9487,0.9396,0.9396,0.9379,0.9332,0.9332,0.924,0.9097,0.9097,0.9022,0.8899,0.0,0.0,0.0,0.0,0.0,0.0,0.0,0.0,0.0,0.0,0.0,0.0,0.0,0.0,0.0,0.0,0.0,0.0,0.0,0.0,1.2837,1.4048,1.4101,1.41,1.4103,1.4099,1.4462,1.5192,1.5188,0.0,0.0,0.0,0.0,0.0,0.0,0.0,0.0,0.0,0.0,0.0,0.0,0.0,1.3704,1.2137,1.1352,0.0,0.0,0.0,0.0,0.0,0.7095,0.7249,0.81,0.7956,0.7597,0.8201,0.8719,0.93,1.0276,1.0278,1.0423,1.2176,1.1641,1.1238,1.3416,1.3223,1.2944,1.4066,1.4757,1.5264,1.56,1.6574,1.734,1.734,1.7488,1.7595,1.7595,1.7675,1.7809,1.7982,1.8189,0.0,0.0,0.0,0.0,1.9072,1.9085,1.9165,1.9388,1.9395,1.9395,1.9395,1.9395,1.9395,1.9395,1.9395,1.9395,1.9395,1.8823,1.8002,1.6953,1.5326,1.399,1.2873,1.1836,1.101,1.0399,1.0399,1.0032,0.9477,0.9477,0.9382,0.9278,0.9278,0.9154,0.8994,0.0,0.0,0.0,0.0,0.0,0.0,0.0,0.0,0.0,0.0,0.0,0.0,0.0,0.0,0.0,0.0,0.0,0.0,0.0,0.0,0.0,1.3951,1.4075,1.4107,1.4104,1.4097,1.3975,1.3739,1.3986,1.4656,0.0,0.0,0.0,0.0,0.0,0.0,0.0,0.0,0.0,0.0,0.0,0.0,1.223,1.1324,0.0,0.0,0.0,0.0,0.0,0.0,0.0,0.0,0.0,0.7654,0.8071,0.9418,0.8956,0.8559,1.1113,1.0925,1.0607,1.3163,1.2788,1.2164,1.3578,1.3902,1.3997,1.4324,1.5631,1.68,0.0,0.0,1.7595,1.7595,1.7595,1.7595,1.7595,1.7822,1.8016,0.0,0.0,0.0,0.0,0.0,0.0,1.9395,0.0,1.9395,1.9395,1.9395,1.9395,1.9395,1.9395,1.9395,1.9395,1.9395,1.9395,1.938,1.785,1.7085,1.6953,1.5415,1.4678,1.4604,1.4604,1.3725,1.2318,1.2228,1.1228,0.9723,0.9648,0.9527,0.9409,0.9409,0.9325,0.9189,0.0,0.0,0.0,0.0,0.0,0.0,0.0,0.0,0.0,0.0,0.0,0.0,0.0,0.0,0.0,0.0,0.0,0.0,0.0,0.0,0.0,0.0,0.0,0.0,0.0,0.0,0.0,0.0,0.0,1.4247,1.4531,0.0,0.0,0.0,0.0,0.0,0.0,0.0,0.0,0.0,0.0,0.0,1.1285,0.0,0.0,0.0,0.0,0.0,0.0,0.0,0.0,0.0,0.0,0.9864,1.0555,1.0089,1.0385,1.0795,1.0545,1.0256,1.0386,1.2006,1.1446,1.108,1.338,1.3902,1.4256,1.5529,1.6283,1.68,0.0,0.0,0.0,1.7595,1.7595,0.0,1.7595,1.7822,0.0,0.0,0.0,1.8997,1.9246,1.9354,0.0,0.0,1.9395,1.9395,1.9395,1.9395,1.9395,1.9395,1.9395,1.9395,1.9395,1.9395,1.9395,1.9395,1.8975,1.8163,1.6997,1.658,1.5725,1.4604,1.4604,1.4366,1.3904,1.2693,1.1937,1.142,1.0213,0.9665,0.9551,0.9551,0.947,0.9345,0.0,0.0,0.0,0.0,0.0,0.0,0.0,0.0,0.0,0.0,0.0,0.0,0.0,0.0,0.0,0.0,0.0,0.0,0.0,0.0,0.0,0.0,0.0,0.0,0.0,0.0,0.0,0.0,0.0,0.0,0.0,1.1036,1.1031,1.1031,0.0,0.0,0.0,0.0,0.0,0.0,0.0,0.0,0.0,0.0,0.0,0.0,0.0,0.0,0.0,0.0,0.0,0.9556,0.9742,1.0333,1.0942,1.0857,0.0,1.0153,1.0035,0.9998,1.0317,1.158,1.1811,1.2244,1.4268,1.4728,1.5032,1.6084,1.6412,0.0,0.0,0.0,0.0,0.0,0.0,0.0,1.7595,1.7963,1.829,0.0,1.8879,0.0,1.9381,1.9395,1.9395,0.0,1.9395,1.9395,1.9395,1.9395,1.9395,1.9395,1.9395,1.9395,1.9395,1.9395,1.9395,1.9395,1.9395,1.8931,1.8046,1.8046,1.7557,1.6715,0.0,1.6312,1.5577,1.4683,1.3895,1.3097,1.1483,1.0816,1.0662,0.9955,0.9608,0.9483,0.0,0.0,0.0,0.0,0.0,0.0,0.0,0.0,0.0,0.0,0.0,0.0,0.0,0.0,0.0,0.0,0.0,0.0,0.0,0.0,0.0,0.0,0.0,0.0,0.0,0.0,0.0,0.0,0.0,0.0,0.0,0.0,0.0,0.0,0.0,0.0,0.0,0.0,0.0,0.0,0.0,0.0,0.0,0.0,0.0,0.0,0.0,0.0,0.0,0.0,0.9917,1.0061,1.0067,1.0274,1.0668,1.1434,1.0047,0.8482,0.9472,0.9862,1.0317,1.158,1.2915,1.4226,1.551,1.5808,1.5881,1.6171,0.0,1.6247,1.6947,1.7005,1.7073,1.7482,0.0,1.7595,1.7595,1.8117,1.8504,1.8504,1.9026,1.9395,1.9395,1.9395,1.9395,1.9395,1.9395,1.9395,1.9395,1.9395,1.9395,1.9395,1.9395,1.9395,1.9395,1.9395,1.9395,1.9395,1.9395,1.9395,1.9395,1.9395,1.9395,1.9395,0.0,0.0,1.7296,1.7085,1.6182,1.4733,1.2918,1.2198,1.2006,1.0388,0.9729,0.9624,0.0,0.0,0.0,0.0,0.0,0.0,0.0,0.0,0.0,0.0,0.0,0.0,0.0,0.0,0.0,0.0,0.0,0.0,0.0,0.0,0.0,0.0,0.0,0.0,0.0,0.0,0.0,0.0,0.0,0.0,0.0,0.0,0.0,0.0,0.0,0.0,0.0,0.0,0.0,0.0,0.0,0.0,0.0,0.0,0.0,0.0,0.0,0.0,0.0,0.0,1.0497,1.1393,1.1503,1.2309,1.2837,1.0896,1.001,0.946,0.859,0.9155,1.0317,1.158,1.2915,1.4226,1.551,1.5808,0.0,0.0,0.0,1.5023,1.6227,1.5961,0.0,1.7085,0.0,0.0,0.0,0.0,1.8504,0.0,0.0,0.0,0.0,0.0,0.0,0.0,0.0,0.0,1.9395,1.9395,1.9395,1.9395,1.9395,1.9395,1.9395,1.9395,1.9395,1.9395,1.9395,1.9395,1.9395,1.9395,1.9395,1.9395,0.0,0.0,1.8887,1.7551,1.6835,1.6285,1.3343,1.2198,1.2006,1.0388,0.979,0.977,0.0,0.0,0.0,0.0,0.0,0.0,0.0,0.0,0.0,0.0,0.5404,0.5403,0.0,0.0,0.0,0.0,0.0,0.0,0.0,0.0,0.0,0.0,0.0,0.0,0.0,0.0,0.0,0.0,0.0,0.0,0.0,0.0,0.0,0.0,0.0,0.0,0.0,0.0,0.0,0.0,0.0,0.0,0.0,0.0,0.0,0.0,0.0,0.0,0.0,0.0,1.0306,1.0936,1.1667,1.2346,1.2474,1.0558,0.9509,0.8825,0.8175,0.946,1.1146,1.175,1.3409,1.5045,1.5659,0.0,0.0,0.0,0.0,1.4333,1.5108,0.0,0.0,0.0,0.0,0.0,0.0,0.0,0.0,0.0,0.0,0.0,0.0,0.0,0.0,0.0,0.0,0.0,1.9395,1.9395,1.9395,1.9395,1.9395,1.9395,1.9395,1.9395,1.9395,1.9395,1.9395,1.9395,1.9395,1.9395,1.9395,1.9395,0.0,0.0,1.9336,1.8569,1.7762,1.6762,1.4371,1.2948,1.2006,1.0388,0.9807,0.9807,0.0,0.0,0.0,0.0,0.0,0.0,0.0,0.5404,0.5404,0.5404,0.5404,0.5398,0.5402,0.5396,0.0,0.0,0.0,0.0,0.0,0.0,0.0,0.0,0.0,0.0,0.0,0.0,0.0,0.0,0.0,0.0,0.0,0.0,0.0,0.0,0.0,0.0,0.0,0.0,0.0,0.0,0.0,0.0,0.0,0.0,0.0,0.0,0.0,0.0,0.0,0.0,0.9998,1.017,1.1182,1.1487,1.1238,0.9948,0.9031,0.8432,0.8432,1.0337,1.2334,1.2334,1.4076,1.5808,1.5808,1.5588,0.0,0.0,1.3452,1.3303,1.4063,0.0,0.0,0.0,0.0,0.0,0.0,0.0,0.0,0.0,0.0,0.0,0.0,0.0,0.0,0.0,0.0,0.0,0.0,1.9395,1.9395,1.9395,1.9395,1.9395,1.9395,1.9395,1.9395,1.9395,1.9395,1.9395,1.9395,1.9395,1.9395,1.9395,0.0,0.0,0.0,1.9033,1.8148,1.6806,1.4851,1.3302,1.2006,1.0388,0.9807,0.9807,0.0,0.0,0.0,0.0,0.0,0.0,0.0,0.5404,0.5404,0.5404,0.5404,0.54,0.5397,0.54,0.0,0.0,0.0,0.0,0.0,0.0,0.0,0.0,0.0,0.0,0.0,0.0,0.0,0.0,0.0,0.0,0.0,0.0,0.0,0.0,0.0,0.0,0.0,0.0,0.0,0.0,0.0,0.0,0.0,0.0,0.0,0.0,0.0,0.0,0.0,0.0,0.0,1.0022,1.0145,1.017,0.9912,0.8581,0.0,0.0,0.9817,1.1721,1.3722,1.3722,1.477,1.5808,1.5808,0.0,0.0,1.392,1.2008,1.1084,1.3492,0.0,0.0,0.0,0.0,1.7695,0.0,0.0,0.0,0.0,0.0,0.0,0.0,0.0,0.0,0.0,0.0,0.0,0.0,1.9395,1.9395,1.9395,1.9395,1.9395,1.9395,1.9395,1.9395,1.9395,1.9395,1.9395,1.9395,1.9395,1.9395,1.9395,0.0,0.0,0.0,1.782,1.7129,1.6697,1.3626,1.2333,1.2006,1.0388,0.9807,0.9807,0.0,0.0,0.0,0.0,0.0,0.0,0.0,0.5404,0.5404,0.5404,0.5404,0.5404,0.5404,0.5403,0.5398,0.0,0.0,0.0,0.0,0.0,0.0,0.0,0.0,0.0,0.0,0.0,0.0,0.0,0.0,0.0,0.0,0.0,0.0,0.0,0.0,0.0,0.0,0.0,0.0,0.0,0.0,0.0,0.0,0.0,0.0,0.0,0.0,0.0,0.0,0.0,0.0,0.0,0.88,0.88,0.0,0.0,0.8945,0.9998,0.9998,1.1916,1.3902,1.3902,1.4866,1.5808,1.5808,0.0,1.3668,1.2861,1.1263,1.0546,1.2365,0.0,0.0,0.0,0.0,0.0,0.0,0.0,0.0,0.0,0.0,0.0,0.0,0.0,0.0,0.0,0.0,0.0,0.0,1.9395,1.9395,1.9395,1.9395,1.9395,1.9395,1.9395,1.9395,1.9395,1.9395,1.9395,1.9395,1.9395,1.9395,1.9395,0.0,0.0,0.0,1.7653,1.6433,1.5326,1.3078,1.1619,1.0676,1.0046,0.9807,0.9807,0.0,0.0,0.0,0.0,0.0,0.0,0.5404,0.5404,0.5404,0.5404,0.5404,0.5404,0.5404,0.5404,0.5401,0.5397,0.0,0.0,0.0,0.0,0.0,0.0,0.0,0.0,0.0,0.0,0.0,0.0,0.0,0.0,0.0,0.0,0.0,0.0,0.0,0.0,0.0,0.0,0.0,0.0,0.0,0.0,0.0,0.0,0.0,0.0,0.0,0.0,0.0,0.0,0.0,0.0,0.0,0.0,0.0,0.0,0.9213,1.0558,1.0558,1.2474,1.4364,1.3986,1.4866,1.56,0.0,1.3956,1.2933,1.1604,1.0313,0.9805,1.1097,1.2146,0.0,0.0,0.0,1.7735,0.0,0.0,0.0,0.0,0.0,0.0,0.0,0.0,0.0,0.0,0.0,0.0,0.0,0.0,1.9395,1.9395,1.9395,1.9395,1.9395,1.9395,1.9395,1.9395,1.9395,1.9395,1.9395,1.9395,1.9395,0.0,0.0,0.0,0.0,1.6644,1.5187,1.4396,1.2303,1.0793,0.9807,0.9807,0.9807,0.9807,0.0,0.0,0.0,0.0,0.0,0.0,0.0,0.5404,0.5404,0.5404,0.5404,0.5404,0.5404,0.5404,0.5401,0.5397,0.0,0.0,0.0,0.0,0.0,0.0,0.0,0.0,0.0,0.0,0.0,0.0,0.0,0.0,0.0,0.0,0.0,0.0,0.0,0.0,0.0,0.0,0.0,0.0,0.0,0.0,0.7095,0.0,0.0,0.0,0.0,0.0,0.0,0.0,0.0,0.0,0.0,0.8001,0.8001,0.0,0.9838,1.1877,1.1877,1.3788,1.5486,1.4202,1.4866,1.5123,0.0,1.1933,1.1556,1.028,0.8957,0.8432,0.978,1.1543,1.3248,1.4591,1.6374,0.0,0.0,0.0,0.0,0.0,0.0,0.0,0.0,0.0,0.0,0.0,0.0,0.0,0.0,0.0,1.9395,1.9395,1.9395,1.9395,1.9395,1.9395,1.9395,1.9395,1.9395,1.9395,1.9395,1.9395,0.0,0.0,0.0,0.0,0.0,1.4237,1.3183,1.4277,1.108,0.9822,0.9807,0.9807,0.9807,0.9807,0.0,0.0,0.0,0.0,0.0,0.0,0.0,0.5404,0.5404,0.5404,0.5404,0.5404,0.5404,0.5404,0.5401,0.5397,0.0,0.0,0.0,0.0,0.0,0.0,0.0,0.0,0.0,0.0,0.0,0.0,0.0,0.0,0.0,0.0,0.0,0.0,0.0,0.0,0.0,0.0,0.0,0.0,0.0,0.7095,0.7095,0.0,0.0,0.0,0.0,0.0,0.0,0.0,0.0,0.0,0.0,0.0,0.0,0.8001,0.9242,1.0595,1.0595,1.1848,1.3036,1.2631,1.2842,1.2915,1.2091,1.1231,1.0485,1.0084,0.8936,0.8676,1.0889,1.2121,1.3516,1.5739,1.6943,0.0,0.0,0.0,0.0,0.0,0.0,0.0,0.0,0.0,0.0,0.0,0.0,0.0,0.0,0.0,1.9395,1.9395,1.9395,1.9395,1.9395,1.9395,1.9395,1.9395,1.9395,1.9395,1.9395,1.9395,0.0,0.0,0.0,0.0,0.0,1.5375,1.4138,1.4277,1.1065,0.9807,0.9807,0.9807,0.9807,0.9807,0.0,0.0,0.0,0.0,0.0,0.0,0.0,0.5404,0.5404,0.5404,0.5404,0.5404,0.5404,0.5404,0.5401,0.5397,0.0,0.0,0.0,0.0,0.0,0.0,0.0,0.0,0.0,0.0,0.0,0.0,0.0,0.0,0.0,0.0,0.0,0.0,0.0,0.0,0.0,0.0,0.0,0.0,0.7095,0.7095,0.7095,0.0,0.0,0.0,0.0,0.0,0.0,0.0,0.0,0.0,0.0,0.0,0.0,0.0,0.859,0.9349,0.0,1.0925,1.1775,1.1304,1.1543,0.0,1.0656,1.0207,0.9854,0.9349,0.8577,0.8682,1.0924,1.2138,1.3536,1.577,1.7036,0.0,0.0,0.0,0.0,0.0,0.0,0.0,0.0,0.0,0.0,0.0,0.0,0.0,0.0,0.0,1.9395,1.9395,1.9395,1.9395,1.9395,1.9395,1.9395,1.9395,1.9395,1.9395,1.9395,0.0,0.0,0.0,0.0,0.0,0.0,1.5015,1.3695,1.3437,1.0827,0.9807,0.9807,0.9807,0.9807,0.9807,0.0,0.0,0.0,0.0,0.0,0.0,0.0,0.0,0.0,0.0,0.5404,0.5404,0.5404,0.5397,0.5403,0.0,0.0,0.0,0.0,0.0,0.0,0.0,0.0,0.0,0.0,0.0,0.0,0.0,0.6298,0.6295,0.6382,0.0,0.0,0.0,0.0,0.0,0.0,0.0,0.0,0.0,0.7095,0.7095,0.0,0.0,0.0,0.0,0.0,0.0,0.0,0.0,0.0,0.0,0.0,0.0,0.0,0.0,0.0,0.0,0.0,1.0717,0.0,0.0,0.0,0.0,0.8552,0.8957,0.0,0.8262,0.8001,0.8516,1.0226,1.1782,1.3366,1.5077,1.6847,0.0,0.0,0.0,0.0,0.0,0.0,0.0,0.0,0.0,0.0,0.0,0.0,0.0,0.0,0.0,0.0,1.9395,1.9395,1.9395,1.9395,1.9395,1.9395,1.9395,1.9395,1.9395,1.9395,0.0,0.0,0.0,0.0,0.0,0.0,1.3656,1.2303,1.2037,1.0433,0.9807,0.9807,0.9807,0.9807,0.9807,0.0,0.0,0.0,0.0,0.0,0.0,0.0,0.0,0.0,0.0,0.0,0.5404,0.5404,0.5396,0.0,0.0,0.0,0.0,0.0,0.0,0.0,0.0,0.0,0.0,0.0,0.0,0.0,0.6302,0.6302,0.6302,0.6325,0.7266,0.0,0.0,0.0,0.0,0.0,0.0,0.0,0.0,0.7095,0.7095,0.0,0.0,0.0,0.0,0.7327,0.748,0.0,0.0,0.0,0.0,0.0,0.0,0.0,0.0,0.8001,0.8063,0.8382,0.0,0.8846,0.854,0.8701,0.0,0.0,0.8249,0.0,0.0,0.0,0.8799,1.1439,1.241,1.3656,1.6298,1.7437,0.0,0.0,0.0,0.0,0.0,0.0,0.0,0.0,0.0,0.0,0.0,0.0,0.0,0.0,0.0,0.0,1.9395,1.9395,1.9395,1.9395,1.9395,1.9395,1.9395,1.9395,1.9395,1.9395,0.0,0.0,0.0,0.0,0.0,0.0,1.4866,1.3302,1.2037,1.0433,0.9807,0.9807,0.9807,0.9807,0.9807,0.0,0.0,0.0,0.0,0.0,0.0,0.0,0.0,0.0,0.0,0.0,0.0,0.0,0.0,0.0,0.0,0.0,0.0,0.0,0.0,0.0,0.0,0.0,0.0,0.0,0.0,0.0,0.0,0.0,0.63,0.0,0.0,0.0,0.0,0.0,0.0,0.0,0.0,0.0,0.715,0.7698,0.0,0.0,0.0,0.0,0.0,0.7432,0.7585,0.0,0.7841,0.7946,0.8001,0.0,0.0,0.0,0.0,0.8001,0.8001,0.8001,0.8001,0.8001,0.8001,0.8001,0.8001,0.8001,0.0,0.0,0.0,0.0,0.9052,1.2036,1.2748,0.0,0.0,0.0,0.0,0.0,0.0,0.0,0.0,0.0,0.0,0.0,0.0,0.0,0.0,0.0,0.0,0.0,0.0,0.0,0.0,1.9395,1.9395,1.9395,1.9395,1.9395,1.9395,1.9395,1.9395,1.9395,0.0,0.0,0.0,0.0,0.0,1.5769,1.4168,1.2543,1.1004,1.0134,0.9807,0.9807,0.9807,0.9807,0.9807,0.0,0.0,0.0,0.0,0.0,0.0,0.0,0.0,0.0,0.0,0.0,0.0,0.0,0.0,0.0,0.0,0.0,0.0,0.0,0.0,0.0,0.0,0.0,0.0,0.0,0.0,0.0,0.0,0.0,0.0,0.0,0.0,0.0,0.0,0.0,0.0,0.0,0.0,0.0,0.7205,0.8408,0.0,0.0,0.0,0.0,0.0,0.0,0.0,0.0,0.795,0.8001,0.8001,0.8001,0.0,0.0,0.0,0.0,0.0,0.8001,0.8001,0.8001,0.8001,0.8001,0.8001,0.0,0.0,0.0,0.0,0.0,0.0,0.0,0.0,0.0,0.0,0.0,0.0,0.0,0.0,0.0,0.0,0.0,0.0,0.0,0.0,0.0,0.0,0.0,0.0,0.0,0.0,0.0,0.0,1.9395,1.9395,1.9395,1.9395,1.9395,1.9395,1.9395,1.9395,1.9395,1.9395,0.0,0.0,0.0,0.0,1.4485,1.2853,1.1242,0.9807,0.9807,0.9807,0.9807,0.9807,0.9807,0.9807,0.0,0.0,0.0,0.0,0.0,0.0,0.0,0.0,0.0,0.0,0.0,0.0,0.0,0.0,0.0,0.0,0.0,0.0,0.0,0.0,0.0,0.0,0.0,0.0,0.0,0.0,0.0,0.0,0.0,0.0,0.6633,0.6577,0.6668,0.0,0.0,0.0,0.0,0.0,0.0,0.7205,0.8408,0.0,0.0,0.0,0.0,0.0,0.0,0.0,0.0,0.795,0.8001,0.8001,0.8001,0.0,0.0,0.0,0.0,0.0,0.8001,0.8001,0.8001,0.8001,0.8001,0.8001,0.0,0.0,0.0,0.0,0.0,0.0,0.0,0.0,0.0,0.0,0.0,0.0,0.0,0.0,0.0,0.0,0.0,0.0,0.0,0.0,0.0,0.0,0.0,0.0,0.0,0.0,0.0,0.0,0.0,1.9395,1.9395,1.9395,1.9395,1.9395,1.9395,1.9395,1.9395,1.9395,1.9395,0.0,0.0,0.0,1.4485,1.2853,1.1242,0.9807,0.9807,0.9807,0.9807,0.9807,0.9807,0.9807,0.0,0.0,0.0,0.0,0.0,0.0,0.0,0.0,0.0,0.0,0.0,0.0,0.0,0.0,0.0,0.0,0.0,0.0,0.0,0.0,0.0,0.0,0.0,0.0,0.0,0.0,0.0,0.0,0.0,0.9202,0.6702,0.6747,0.6845,0.7012,0.0,0.0,0.0,0.0,0.0,0.8178,0.0,0.0,0.0,0.0,0.0,0.0,0.0,0.0,0.0,0.0,0.8001,0.8001,0.8001,0.0,0.0,0.0,0.0,0.0,0.8001,0.8001,0.8001,0.8001,0.8001,0.0,0.0,0.0,0.0,0.0,0.0,0.0,0.0,0.0,0.0,0.0,0.0,0.0,0.0,0.0,0.0,0.0,0.0,0.0,0.0,0.0,0.0,0.0,0.0,0.0,0.0,0.0,0.0,0.0,0.0,0.0,1.9395,1.9395,1.9395,1.9395,1.9395,1.9395,1.9395,1.9395,1.9395,0.0,0.0,1.5281,1.4411,1.1931,1.0464,0.9807,0.9807,0.9807,0.9807,0.9807,0.9807,0.9807,0.0,0.0,0.0,0.0,0.0,0.0,0.0,0.0,0.0,0.0,0.0,0.0,0.0,0.0,0.0,0.0,0.0,0.0,0.0,0.0,0.0,0.0,0.0,0.0,0.0,0.0,0.0,0.63,1.0372,1.0439,0.6753,0.6886,0.7005,0.0,0.0,0.0,0.0,0.0,0.0,0.861,0.0,0.0,0.0,0.0,0.0,0.0,0.0,0.0,0.0,0.0,0.0,0.0,0.0,0.0,0.0,0.8001,0.8001,0.8001,0.8001,0.8001,0.8001,0.8001,0.0,0.0,0.0,0.0,0.0,0.0,0.0,0.0,0.0,0.0,0.0,0.0,0.0,0.0,0.0,0.0,0.0,0.0,0.0,0.0,0.0,0.0,0.0,0.0,0.0,0.0,0.0,0.0,0.0,0.0,0.0,0.0,1.9395,1.9395,1.9395,1.9395,1.9395,1.9395,1.9395,1.9395,1.9185,1.8677,1.5834,1.4396,1.3815,1.0974,0.9807,0.9807,0.9807,0.9807,0.9807,0.9807,0.9807,0.9807,0.0,0.0,0.0,0.0,0.0,0.0,0.0,0.0,0.0,0.0,0.0,0.0,0.0,0.0,0.0,0.0,0.0,0.0,0.0,0.0,0.0,0.0,0.0,0.0,0.0,0.63,0.63,0.63,0.6932,0.7112,0.6888,0.7022,0.7096,0.7095,0.0,0.0,0.0,0.0,0.0,0.0,0.9824,0.0,0.0,0.0,0.0,0.0,0.0,0.0,0.0,0.0,0.0,0.0,0.0,0.0,0.8001,0.8001,0.8001,0.8001,0.8001,0.8001,0.8001,0.8001,0.0,0.0,0.0,0.0,0.0,0.0,0.0,0.0,0.0,0.0,0.0,0.0,0.0,0.0,0.0,0.0,0.0,0.0,0.0,0.0,0.0,0.0,0.0,0.0,0.0,0.0,0.0,0.0,0.0,0.0,0.0,0.0,1.9395,1.9395,1.9395,1.9395,1.9395,1.9395,1.9395,1.9395,1.8583,1.7085,1.5355,1.375,1.2243,1.0509,0.9807,0.9807,0.9807,0.9807,0.9807,0.9807,0.9807,0.9807,0.0,0.0,0.0,0.0,0.0,0.0,0.0,0.0,0.0,0.0,0.0,0.0,0.0,0.0,0.0,0.0,0.0,0.0,0.0,0.0,0.0,0.0,0.0,0.63,0.63,0.63,0.6305,0.6301,0.6733,0.7359,0.8132,0.7431,0.0,0.0,0.0,0.0,0.0,0.0,0.0,0.0,0.9654,0.933,0.0,0.0,0.0,0.0,0.0,0.0,0.0,0.0,0.8001,0.8001,0.8001,0.8001,0.8001,0.8001,0.8001,0.8001,0.8001,0.8001,0.8001,0.8001,0.0,0.0,0.0,0.0,0.0,0.0,0.0,0.0,0.0,0.0,0.0,0.0,0.0,0.0,0.0,0.0,0.0,0.0,0.0,0.0,0.0,0.0,0.0,0.0,0.0,0.0,0.0,0.0,0.0,0.0,0.0,0.0,0.0,1.9395,1.9395,1.9395,1.9395,1.9395,1.9395,1.9395,1.8525,1.6909,1.5296,1.3695,1.2082,1.0464,0.9807,0.9807,0.9807,0.9807,0.9807,0.9807,0.9807,0.9807,0.0,0.0,0.0,0.0,0.0,0.0,0.0,0.0,0.0,0.0,0.0,0.0,0.0,0.0,0.0,0.0,0.0,0.0,0.0,0.0,0.0,0.0,0.0,0.6301,0.6306,0.6296,0.6386,0.6555,0.6919,0.7523,0.831,0.0,0.0,0.0,0.0,0.0,0.0,0.0,0.0,0.0,0.0,0.9116,0.0,0.0,0.0,0.0,0.0,0.0,0.0,0.0,0.8001,0.8001,0.8001,0.8001,0.8001,0.8001,0.8001,0.8001,0.8001,0.8001,0.8014,0.0,0.0,0.0,0.0,0.0,0.0,0.0,0.0,0.0,0.0,0.0,0.0,0.0,0.0,0.0,0.0,0.0,0.0,0.0,0.0,0.0,0.0,0.0,0.0,0.0,0.0,0.0,0.0,0.0,0.0,0.0,0.0,0.0,0.0,1.9395,1.9395,1.9395,1.9395,1.9395,1.9395,1.9395,1.8242,1.6182,1.5074,1.3392,1.1363,1.0255,0.9807,0.9807,0.9807,0.9807,0.9807,0.9807,0.9807,0.9807,0.0,0.0,0.0,0.0,0.0,0.0,0.0,0.0,0.0,0.0,0.0,0.0,0.0,0.0,0.0,0.0,0.0,0.0,0.0,0.0,0.0,0.0,0.0,0.6296,0.6304,0.6311,0.6568,0.7097,0.7094,0.7104,0.7095,0.7095,0.0,0.0,0.0,0.0,0.0,0.0,0.0,0.0,0.0,0.8804,0.7819,0.0,0.0,0.0,0.0,0.0,0.0,0.0,0.8001,0.8001,0.8001,0.8001,0.8001,0.8001,0.8001,0.8001,0.8001,0.8001,0.805,0.0,0.0,0.0,0.0,0.0,0.0,0.0,0.0,0.0,0.0,0.0,0.0,0.0,0.0,0.0,0.0,0.0,0.0,0.0,0.0,0.0,0.0,0.0,0.0,0.0,0.0,0.0,0.0,0.0,0.0,0.0,0.0,0.0,0.0,1.9395,1.9395,1.9395,1.9395,1.9395,1.9395,1.938,1.7636,1.4604,1.4589,1.2768,0.9807,0.9807,0.9807,0.9807,0.9807,0.9807,0.9807,0.9807,0.9807,0.9807,0.0,0.0,0.0,0.0,0.0,0.0,0.0,0.0,0.0,0.0,0.0,0.0,0.0,0.0,0.0,0.0,0.0,0.0,0.0,0.0,0.0,0.0,0.0,0.0,0.0,0.0,0.6944,0.7098,0.7095,0.7102,0.0,0.0,0.0,0.7676,0.0,0.0,0.0,0.0,0.0,0.0,0.8454,0.8152,0.794,0.0,0.0,0.0,0.0,0.0,0.0,0.0,0.0,0.0,0.8001,0.8001,0.8001,0.8001,0.8001,0.8001,0.8001,0.8001,0.0,0.0,0.0,0.0,0.0,0.0,0.0,0.0,0.0,0.0,0.0,0.0,0.0,0.0,0.0,0.0,0.0,0.0,0.0,0.0,0.0,0.0,0.0,0.0,0.0,0.0,0.0,0.0,0.0,0.0,0.0,0.0,0.0,0.0,0.0,0.0,1.9395,1.9395,1.9395,1.9395,1.9366,1.8221,1.6571,1.4545,1.3392,1.1736,0.9807,0.9807,0.9807,0.9807,0.9807,0.9807,0.9807,0.9807,0.9807,0.9807,0.0,0.0,0.0,0.0,0.0,0.0,0.0,0.0,0.0,0.0,0.0,0.0,0.0,0.0,0.0,0.0,0.0,0.0,0.0,0.0,0.0,0.0,0.0,0.0,0.0,0.6934,0.7104,0.0,0.0,0.0,0.0,0.0,0.0,0.7856,0.0,0.9022,0.0,0.0,0.0,0.8771,0.8131,0.8248,0.8738,0.0,0.0,0.0,0.0,0.0,0.0,0.0,0.0,0.0,0.8001,0.8001,0.8001,0.8001,0.8001,0.8001,0.8001,0.8057,0.0,0.0,0.0,0.0,0.0,0.0,0.0,0.0,0.0,0.0,0.0,0.0,0.0,0.0,0.0,0.0,0.0,0.0,0.0,0.0,0.0,0.0,0.0,0.0,0.0,0.0,0.0,0.0,0.0,0.0,0.0,0.0,0.0,0.0,0.0,0.0,0.0,1.8452,1.8452,1.811,1.7484,1.7149,1.5764,1.3556,1.1946,1.0706,0.9807,0.9807,0.9807,0.9807,0.9807,0.9807,0.9807,0.9807,0.9807,0.9807,0.0,0.0,0.0,0.0,0.0,0.0,0.0,0.0,0.0,0.0,0.0,0.0,0.0,0.0,0.0,0.0,0.0,0.0,0.0,0.0,0.0,0.0,0.0,0.0,0.0,0.0,0.0,0.0,0.0,0.0,0.0,0.0,0.7694,0.877,0.0,0.8959,0.0,0.9245,0.8823,0.8011,0.8128,0.8982,1.0035,0.8689,0.0,0.0,0.0,0.0,0.0,0.0,0.0,0.0,0.8001,0.8001,0.8001,0.8001,0.8088,0.8162,0.8038,0.0,0.0,0.0,0.0,0.0,0.0,0.0,0.0,0.0,0.0,0.0,0.0,0.0,0.0,0.0,0.0,0.0,0.0,0.0,0.0,0.0,0.0,0.0,0.0,0.0,0.0,0.0,0.0,0.0,0.0,0.0,0.0,0.0,0.0,0.0,0.0,0.0,0.0,0.0,1.707,1.6153,1.4634,1.5961,1.4886,1.1901,1.0433,0.9807,0.9807,0.9807,0.9807,0.9807,0.9807,0.9807,0.9807,0.9807,0.9807,0.9807,0.0,0.0,0.0,0.0,0.0,0.0,0.0,0.0,0.0,0.0,0.0,0.0,0.0,0.0,0.0,0.0,0.0,0.0,0.0,0.0,0.0,0.0,0.0,0.0,0.0,0.0,0.0,0.0,0.0,0.0,0.0,0.0,0.0,0.7726,0.0,0.7886,0.8082,0.8141,0.8686,0.9526,0.9555,1.0342,1.1348,1.0059,0.9752,0.0,0.0,0.0,0.0,0.0,0.0,0.0,0.8001,0.8001,0.8001,0.8001,0.8751,0.9336,0.8283,0.8878,0.0,0.0,0.0,0.0,0.0,0.0,0.0,0.0,0.0,0.0,0.0,0.0,0.0,0.0,0.0,0.0,0.0,0.0,0.0,0.0,0.0,0.0,0.0,0.0,0.0,0.0,0.0,0.0,0.0,0.0,0.0,0.0,0.0,0.0,1.9395,1.9395,1.9228,0.0,1.7595,1.6153,1.4574,1.3646,1.2168,1.0301,0.9955,0.9807,0.9807,0.9807,0.9807,0.9807,0.9807,0.9807,0.9807,0.9807,0.9807,0.9807,0.0,0.0,0.0,0.0,0.0,0.0,0.0,0.0,0.0,0.0,0.0,0.0,0.0,0.0,0.0,0.0,0.0,0.0,0.0,0.0,0.0,0.0,0.0,0.0,0.0,0.0,0.0,0.0,0.0,0.0,0.0,0.0,0.0,0.7403,0.0,0.8029,0.8759,0.8827,0.9653,1.0913,1.0913,1.1317,1.1768,1.0485,0.9998,0.9825,0.8482,0.0,0.0,0.0,0.0,0.0,0.0,0.0,0.8001,0.8001,0.8494,0.8887,0.8187,0.0,0.0,0.0,0.0,0.0,0.0,0.0,0.0,0.0,0.0,0.0,0.0,0.0,0.0,0.0,0.0,0.0,0.0,0.0,0.0,0.0,0.0,0.0,0.0,0.0,0.0,0.0,0.0,0.0,0.0,0.0,0.0,0.0,0.0,0.0,1.9395,1.8642,1.8256,1.8221,1.5838,1.3865,1.2273,1.1438,1.0585,0.9807,0.9807,0.9807,0.9807,0.9807,0.9807,0.9807,0.9807,0.9807,0.9807,0.9807,0.9807,0.9807,0.0,0.0,0.0,0.0,0.0,0.0,0.0,0.0,0.0,0.0,0.0,0.0,0.0,0.0,0.0,0.0,0.0,0.0,0.0,0.0,0.0,0.0,0.0,0.0,0.0,0.0,0.0,0.0,0.0,0.0,0.0,0.0,0.0,0.7481,0.0,0.0,0.9846,0.9954,1.0877,1.2237,1.1994,1.2042,1.2079,1.057,0.9998,0.9825,0.8482,0.8001,0.8001,0.8001,0.0,0.0,0.0,0.0,0.8001,0.8001,0.8162,0.8299,0.8063,0.0,0.0,0.0,0.0,0.0,0.0,0.0,0.0,0.0,0.0,0.0,0.0,0.0,0.0,0.0,0.0,0.0,0.0,0.0,0.0,0.0,0.0,0.0,0.0,0.0,0.0,0.0,0.0,0.0,0.0,0.0,0.0,0.0,0.0,1.9272,1.8989,1.7668,1.6997,1.6968,1.3746,1.1363,0.9807,0.9807,0.9807,0.9807,0.9807,0.9807,0.9807,0.9807,0.9807,0.9807,0.9807,0.9807,0.9807,0.9807,0.9807,0.9807,0.0,0.0,0.0,0.0,0.0,0.0,0.0,0.0,0.0,0.0,0.0,0.0,0.0,0.0,0.0,0.0,0.0,0.0,0.0,0.0,0.0,0.0,0.0,0.0,0.0,0.0,0.0,0.0,0.0,0.0,0.0,0.0,0.0,0.7741,0.0,0.0,0.0,0.9989,1.1409,1.3524,1.237,1.26,1.3368,1.0933,0.0,0.0,0.0,0.8001,0.8001,0.8001,0.8001,0.0,0.0,0.0,0.8001,0.8001,0.8821,0.9484,0.0,0.0,0.0,0.0,0.0,0.0,0.0,0.0,0.0,0.0,0.0,0.0,0.0,0.0,0.0,0.0,0.0,0.0,0.0,0.0,0.0,0.0,0.0,0.0,0.0,0.0,0.0,0.0,0.0,0.0,0.0,0.0,1.8765,1.7355,1.8671,0.0,1.7325,1.7114,1.6997,1.6968,1.3746,1.1363,0.9807,0.9807,0.9807,0.9807,0.9807,0.9807,0.9807,0.9807,0.9807,0.9807,0.9807,0.9807,0.9807,0.9807,0.9807,0.9807,0.0,0.0,0.0,0.0,0.0,0.0,0.0,0.0,0.0,0.0,0.0,0.0,0.0,0.0,0.0,0.0,0.0,0.0,0.0,0.0,0.0,0.0,0.0,0.0,0.0,0.0,0.0,0.0,0.0,0.0,0.0,0.7592,0.7685,0.0,0.0,0.0,0.0,0.0,1.2159,1.3914,1.404,1.356,1.2745,0.0,0.0,0.0,0.0,0.0,0.0,0.8001,0.8001,0.8001,0.8001,0.0,0.0,0.0,0.842,0.0,0.8394,0.0,0.0,0.0,0.0,0.0,0.0,0.0,0.0,0.0,0.0,0.0,0.0,0.0,0.0,0.0,0.0,0.0,0.0,0.0,0.0,0.0,0.0,0.0,0.0,0.0,0.0,0.0,0.0,0.0,0.0,1.806,1.7317,1.571,1.6341,0.0,1.5666,1.4757,1.386,1.2969,1.2449,1.1363,0.9807,0.9807,0.9807,0.9807,0.9807,0.9807,0.9807,0.9807,0.9807,0.9807,0.9807,0.9807,0.9807,0.9807,0.9807,0.9807,0.0,0.0,0.0,0.0,0.0,0.0,0.0,0.0,0.0,0.0,0.0,0.0,0.0,0.0,0.0,0.0,0.0,0.0,0.0,0.0,0.0,0.0,0.0,0.0,0.0,0.0,0.0,0.0,0.0,0.0,0.7655,0.8135,0.836,0.0,0.8461,0.0,0.0,0.0,0.0,0.0,0.0,1.3836,0.0,0.0,0.0,0.0,0.0,0.0,0.0,0.0,0.0,0.0,0.0,0.0,0.0,0.0,0.0,0.0,0.0,0.0,0.0,0.0,0.0,0.0,0.0,0.0,0.0,0.0,0.0,0.0,0.0,0.0,0.0,0.0,0.0,0.0,0.0,0.0,0.0,0.0,0.0,0.0,0.0,0.0,0.0,0.0,0.0,0.0,1.7085,1.6997,1.6079,1.4048,1.4396,1.4396,1.3989,1.2798,1.1393,0.9822,1.102,1.0959,0.9807,0.9807,0.9807,0.9807,0.9807,0.9807,0.9807,0.9807,0.9807,0.9807,0.9807,0.9807,0.9807,0.9807,0.9807,0.9807,0.0,0.0,0.0,0.0,0.0,0.0,0.0,0.0,0.0,0.0,0.0,0.0,0.0,0.0,0.0,0.0,0.0,0.0,0.0,0.0,0.0,0.0,0.0,0.0,0.0,0.0,0.0,0.0,0.0,0.0,0.7816,0.9229,0.9887,0.9887,0.9899,1.1344,1.371,0.0,0.0,0.0,0.0,0.0,0.0,0.0,0.0,0.0,0.0,0.0,0.0,0.0,0.0,0.0,0.0,0.0,0.0,0.0,0.0,0.0,0.0,0.0,0.0,0.0,0.0,0.0,0.0,0.0,0.0,0.0,0.0,0.0,0.0,0.0,0.0,0.0,0.0,0.0,0.0,0.0,0.0,0.0,0.0,0.0,0.0,0.0,0.0,0.0,0.0,0.0,1.7085,1.6997,1.5557,1.2423,1.3795,1.387,1.2337,1.2243,1.1393,0.9807,0.9879,0.9879,0.9807,0.9807,0.9807,0.9807,0.9807,0.9807,0.9807,0.9807,0.9807,0.9807,0.9807,0.9807,0.9807,0.9807,0.9807,0.9807,0.0,0.0,0.0,0.0,0.0,0.0,0.0,0.0,0.0,0.0,0.0,0.0,0.0,0.0,0.6298,0.6297,0.6612,0.0,0.0,0.0,0.0,0.0,0.0,0.0,0.0,0.0,0.0,0.0,0.0,0.8599,0.91,0.9718,1.0896,1.2432,1.075,1.097,1.2583,1.2103,0.0,0.0,0.0,0.0,0.0,0.0,0.0,0.0,0.0,0.0,0.0,0.0,0.0,0.0,0.0,0.0,0.0,0.0,0.0,0.0,0.0,0.0,0.0,0.0,0.0,0.0,0.0,0.0,0.0,0.0,0.0,0.0,0.0,0.0,0.0,0.0,0.0,0.0,0.0,0.0,0.0,0.0,0.0,0.0,0.0,0.0,0.0,0.0,0.0,0.0,1.5548,1.4475,1.2928,1.0736,1.1216,1.1242,1.0676,1.066,1.0376,0.9807,0.9807,0.9807,0.9807,0.9807,0.9807,0.9807,0.9807,0.9807,0.9807,0.9807,0.9807,0.9807,0.9807,0.9807,0.9807,0.9807,0.9807,0.9807,0.0,0.0,0.0,0.0,0.0,0.0,0.0,0.0,0.0,0.0,0.0,0.0,0.0,0.0,0.0,0.6568,0.6891,0.7095,0.7103,0.7095,0.0,0.0,0.0,0.0,0.0,0.0,0.0,0.0,0.0,0.0,0.0,1.0605,1.1794,1.38,1.1612,1.1604,0.0,0.0,0.0,1.3277,0.0,0.0,1.3204,0.0,0.0,0.0,0.0,0.0,0.0,0.0,0.0,0.0,0.0,0.0,0.0,0.0,0.0,0.0,0.8241,0.0,0.0,0.0,0.0,0.0,0.0,0.0,0.0,0.0,0.0,0.0,0.0,0.0,0.0,0.0,0.0,0.0,0.0,0.0,0.0,0.0,0.0,0.0,0.0,0.0,0.0,0.0,0.0,0.0,1.4693,1.3063,1.1468,0.9852,0.9807,0.9807,0.9807,0.9807,0.9807,0.9807,0.9807,0.9807,0.9807,0.9807,0.9807,0.9807,0.9807,0.9807,0.9807,0.9807,0.9807,0.9807,0.9807,0.9807,0.9807,0.9807,0.9807,0.9807,0.0,0.0,0.0,0.0,0.0,0.0,0.0,0.0,0.0,0.0,0.0,0.0,0.0,0.0,0.0,0.7097,0.7105,0.7106,0.7095,0.7095,0.0,0.0,0.0,0.0,0.0,0.0,0.0,0.0,0.0,0.0,0.0,0.0,1.2643,0.0,1.254,1.3391,1.5635,0.0,1.3427,1.5528,0.0,1.3506,1.5462,0.0,0.0,0.0,1.1804,1.0987,0.0,0.0,0.0,0.0,0.0,0.0,0.0,0.0,0.0,0.0,0.0,0.0,0.0,0.0,0.0,0.0,0.0,0.0,0.0,0.0,0.0,0.0,0.0,0.0,0.0,0.0,0.0,0.0,0.0,0.0,0.0,0.0,0.0,0.0,0.0,0.0,0.0,0.0,0.0,1.6227,1.4619,1.3008,1.1408,0.9852,0.9807,0.9807,0.9807,0.9807,0.9807,0.9807,0.9807,0.9807,0.9807,0.9807,0.9807,0.9807,0.9807,0.9807,0.9807,0.9807,0.9807,0.9807,0.9807,0.9807,0.9807,0.9807,0.9807,0.9807,0.0,0.0,0.0,0.0,0.0,0.0,0.0,0.0,0.0,0.0,0.0,0.0,0.0,0.0,0.0,0.7096,0.7101,0.7105,0.7106,0.7095,0.7168,0.7313,0.732,0.7825,0.0,0.0,0.0,0.0,0.0,0.0,0.0,0.0,0.0,0.0,1.3512,1.4256,1.5695,1.404,0.0,0.0,1.4633,1.4597,0.0,0.0,0.0,0.0,0.0,0.8846,0.0,0.0,0.9349,0.8494,0.0,0.0,0.0,0.0,0.0,0.0,0.8067,0.0,0.0,0.0,0.0,0.0,0.9135,0.923,0.0,0.0,0.0,0.0,0.0,0.0,0.0,0.0,0.0,0.0,0.0,0.0,0.0,0.0,0.0,0.0,0.0,0.0,0.0,0.0,0.0,1.4554,1.2948,1.1333,1.0255,0.9822,0.9807,0.9807,0.9807,0.9807,0.9807,0.9807,0.9807,0.9807,0.9807,0.9807,0.9807,0.9807,0.9807,0.9807,0.9807,0.9807,0.9807,0.9807,0.9807,0.9807,0.9807,0.9807,0.9807,0.9807,0.0,0.0,0.0,0.0,0.0,0.0,0.0,0.0,0.0,0.0,0.0,0.0,0.0,0.0,0.0,0.0,0.7102,0.7139,0.722,0.7905,0.8301,0.8283,0.881,0.952,0.0,0.0,0.0,0.0,0.0,0.0,0.0,0.0,0.0,0.0,0.0,0.0,0.0,0.0,0.0,0.0,1.4926,0.0,0.0,1.2612,1.1434,0.0,0.0,0.0,0.8871,0.9093,0.8639,0.0,0.0,0.0,0.0,0.0,0.0,0.0,0.0,0.0,0.0,0.0,0.0,0.0,0.9022,0.9138,0.0,0.0,0.0,0.0,0.0,0.0,0.0,0.0,0.0,0.0,0.0,0.0,0.0,0.0,0.0,0.0,0.0,0.0,0.0,0.0,1.451,1.2903,1.1272,1.0316,0.9807,0.9807,0.9807,0.9807,0.9807,0.9807,0.9807,0.9807,0.9807,0.9807,0.9807,0.9807,0.9807,0.9807,0.9807,0.9807,0.9807,0.9807,0.9807,0.9807,0.9807,0.9807,0.9807,0.9807,0.9807,0.9807,0.0,0.0,0.0,0.0,0.0,0.0,0.0,0.0,0.0,0.0,0.0,0.0,0.0,0.0,0.0,0.0,0.7484,0.7592,0.7988,0.9363,1.0044,0.9762,1.0888,1.1577,1.1725,0.0,0.0,0.0,0.0,0.0,0.0,0.0,0.0,0.0,0.0,0.0,0.0,0.0,0.0,1.5695,1.4567,1.4794,0.0,0.0,1.203,0.0,1.046,0.9899,0.9595,0.8407,0.81,0.0,0.0,0.0,0.0,0.0,0.8001,0.0,0.0,0.0,0.0,0.0,0.0,0.0,0.8872,0.9035,0.9176,0.0,0.0,0.0,0.0,0.0,0.0,0.0,0.0,0.0,0.0,0.0,0.0,0.0,0.0,0.0,0.0,0.0,0.0,1.4227,1.2843,1.1318,0.9879,0.9807,0.9807,0.9807,0.9807,0.9807,0.9807,0.9807,0.9807,0.9807,0.9807,0.9807,0.9807,0.9807,0.9807,0.9807,0.9807,0.9807,0.9807,0.9807,0.9807,0.9807,0.9807,0.9807,0.9807,0.9807,0.9807,0.9807,1.2305,0.0,0.0,0.0,0.0,0.0,0.0,0.0,0.0,0.0,0.0,0.0,0.0,0.0,0.0,0.0,0.0,1.0127,1.172,1.1437,1.1233,1.1272,1.1517,1.1718,1.1867,1.1839,0.0,0.0,0.0,0.0,0.0,0.0,0.0,0.0,0.0,0.0,0.0,0.0,0.0,1.5784,1.5534,0.0,1.5635,1.4088,1.2837,1.1726,1.046,0.9299,0.8345,0.0,0.8713,0.9423,0.0,0.0,0.0,0.0,0.0,0.0,0.0,0.0,0.0,0.0,0.0,0.0,0.8848,0.8933,0.9001,0.0,0.0,0.0,0.0,0.0,0.0,0.0,0.0,0.0,0.0,0.0,0.0,0.0,0.0,0.0,0.0,0.0,1.2333,1.2633,1.1186,1.0137,0.9822,0.9807,0.9807,0.9807,0.9807,0.9807,0.9807,0.9807,0.9807,0.9807,0.9807,0.9807,0.9807,0.9807,0.9807,0.9807,0.9807,0.9807,0.9807,0.9807,0.9807,0.9807,0.9807,0.9807,0.9807,0.9807,0.9807,0.9807,1.2746,0.0,0.0,0.0,0.0,0.0,0.0,0.0,0.0,0.0,0.0,0.0,0.0,0.0,0.0,0.0,0.0,0.0,0.0,0.0,1.1658,1.1792,1.2443,1.2831,1.2897,1.3523,1.3854,0.0,0.0,0.0,0.0,0.0,0.0,0.0,0.0,0.0,0.0,0.0,1.5808,1.5808,1.5808,0.0,1.4776,1.4142,1.2708,1.097,1.0328,0.9304,0.8348,0.8987,0.9216,0.0,0.0,0.8153,0.8127,0.0,0.8001,0.8001,0.0,0.0,0.0,0.8421,0.0,0.0,0.0,0.8899,0.8929,0.9032,0.0,0.0,0.0,0.0,0.0,0.0,0.0,0.0,0.0,0.0,0.0,0.0,0.0,0.0,0.0,0.0,1.1004,1.1004,1.0255,0.9807,0.9807,0.9807,0.9807,0.9807,0.9807,0.9807,0.9807,0.9807,0.9807,0.9807,0.9807,0.9807,0.9807,0.9807,0.9807,0.9807,0.9807,0.9807,0.9807,0.9807,0.9807,0.9807,0.9807,0.9807,0.9807,0.9807,0.9807,0.9807,1.3371,0.0,0.0,0.0,0.0,0.0,0.0,0.0,0.0,0.0,0.0,0.0,0.0,0.0,0.0,0.0,0.0,0.0,0.0,0.0,0.0,1.2655,1.3686,1.4154,1.3914,1.4914,1.4926,0.0,0.0,0.0,0.0,0.0,0.0,0.0,0.0,0.0,0.0,0.0,0.0,1.5808,0.0,1.5182,1.4232,1.4015,1.2538,1.0516,1.004,0.928,0.8662,0.9684,0.0,0.8475,0.8372,0.8338,0.0,0.0,0.0,0.0,0.0,0.0,0.0,0.0,0.0,0.8598,0.0,0.0,0.0,0.8899,0.0,0.0,0.0,0.0,0.0,0.0,0.0,0.0,0.0,0.0,0.0,0.0,0.0,0.0,0.0,0.0,0.9807,0.9807,0.9807,0.9807,0.9807,0.9807,0.9807,0.9807,0.9807,0.9807,0.9807,0.9807,0.9807,0.9807,0.9807,0.9807,0.9807,0.9807,0.9807,0.9807,0.9807,0.9807,0.9807,0.9807,0.9807,0.9807,0.9807,0.9807,0.9807,0.9807,0.9807,0.9807,1.3997,1.4045,0.0,0.0,0.0,0.0,0.0,0.0,0.0,0.0,0.0,0.0,0.0,0.0,0.0,0.0,0.0,0.0,1.5248,0.0,0.0,0.0,1.5498,1.5063,1.392,1.4046,1.4046,1.3902,0.0,0.0,0.0,0.0,0.0,0.0,1.5808,0.0,0.0,0.0,1.5808,0.0,1.5808,1.5706,0.0,1.446,1.3193,1.168,0.9482,0.8609,0.8522,0.0,0.8623,0.8492,0.0,0.8485,0.0,0.0,0.0,0.0,0.0,0.0,0.0,0.0,0.8669,0.0,0.0,0.0,0.8899,0.8899,0.0,0.0,0.0,0.0,0.0,0.0,0.0,0.0,0.0,0.0,0.0,0.0,0.0,0.0,0.0,0.0,0.0,0.9807,0.9807,0.9807,0.9807,0.9807,0.9807,0.9807,0.9807,0.9807,0.9807,0.9807,0.9807,0.9807,0.9807,0.9807,0.9807,0.9807,0.9807,0.9807,0.9807,0.9807,0.9807,0.9807,0.9807,0.9807,0.9807,0.9807,0.9807,0.9807,0.9807,0.9807,1.4132,1.4381,0.0,0.0,0.0,0.0,0.0,0.0,0.0,0.0,0.0,0.0,0.0,0.0,0.0,0.0,0.0,1.5173,0.0,0.0,0.0,0.0,0.0,0.0,1.3914,1.4621,1.4997,1.4997,1.4997,0.0,0.0,0.0,0.0,0.0,1.5808,0.0,1.5808,0.0,0.0,0.0,0.0,0.0,0.0,1.3788,1.1822,1.0034,0.9075,0.8733,0.8733,0.0,0.8733,0.0,0.0,0.0,0.0,0.0,0.0,0.0,0.0,0.0,0.0,0.0,0.0,0.0,0.0,0.0,0.8899,0.0,0.0,0.0,0.0,0.0,0.0,0.0,0.0,0.0,0.0,0.0,0.0,0.0,0.0,0.0,0.0,0.0,0.0,0.0,0.0,0.9807,0.9807,0.9807,0.9807,0.9807,0.9807,0.9807,0.9807,0.9807,0.9807,0.9807,0.9807,0.9807,0.9807,0.9807,0.9807,0.9807,0.9807,0.9807,0.9807,0.9807,0.9807,0.9807,0.9807,0.9807,0.9807,0.9807,0.9807,0.9807,1.438,0.0,0.0,0.0,0.0,0.0,0.0,0.0,0.0,0.0,0.0,0.0,1.5807,1.5801,0.0,0.0,0.0,1.5808,0.0,0.0,1.4423,0.0,0.0,0.0,0.0,0.0,1.5808,1.5808,0.0,0.0,0.0,0.0,0.0,0.0,0.0,1.5808,1.5808,0.0,0.0,1.5815,1.5907,1.5942,1.5737,1.3731,1.1717,0.9921,0.9613,0.9509,0.9441,0.9033,0.8899,0.0,0.8781,0.0,0.0,0.0,0.0,0.0,0.8608,0.0,0.0,0.0,0.0,0.0,0.0,0.0,0.0,0.0,0.0,0.0,0.0,0.0,0.0,0.0,0.0,0.0,0.0,0.0,0.0,0.0,0.0,0.0,0.0,0.0,0.0,0.0,0.9688,0.0,0.9803,0.9807,0.9807,0.9807,0.9807,0.9807,0.9807,0.9807,0.9807,0.9807,0.9807,0.9807,0.9807,0.9807,0.9807,0.9807,0.9807,0.9807,0.9807,0.9807,0.9807,0.9807,0.9807,0.9807,0.9807,0.9807,0.9807,0.9807,1.497,1.4988,0.0,0.0,0.0,0.0,0.0,0.0,0.0,0.0,0.0,0.0,0.0,0.0,0.0,0.0,0.0,1.5808,1.5808,0.0,1.5742,0.0,0.0,1.5742,0.0,0.0,0.0,1.5808,0.0,0.0,0.0,0.0,0.0,0.0,0.0,1.5808,1.5808,1.5808,1.5808,1.5828,1.6158,1.5782,1.5025,0.0,1.4183,1.2971,1.1538,0.0,0.0,0.9385,0.8899,0.0,0.0,0.0,0.0,0.0,0.0,0.0,0.0,0.0,0.0,0.0,0.0,0.0,0.0,0.0,0.8899,0.0,0.0,0.0,0.0,0.0,0.0,0.0,0.0,0.0,0.0,0.0,0.0,0.0,0.0,0.0,0.0,0.0,0.0,0.0,0.9597,0.0,0.98,0.9807,0.9807,0.9807,0.9807,0.9807,0.9807,0.9807,0.9807,0.9807,0.9807,0.9807,0.9807,0.9807,0.9807,0.9807,0.9807,0.9807,0.9807,0.9807,0.9807,0.9807,0.9807,0.9807,0.9807,0.9807,0.9807,0.9807,0.0,0.0,0.0,0.0,0.0,0.0,0.0,1.5676,0.0,0.0,0.0,0.0,0.0,0.0,1.5808,0.0,0.0,1.5808,1.5808,1.5808,0.0,0.0,0.0,1.5808,0.0,0.0,0.0,0.0,0.0,0.0,0.0,0.0,0.0,0.0,0.0,1.5808,0.0,0.0,0.0,0.0,0.0,1.5844,1.6142,0.0,0.0,1.1647,1.0172,0.9644,0.0,0.9075,0.8899,0.8899,0.8899,0.8899,0.8899,0.8899,0.8899,0.0,0.0,0.0,0.8899,0.8899,0.0,0.0,0.0,0.0,0.0,0.0,0.0,0.0,0.0,0.0,0.0,0.0,0.0,0.0,0.0,0.0,0.0,0.0,0.0,0.0,0.0,0.0,0.0,0.9332,0.9496,0.9617,0.0,0.9756,0.9807,0.9807,0.9807,0.9807,0.9807,0.9807,0.9807,0.9807,0.9807,0.9807,0.9807,0.9807,0.9807,0.9807,0.9807,0.9807,0.9807,0.9807,0.9807,0.9807,0.9807,0.9807,0.9807,0.9807,0.9807,0.9807,1.554,0.0,0.0,0.0,0.0,0.0,0.0,0.0,0.0,0.0,1.5808,0.0,1.5808,0.0,1.5808,0.0,1.5808,1.5808,1.5808,1.5808,0.0,1.5808,1.5808,0.0,0.0,0.0,0.0,0.0,0.0,1.5808,0.0,0.0,0.0,0.0,0.0,0.0,0.0,0.0,1.6099,0.0,0.0,1.5634,0.0,0.0,1.1653,0.0,0.0,0.9685,0.9613,0.9161,0.9001,0.9011,0.9065,0.9045,0.9001,0.9001,0.895,0.8899,0.8899,0.8899,0.0,0.0,0.8899,0.0,0.8899,0.0,0.0,0.0,0.0,0.0,0.0,0.0,0.0,0.0,0.0,0.0,0.0,0.0,0.0,0.0,0.0,0.0,0.0,0.0,0.9124,0.9193,0.9402,0.9551,0.0,0.0,0.9807,0.9807,0.9807,0.9807,0.9807,0.9807,0.9807,0.9807,0.9807,0.9807,0.9807,0.9807,0.9807,0.9807,0.9807,0.9807,0.9807,0.9807,0.9807,0.9807,0.9807,0.9807,0.9807,0.9807,0.9807,0.9807,0.0,0.0,0.0,0.0,1.5808,0.0,0.0,0.0,1.5808,0.0,1.5808,1.5808,1.5808,1.5808,1.5808,1.5808,1.5808,0.0,1.5808,1.5808,0.0,0.0,1.5808,1.5808,1.5808,0.0,0.0,0.0,0.0,0.0,0.0,0.0,0.0,0.0,1.5808,0.0,1.5821,1.6158,1.6317,1.6261,1.5378,1.5173,1.5097,1.2209,0.0,1.4827,1.201,1.1013,1.0822,0.9613,0.9207,0.9234,0.9366,0.9311,0.9207,0.9207,0.908,0.8916,0.8923,0.8923,0.8905,0.8899,0.0,0.0,0.0,0.0,0.8899,0.0,0.0,0.0,0.0,0.0,0.0,0.0,0.0,0.0,0.0,0.0,0.0,0.0,0.0,0.0,0.0,0.8899,0.8981,0.9172,0.9318,0.0,0.0,0.0,0.0,0.9807,0.9807,0.9807,0.9807,0.9807,0.9807,0.9807,0.9807,0.9807,0.9807,0.9807,0.9807,0.9807,0.9807,0.9807,0.9807,0.9807,0.9807,0.9807,0.9807,0.9807,0.9807,0.9807,0.9807,0.9807,1.5808,1.5808,1.5808,0.0,1.5808,1.5808,0.0,0.0,0.0,0.0,1.5808,1.5808,1.5808,1.5808,1.5808,1.5808,1.5808,0.0,0.0,0.0,0.0,1.5808,1.5808,1.5808,1.5808,1.5808,0.0,1.5808,0.0,0.0,1.5808,0.0,0.0,0.0,0.0,0.0,1.5821,1.6158,1.6564,1.6865,1.5745,1.5345,0.0,0.0,1.1712,1.2123,1.0326,0.9693,0.9648,0.9427,0.9352,0.9359,0.9382,0.9368,0.9352,0.9352,0.9311,0.9242,0.9144,0.9124,0.9086,0.8936,0.8899,0.8899,0.0,0.0,0.0,0.0,0.0,0.0,0.0,0.0,0.0,0.0,0.0,0.0,0.0,0.0,0.0,0.0,0.0,0.0,0.8899,0.8899,0.8926,0.8977,0.9235,0.0,0.0,0.0,0.0,0.9807,0.9807,0.9807,0.9807,0.9807,0.9807,0.9807,0.9807,0.9807,0.9807,0.9807,0.9807,0.9807,0.9807,0.9807,0.9807,0.9807,0.9807,0.9807,0.9807,0.9807,0.9807,0.9807,0.9807,0.9807,1.5808,0.0,0.0,1.5808,0.0,0.0,1.5808,0.0,0.0,1.5808,1.5808,0.0,1.5808,1.5808,1.5808,1.5808,1.5808,0.0,0.0,0.0,0.0,1.5808,1.5808,1.5808,1.5808,1.5808,0.0,1.5808,0.0,0.0,1.5808,0.0,0.0,0.0,0.0,1.5881,0.0,1.6504,1.6959,1.7257,1.5927,0.0,0.0,1.2132,1.0948,1.0369,0.964,0.9339,0.9305,0.9443,0.9483,0.9493,0.9554,0.953,0.9483,0.9483,0.945,0.939,0.9305,0.9281,0.9247,0.9069,0.9032,0.9001,0.8926,0.8899,0.8899,0.0,0.0,0.0,0.0,0.0,0.0,0.0,0.0,0.0,0.0,0.0,0.0,0.0,0.0,0.0,0.8899,0.8899,0.8899,0.8899,0.0,0.0,0.0,0.0,0.0,0.9803,0.9807,0.9807,0.9807,0.9807,0.9807,0.9807,0.9807,0.9807,0.9807,0.9807,0.9807,0.9807,0.9807,0.9807,0.9807,0.9807,0.9807,0.9807,0.9807,0.9807,0.9807,0.9807,0.9807,0.9807,0.0,0.0,0.0,0.0,0.0,0.0,0.0,1.5828,0.0,1.5808,0.0,1.5791,1.5807,1.5795,1.5797,1.5794,0.0,1.5866,1.5795,1.5838,1.5848,1.5808,1.5808,1.5808,1.5808,1.5808,0.0,0.0,0.0,1.5808,1.5808,0.0,0.0,0.0,0.0,0.0,0.0,1.6985,1.7354,0.0,1.6238,1.4842,1.3386,1.2376,1.0917,0.9476,0.9818,0.9714,0.945,0.9588,0.9624,0.9644,0.9766,0.9722,0.9624,0.9624,0.9544,0.945,0.943,0.9426,0.9389,0.9264,0.9227,0.9172,0.8984,0.894,0.8933,0.8902,0.8899,0.0,0.0,0.0,0.0,0.0,0.0,0.0,0.0,0.0,0.0,0.0,0.0,0.0,0.0,0.8899,0.8899,0.0,0.0,0.0,0.0,0.0,0.0,0.0,0.9807,0.0,0.9807,0.0,0.9807,0.9807,0.9807,0.9807,0.9807,0.9807,0.9807,0.9807,0.9807,0.9807,0.9807,0.9807,0.9807,0.9807,0.9807,0.9807,0.9807,0.9807,0.9807,0.9807,0.0,0.0,0.0,0.0,0.0,1.5888,1.6171,1.5973,1.5808,1.5808,1.5808,0.0,1.5799,1.5794,1.5794,1.5804,1.6104,0.0,0.0,0.0,0.0,1.5803,1.5808,1.5808,1.5808,1.5808,1.5808,0.0,1.5808,1.5808,1.5808,1.5808,1.5808,0.0,0.0,0.0,1.7052,1.7159,0.0,1.7602,1.7555,1.5919,1.3644,1.5054,1.3085,0.9751,1.1216,1.0815,0.9591,0.9719,0.977,0.9773,0.98,0.9786,0.977,0.977,0.9749,0.9705,0.9602,0.9568,0.9534,0.9396,0.9369,0.9332,0.9179,0.9145,0.9097,0.8936,0.8899,0.8899,0.8899,0.0,0.0,0.0,0.0,0.0,0.0,0.0,0.0,0.0,0.0,0.0,0.0,0.0,0.0,0.0,0.0,0.0,0.0,0.0,0.0,0.0,0.0,0.0,0.0,0.0,0.0,0.9807,0.9807,0.9807,0.9807,0.9807,0.9807,0.9807,0.9807,0.9807,0.9807,0.9807,0.9807,0.9807,0.9807,0.9807,0.9807,0.9807,0.9807,0.9807,0.0,0.0,0.0,0.0,0.0,0.0,0.0,1.6373,0.0,1.5843,1.58,1.5803,1.5796,1.6356,1.6735,1.6725,1.6902,1.6848,1.645,1.6481,1.6433,1.6262,1.6267,0.0,1.6059,1.6059,1.5973,1.5808,1.5808,1.5808,1.5808,1.5808,1.5808,1.5821,0.0,1.6765,0.0,0.0,0.0,1.7622,1.7896,1.6728,1.4876,1.5147,1.3464,1.0943,1.0948,1.042,0.9715,0.9783,0.9807,0.9807,0.9807,0.9807,0.9807,0.9807,0.9807,0.979,0.9722,0.9705,0.9668,0.9537,0.95,0.9474,0.9335,0.9251,0.9176,0.9076,0.8977,0.8899,0.8899,0.8899,0.0,0.0,0.0,0.0,0.0,0.0,0.0,0.0,0.0,0.0,0.0,0.0,0.0,0.0,0.0,0.0,0.0,0.0,0.0,0.0,0.0,0.0,0.0,0.0,0.0,0.9807,0.9807,0.9807,0.9807,0.9807,0.9807,0.9807,0.9807,0.9807,0.9807,0.9807,0.9807,0.9807,0.9807,0.9807,0.9807,0.9807,0.9807,0.9807,0.0,1.6206,0.0,0.0,1.6553,0.0,0.0,1.6813,1.6635,1.6122,1.6015,1.6041,1.6168,1.7029,1.7596,1.7596,1.7596,1.7473,1.715,1.6927,1.6774,1.6694,1.6707,1.66,1.6397,1.633,1.6171,0.0,1.5835,1.5808,1.5808,1.5808,1.5868,0.0,0.0,0.0,0.0,0.0,1.7595,1.7629,1.7962,1.7303,1.6045,1.5452,1.3962,1.2082,1.1152,1.0373,0.9807,0.9807,0.9807,0.9807,0.9807,0.9807,0.9807,0.9807,0.9807,0.9807,0.9807,0.9807,0.978,0.9668,0.9641,0.96,0.9477,0.9366,0.9275,0.921,0.9039,0.8899,0.8899,0.8899,0.0,0.0,0.0,0.0,0.0,0.0,0.0,0.0,0.0,0.0,0.0,0.0,0.0,0.0,0.0,0.0,0.0,0.0,0.0,0.0,0.0,0.0,0.9807,0.0,0.9807,0.0,0.9807,0.9807,0.9807,0.9807,0.9807,0.9807,0.9807,0.9807,0.9807,0.9807,0.9807,0.9807,0.9807,0.9807,0.9807,0.9807,0.9807,0.9807,0.0,0.0,0.0,0.0,0.0,0.0,0.0,1.7146,1.7097,1.6911,1.6732,1.682,1.7364,1.7527,1.7603,1.7593,1.76,1.7578,1.7547,1.7307,1.7026,1.6701,1.6707,1.6693,1.6667,1.6419,1.6284,0.0,0.0,1.5808,1.5808,1.5808,1.6088,0.0,0.0,0.0,0.0,1.7582,1.7595,1.7649,1.8217,1.7502,1.6307,1.8189,1.6107,1.2363,1.3676,1.2273,0.9807,0.9807,0.9807,0.9807,0.9807,0.9807,0.9807,0.9807,0.9807,0.9807,0.9807,0.9807,0.9803,0.979,0.9786,0.9749,0.9604,0.9578,0.949,0.9254,0.9039,0.8899,0.8899,0.8899,0.8899,0.0,0.0,0.0,0.0,0.0,0.0,0.0,0.0,0.0,0.0,0.8899,0.0,0.0,0.0,0.0,0.0,0.0,0.0,0.0,0.0,0.9807,0.9807,0.9807,0.0,0.9807,0.9807,0.9807,0.9807,0.9807,0.9807,0.9807,0.9807,0.9807,0.9807,0.9807,0.9807,0.9807,0.9807,0.9807,0.9807,0.9807,0.9807,0.9807,0.0,0.0,0.0,0.0,0.0,0.0,0.0,1.7434,1.742,1.7378,1.7286,1.7333,1.7571,1.7598,1.7599,1.7602,1.7595,1.7601,1.7605,1.7493,1.7381,1.7247,1.7247,1.7161,1.6999,1.6898,1.6732,0.0,0.0,0.0,0.0,1.6341,0.0,0.0,0.0,1.7354,1.7595,1.7595,1.7595,1.7649,1.8264,1.8103,1.7571,1.7848,1.6153,1.3601,1.3272,1.1705,0.9807,0.9807,0.9807,0.9807,0.9807,0.9807,0.9807,0.9807,0.9807,0.9807,0.9807,0.9807,0.9807,0.9807,0.9807,0.979,0.9732,0.9658,0.9547,0.9362,0.9103,0.8899,0.8899,0.8899,0.8899,0.0,0.0,0.0,0.0,0.0,0.0,0.0,0.0,0.0,0.0,0.0,0.8946,0.0,0.0,0.0,0.0,0.0,0.0,0.98,0.0,0.9807,0.9807,0.9807,0.9807,0.9807,0.9807,0.9807,0.9807,0.9807,0.9807,0.9807,0.9807,0.9807,0.9807,0.9807,0.9807,0.9807,0.9807,0.9807,0.9807,0.9807,0.9807,0.9817,1.6967,0.0,1.734,0.0,1.7595,1.7749,1.7849,1.7863,1.7863,1.7863,1.7715,1.7596,1.7595,1.7595,1.7595,1.7595,1.7595,1.7595,1.7595,1.7595,1.7595,1.7595,1.7595,0.0,1.732,1.7246,1.7086,1.6846,1.6747,0.0,0.0,0.0,0.0,0.0,1.728,1.7414,1.7595,1.7595,1.7649,1.7762,1.8297,1.8558,1.8552,1.7937,1.6409,1.4455,1.3302,1.1574,0.9807,0.9807,0.9807,0.9807,0.9807,0.9807,0.9807,0.9807,0.9807,0.9807,0.9807,0.9807,0.9807,0.9807,0.9807,0.9807,0.9807,0.9729,0.9615,0.9436,0.9178,0.8974,0.8905,0.8899,0.8899,0.0,0.0,0.0,0.0,0.0,0.0,0.0,0.0,0.8899,0.8899,0.0,0.0,0.0,0.0,0.0,0.0,0.0,0.0,0.0,0.0,0.0,0.0,0.0,0.9807,0.9807,0.9807,0.9807,0.9807,0.9807,0.9807,0.9807,0.9807,0.9807,0.9807,0.9807,0.9807,0.9807,0.9807,0.9807,0.9807,0.9807,0.9807,0.9812,1.7582,1.7588,1.7675,1.7942,1.7982,1.8116,1.8437,1.8491,1.8491,1.8491,1.7961,1.7603,1.7602,1.7595,1.7595,1.7595,1.7595,1.7595,1.7595,1.7595,1.7595,0.0,0.0,1.7595,1.7608,1.7334,1.7199,1.7186,0.0,0.0,1.6714,0.0,1.7199,1.7213,1.7474,1.7608,1.7595,1.7595,1.7749,1.8015,1.8356,1.8664,1.8937,1.9252,1.7381,1.4604,1.4574,1.2513,0.9807,0.9807,0.9807,0.9807,0.9807,0.9807,0.9807,0.9807,0.9807,0.9807,0.9807,0.9807,0.9807,0.9807,0.9807,0.9807,0.9807,0.9803,0.9719,0.9457,0.9288,0.9134,0.8936,0.8899,0.8899,0.8899,0.0,0.0,0.0,0.0,0.0,0.0,0.8899,0.8899,0.8899,0.0,0.0,0.0,0.0,0.0,0.0,0.0,0.0,0.9807,0.9807,0.0,0.9807,0.9807,0.9807,0.9807,0.9807,0.9807,0.9807,0.9807,0.9807,0.9807,0.9807,0.9807,0.9807,0.9807,0.9807,0.9807,0.9807,0.9807,0.9807,0.9807,0.9807,0.9812,1.8177,1.821,1.8244,1.833,1.8336,1.8384,1.8477,1.8504,1.8504,1.8504,1.8332,1.8211,1.8203,1.7854,1.7602,0.0,1.7595,1.7595,0.0,1.7595,1.7595,1.7595,1.7595,1.7595,1.7595,1.7521,1.7468,1.7468,0.0,0.0,0.0,1.7428,1.7468,1.7474,1.7555,1.7595,1.7595,1.7595,1.7749,1.8029,1.837,1.8664,1.8944,1.9266,1.8075,1.6094,1.499,1.3243,1.1272,1.0164,0.9807,0.9807,0.9807,0.9807,0.9807,0.9807,0.9807,0.9807,0.9807,0.9807,0.9807,0.9807,0.9807,0.9807,0.9807,0.9732,0.9634,0.9557,0.9362,0.9179,0.9121,0.8991,0.8899,0.8899,0.0,0.0,0.0,0.0,0.0,0.0,0.0,0.895,0.0,0.9169,0.0,0.0,0.0,0.0,0.0,0.0,0.0,0.0,0.9807,0.0,0.9807,0.9807,0.9807,0.9807,0.9807,0.9807,0.9807,0.9807,0.9807,0.9807,0.9807,0.9807,0.9807,0.9807,0.9807,0.9807,0.9807,0.9807,0.9807,0.9807,0.9856,0.9967,1.8457,1.8504,1.8524,1.8637,1.8651,1.8691,1.8818,1.8832,1.8832,1.8832,1.8832,1.8841,1.8838,1.8504,0.0,1.7642,1.7596,0.0,1.7602,1.7595,1.7595,1.7595,1.7595,1.7595,1.7595,0.0,0.0,1.7595,1.7595,1.7595,1.7595,1.7595,1.7595,1.7595,1.7595,1.7595,1.7595,1.7595,1.7829,1.8216,1.8417,1.8745,1.9112,1.9328,1.8402,1.6791,1.5178,1.3576,1.1946,1.0346,0.9807,0.9807,0.9807,0.9807,0.9807,0.9807,0.9807,0.9807,0.9807,0.9807,0.9807,0.9807,0.9807,0.9807,0.9807,0.9736,0.9658,0.9604,0.947,0.9335,0.9277,0.9164,0.9092,0.9092,0.0,0.9092,0.0,0.0,0.0,0.0,0.0,0.0,0.0,0.9318,0.0,0.0,0.0,0.0,0.0,0.0,0.0,0.9807,0.9807,0.0,0.9807,0.9807,0.9807,0.9807,0.9807,0.9807,0.9807,0.9807,0.9807,0.9807,0.9807,0.9807,0.9807,0.9807,0.9807,0.9807,0.9807,0.9807,0.9814,0.9856,0.9922,1.0033,1.8564,1.8564,0.0,0.0,1.8923,0.0,1.9354,1.9395,1.9395,1.9395,1.9395,1.9402,1.9402,1.9403,1.8954,1.7824,0.0,0.0,0.0,1.7595,1.7602,1.7595,1.7595,0.0,1.7595,1.7595,1.7595,1.7595,1.7595,1.7595,1.7595,1.7595,1.7595,1.7595,1.7595,1.7595,1.7595,1.7595,1.7949,1.8504,1.8504,1.8859,1.9395,1.9395,1.846,1.6938,1.5222,1.3631,1.2093,1.0373,0.9807,0.9807,0.9807,0.9807,0.9807,0.9807,0.9807,0.9807,0.9807,0.9807,0.9807,0.9807,0.9807,0.9807,0.9807,0.9807,0.977,0.9637,0.96,0.9564,0.9436,0.9402,0.9396,0.9396,0.9396,0.9396,0.9396,0.0,0.0,0.0,0.0,0.0,0.0,0.9527,0.9597,0.0,0.0,0.0,0.0,0.0,0.9807,0.9807,0.9807,0.9807,0.9807,0.9807,0.9807,0.9807,0.9807,0.9807,0.9807,0.9807,0.9807,0.9807,0.9807,0.9807,0.9807,0.9807,0.9807,0.9807,0.9807,0.9807,0.9808,0.9945,1.0009,1.0076,0.0,0.0,1.9207,1.9266,1.928,1.9314,1.9388,1.9395,1.9395,1.9395,1.9395,1.9403,1.9401,1.9394,1.9275,1.9003,1.8124,1.7596,1.76,1.7607,1.7595,1.7602,1.7595,1.7595,1.7595,1.7595,1.7595,1.7595,1.7595,1.7595,1.7595,1.7595,1.7595,1.7595,1.7595,1.7595,1.7595,1.7595,1.7949,1.8504,1.8504,1.8859,1.9395,1.9395,1.9156,1.8467,1.5627,1.4366,1.3601,1.0766,0.9807,0.9807,0.9807,0.9807,0.9807,0.9807,0.9807,0.9807,0.9807,0.9807,0.9807,0.9807,0.9807,0.9807,0.9807,0.9807,0.9797,0.9763,0.9671,0.9583,0.9561,0.9474,0.9396,0.9396,0.9396,0.9396,0.9396,0.0,0.0,0.0,0.9396,0.944,0.9544,0.9573,0.9637,0.0,0.0,0.0,0.0,0.0,0.9807,0.9807,0.9807,0.9807,0.9807,0.9807,0.9807,0.9807,0.9807,0.9807,0.9807,0.9807,0.9807,0.9807,0.9807,0.9807,0.9807,0.9807,0.9807,0.9807,0.9807,0.9807,0.9808,0.9945,1.0092,1.0253,1.9361,1.9395,1.9395,1.9395,1.9395,1.9395,1.9395,1.9395,1.9395,1.9395,1.9395,1.9395,1.9395,1.9395,1.9399,1.9401,1.8795,1.8425,1.8427,1.7913,1.76,1.7602,1.7596,1.7595,1.7595,1.7595,1.7595,1.7595,1.7595,1.7595,1.7595,1.7595,1.7595,1.7595,1.7595,1.7595,1.7608,1.7736,1.8063,1.8518,1.8637,1.8972,1.9395,1.9395,1.8946,1.7987,1.5494,1.4128,1.3127,1.0645,0.9807,0.9807,0.9807,0.9807,0.9807,0.9807,0.9807,0.9807,0.9807,0.9807,0.9807,0.9807,0.9807,0.9807,0.9807,0.9807,0.9807,0.9807,0.9742,0.9692,0.9692,0.9639,0.9581,0.9581,0.9581,0.9581,0.9581,0.9581,0.0,0.9581,0.9581,0.9615,0.9681,0.9692,0.9722,0.98,0.0,0.0,0.9807,0.9807,0.9807,0.9807,0.9807,0.9807,0.9807,0.9807,0.9807,0.9807,0.9807,0.9807,0.9807,0.9807,0.9807,0.9807,0.9807,0.9807,0.9807,0.9807,0.9807,0.9807,0.9807,0.9807,0.983,1.0057,1.0209,1.0326,1.9395,1.9395,1.9395,1.9395,1.9395,1.9395,1.9395,1.9395,1.9395,1.9395,1.9395,1.9395,1.9395,1.9395,1.9395,1.9395,1.9395,1.9399,1.9396,1.8447,1.7791,1.7611,1.7642,1.7642,1.7595,1.7595,1.7595,1.7595,1.7595,1.7595,1.7595,1.7595,1.7595,1.7595,1.7595,1.7595,1.7615,1.7889,1.8189,1.8517,1.879,1.9098,1.9395,1.9395,1.8554,1.712,1.5252,1.372,1.2273,1.0418,0.9807,0.9807,0.9807,0.9807,0.9807,0.9807,0.9807,0.9807,0.9807,0.9807,0.9807,0.9807,0.9807,0.9807,0.9807,0.9807,0.9807,0.9807,0.9807,0.9807,0.9807,0.9807,0.9807,0.9807,0.9807,0.9807,0.9807,0.0,0.9807,0.9807,0.9807,0.9807,0.9807,0.9807,0.9807,0.9807,0.9807,0.0,0.0,0.9807,0.9807,0.9807,0.9807,0.9807,0.9807,0.9807,0.9807,0.9807,0.9807,0.9807,0.9807,0.9807,0.9807,0.9807,0.9807,0.9807,0.9807,0.9807,0.9807,0.9807,0.9807,0.9807,0.9844,1.0184,1.0296,1.034,1.9395,1.9395,1.9395,1.9395,1.9395,1.9395,1.9395,1.9395,1.9395,1.9395,1.9395,1.9395,1.9395,1.9395,1.9395,1.9395,1.9405,1.94,1.9391,1.9217,1.8667,1.7644,1.7821,1.7822,1.7602,1.7595,1.7595,1.7595,1.7595,1.7595,1.7595,1.7595,1.7595,1.7595,1.7595,1.7595,1.7615,1.7889,1.8189,1.8517,1.879,1.9098,1.9395,1.9395,1.9243,1.8648,1.5671,1.444,1.377,1.0793,0.9807,0.9807,0.9807,0.9807,0.9807,0.9807,0.9807,0.9807,0.9807,0.9807,0.9807,0.9807,0.9807,0.9807,0.9807,0.9807,0.9807,0.9807,0.9807,0.9807,0.9807,0.9807,0.9807,0.9807,0.9807,0.9807,0.9807,0.0,0.9807,0.9807,0.9807,0.9807,0.9807,0.9807,0.9807,0.9807,0.9807,0.9807,0.9807,0.9807,0.9807,0.9807,0.9807,0.9807,0.9807,0.9807,0.9807,0.9807,0.9807,0.9807,0.9807,0.9807,0.9807,0.9807,0.9807,0.9807,0.9807,0.9807,0.9807,0.9807,0.9807,0.9807,0.9844,1.0184,1.0296,1.034,1.9395,1.9395,1.9395,1.9395,1.9395,1.9395,1.9395,1.9395,1.9395,1.9395,1.9395,1.9395,1.9395,1.9395,1.9395,1.9395,1.9395,1.9406,1.94,1.9401,1.915,1.8591,1.8075,1.7735,1.7602,1.7595,1.7595,1.7595,1.7595,1.7595,1.7595,1.7595,1.7595,1.7595,1.7595,1.7595,1.7629,1.8083,1.8364,1.8544,1.8999,1.926,1.9395,1.9395,1.8852,1.7806,1.5444,1.4034,1.2948,1.0585,0.9807,0.9807,0.9807,0.9807,0.9807,0.9807,0.9807,0.9807,0.9807,0.9807,0.9807,0.9807,0.9807,0.9807,0.9807,0.9807,0.9807,0.9807,0.9807,0.9807,0.9807,0.9807,0.9807,0.9807,0.9807,0.0,0.0,0.9807,0.9807,0.9807,0.9807,0.9807,0.9807,0.9807,0.9807,0.9807,0.9807,0.9807,0.9807,0.9807,0.9807,0.9807,0.9807,0.9807,0.9807,0.9807,0.9807,0.9807,0.9807,0.9807,0.9807,0.9807,0.9807,0.9807,0.9807,0.9807,0.9807,0.9807,0.9807,0.9807,0.9807,0.9807,0.9844,1.0184,1.0296,1.034,1.9395,1.9395,1.9395,1.9395,1.9395,1.9395,1.9395,1.9395,1.9395,1.9395,1.9395,1.9395,1.9395,1.9395,1.9395,1.9395,1.9395,1.9395,1.9395,1.9394,1.9399,1.9403,1.8231,1.7602,1.7602,1.7595,1.7595,1.7595,1.7595,1.7595,1.7595,1.7595,1.7595,1.7595,1.7595,1.7635,1.7729,1.8277,1.8544,1.8637,1.9173,1.9395,1.9395,1.9395,1.8402,1.6791,1.5178,1.3576,1.1946,1.0346,0.9807,0.9807,0.9807,0.9807,0.9807,0.9807,0.9807,0.9807,0.9807,0.9807,0.9807,0.9807,0.9807,0.9807,0.9807,0.9807,0.9807,0.9807,0.9807,0.9807,0.9807,0.9807,0.9807,0.9807,0.0,0.0,0.0,0.9807,0.9807,0.9807,0.9807,0.9807,0.9807,0.9807,0.9807,0.9807,0.9807,0.9807,0.9807,0.9807,0.9807,0.9807,0.9807,0.9807,0.9807,0.9807,0.9807,0.9807,0.9807,0.9807,0.9807,0.9807,0.9807,0.9807,0.9807,0.9807,0.9807,0.9807,0.9807,0.9807,0.9807,0.9807,0.9844,1.0184,1.0296,1.034,1.9395,1.9395,1.9395,1.9395,1.9395,1.9395,1.9395,1.9395,1.9395,1.9395,1.9395,1.9395,1.9395,1.9395,1.9395,1.9395,1.9395,1.9395,1.9395,1.9403,1.9405,1.9403,1.8232,1.7602,1.7595,1.7595,1.7595,1.7595,1.7595,1.7595,1.7595,1.7595,1.7595,1.7595,1.7595,1.7742,1.7989,1.8357,1.8644,1.8904,1.9253,1.9395,1.9395,1.9395,1.8402,1.6791,1.5178,1.3576,1.1946,1.0346,0.9807,0.9807,0.9807,0.9807,0.9807,0.9807,0.9807,0.9807,0.9807,0.9807,0.9807,0.9807,0.9807,0.9807,0.9807,0.9807,0.9807,0.9807,0.9807,0.9807,0.9807,0.9807,0.9807,0.9807,0.0,0.0,0.9807,0.9807,0.9807,0.9807,0.9807,0.9807,0.9807,0.9807,0.9807,0.9807,0.9807,0.9807,0.9807,0.9807,0.9807,0.9807,0.9807,0.9807,0.9807,0.9807,0.9807,0.9807,0.9807,0.9807,0.9807,0.9807,0.9807,0.9807,0.9807,0.9807,0.9807,0.9807,0.9807,0.9807,0.9807,0.9807,0.9844,1.0184,1.0296,1.034,1.9395,1.9395,1.9395,1.9395,1.9395,1.9395,1.9395,1.9395,1.9395,1.9395,1.9395,1.9395,1.9395,1.9395,1.9395,1.9395,1.9395,1.9395,1.9395,1.9395,1.907,1.8324,1.7842,1.7595,1.7595,1.7595,1.7595,1.7595,1.7595,1.7595,1.7595,1.7595,1.7595,1.7615,1.7769,1.7896,1.8022,1.8543,1.881,1.8937,1.9266,1.9395,1.9395,1.9395,1.8402,1.6791,1.5178,1.3576,1.1946,1.0346,0.9807,0.9807,0.9807,0.9807,0.9807,0.9807,0.9807,0.9807,0.9807,0.9807,0.9807,0.9807,0.9807,0.9807,0.9807,0.9807,0.9807,0.9807,0.9807,0.9807,0.9807,0.9807,0.9807,0.9807,0.0,0.9807,0.9807,0.9807,0.9807,0.9807,0.9807,0.9807,0.9807,0.9807,0.9807,0.9807,0.9807,0.9807,0.9807,0.9807,0.9807,0.9807,0.9807,0.9807,0.9807,0.9807,0.9807,0.9807,0.9807,0.9807,0.9807,0.9807,0.9807,0.9807,0.9807,0.9807,0.9807,0.9807,0.9846,0.9918,0.9918,1.0007,1.0146,1.0353,1.0428,1.0455,1.9395,1.9395,1.9395,1.9395,1.9395,1.9395,1.9395,1.9395,1.9395,1.9395,1.9395,1.9395,1.9395,1.9395,1.9395,1.9395,1.9395,1.9395,1.9395,1.9406,1.8862,1.765,1.7601,1.7595,1.7595,1.7595,1.7595,1.7595,1.7595,1.7595,1.7595,1.7595,1.7635,1.7736,1.7922,1.8109,1.8309,1.8723,1.8964,1.9078,1.9314,1.9395,1.9395,1.9395,1.8402,1.6791,1.5178,1.3576,1.1946,1.0346,0.9807,0.9807,0.9807,0.9807,0.9807,0.9807,0.9807,0.9807,0.9807,0.9807,0.9807,0.9807,0.9807,0.9807,0.9807,0.9807,0.9807,0.9807,0.9807,0.9807,0.9807,0.9807,0.9807,0.9807,0.9807,0.9807,0.9807,0.9807,0.9807,0.9807,0.9807,0.9807,0.9807,0.9807,0.9807,0.9807,0.9807,0.9807,0.9807,0.9807,0.9807,0.9807,0.9807,0.9807,0.9807,0.9807,0.9807,0.9807,0.9807,0.9807,0.9807,0.9807,0.9807,0.981,0.9842,0.9863,0.9866,0.9929,1.0013,1.0089,1.0089,1.0185,1.0313,1.0455,1.0506,1.0514,1.9395,1.9395,1.9395,1.9395,1.9395,1.9395,1.9395,1.9395,1.9395,1.9395,1.9395,1.9395,1.9395,1.9395,1.9395,1.9395,1.9395,1.9395,1.9395,1.9393,1.8849,1.7644,1.7601,1.7595,1.7595,1.7595,1.7595,1.7595,1.7595,1.7595,1.7602,1.7602,1.7749,1.7995,1.8016,1.8336,1.8896,1.8896,1.9098,1.9395,1.9395,1.9395,1.9395,1.9395,1.8388,1.6777,1.5163,1.3556,1.1946,1.0346,0.9807,0.9807,0.9807,0.9807,0.9807,0.9807,0.9807,0.9807,0.9807,0.9807,0.9807,0.9807,0.9807,0.9807,0.9807,0.9807,0.9807,0.9807,0.9807,0.9807,0.9807,0.9807,0.9807,0.9807,0.9807,0.9807,0.9807,0.9807,0.9807,0.9807,0.9807,0.9807,0.9807,0.9807,0.9807,0.9807,0.9807,0.9807,0.9807,0.9807,0.9807,0.9807,0.9807,0.9807,0.9807,0.9807,0.9807,0.9807,0.9807,0.9807,0.9807,0.9807,0.9807,0.9817,0.9938,1.0003,1.0016,1.0215,1.0296,1.0299,1.0299,1.0299,1.0316,1.0443,1.0493,1.0514,1.9395,1.9395,1.9395,1.9395,1.9395,1.9395,1.9395,1.9395,1.9395,1.9395,1.9395,1.9395,1.9395,1.9395,1.9395,1.9395,1.9395,1.9408,1.9391,1.8607,1.7978,1.762,1.7596,1.7595,1.7595,1.7595,1.7595,1.7595,1.7595,1.7695,1.7882,1.7882,1.8056,1.8356,1.8557,1.873,1.8924,1.9145,1.9314,1.9395,1.9395,1.9395,1.9395,1.9395,1.771,1.5252,1.4767,1.2843,1.0433,0.9955,0.9807,0.9807,0.9807,0.9807,0.9807,0.9807,0.9807,0.9807,0.9807,0.9807,0.9807,0.9807,0.9807,0.9807,0.9807,0.9807,0.9807,0.9807,0.9807,0.9807,0.9807,0.9807,0.9807,0.9807,0.9807,0.9807,0.9807,0.9807,0.9807,0.9807,0.9807,0.9807,0.9807,0.9807,0.9807,0.9807,0.9807,0.9807,0.9807,0.9807,0.9807,0.9807,0.9807,0.9807,0.9807,0.9807,0.9807,0.9807,0.9807,0.9846,0.9935,0.9935,1.0027,1.0148,1.0192,1.0212,1.0215,1.0275,1.0353,1.0445,1.0445,1.0493,1.0595,1.0636,1.0636,1.0643,1.9395,1.9395,1.9395,1.9395,1.9395,1.9395,1.9395,1.9395,1.9395,1.9395,1.9395,1.9395,1.9395,1.9395,1.9395,1.9395,1.9259,1.9228,1.9394,1.8277,1.76,1.7608,1.7602,1.7603,1.7602,1.7762,1.7809,1.7762,1.7896,1.8036,1.8196,1.8196,1.8363,1.8671,1.883,1.8977,1.9112,1.9306,1.9395,1.9395,1.9395,1.9395,1.9336,1.8692,1.7243,1.5385,1.4108,1.2393,1.0645,1.0016,0.9807,0.9807,0.9807,0.9807,0.9807,0.9807,0.9807,0.9807,0.9807,0.9807,0.9807,0.9807,0.9807,0.9807,0.9807,0.9807,0.9807,0.9807,0.9807,0.9807,0.9807,0.9807,0.9807,0.9807,0.9807,0.9807,0.9807,0.9807,0.9807,0.9807,0.9807,0.9807,0.9807,0.9807,0.9807,0.9807,0.9807,0.9807,0.9807,0.9807,0.9807,0.9807,0.9849,0.9879,0.9879,0.9956,0.9956,0.9883,0.9956,1.0034,1.0125,1.0125,1.0176,1.0299,1.0357,1.0381,1.0384,1.0445,1.0507,1.0582,1.0582,1.0623,1.0704,1.0704,1.0704,1.0704,1.9395,1.9395,1.9395,1.9395,1.9395,1.9395,1.9395,1.9395,1.9395,1.9395,1.9395,1.9395,1.9395,1.9395,1.9395,1.9395,1.9028,1.8945,1.9299,1.8237,1.76,1.7602,1.7607,1.7654,1.7755,1.8064,1.8171,1.8049,1.8343,1.8504,1.8544,1.8544,1.8684,1.8936,1.8936,1.9112,1.9395,1.9395,1.9395,1.9395,1.9395,1.9395,1.9214,1.761,1.6909,1.6389,1.3298,1.2108,1.1766,1.0285,0.9807,0.9807,0.9807,0.9807,0.9807,0.9807,0.9807,0.9807,0.9807,0.9807,0.9807,0.9807,0.9807,0.9807,0.9807,0.9807,0.9807,0.9807,0.9807,0.9807,0.9807,0.9807,0.9807,0.9807,0.9807,0.9807,0.9807,0.9807,0.9807,0.9807,0.9807,0.9807,0.9807,0.9807,0.9807,0.9807,0.9807,0.9807,0.9807,0.9807,0.9814,0.9808,0.9932,1.0009,1.0023,1.0222,1.0222,1.0026,1.0212,1.0303,1.0316,1.0316,1.0323,1.0343,1.0456,1.0514,1.0524,1.0647,1.0704,1.0704,1.0704,1.0704,1.0704,1.0704,1.0704,1.0704,1.9395,1.9395,1.9395,1.9395,1.9395,1.9395,1.9395,1.9395,1.9395,1.9395,1.9395,1.9395,1.9395,1.9395,1.9395,1.9395,1.9028,1.877,1.8697,1.8011,1.7596,1.76,1.7604,1.8035,1.8995,1.8624,1.8424,1.8397,1.8457,1.8604,1.8817,1.8817,1.8971,1.9286,1.9286,1.9334,1.9395,1.9395,1.9395,1.9395,1.9395,1.9395,1.9214,1.761,1.6212,1.4866,1.2898,1.1393,1.027,0.9925,0.9807,0.9807,0.9807,0.9807,0.9807,0.9807,0.9807,0.9807,0.9807,0.9807,0.9807,0.9807,0.9807,0.9807,0.9807,0.9807,0.9807,0.9807,0.9807,0.9807,0.9807,0.9807,0.9807,0.9807,0.9807,0.9807,0.9807,0.9807,0.9807,0.9807,0.9807,0.9807,0.9807,0.9807,0.9807,0.9807,0.9807,0.9807,0.9807,0.9807,0.9846,0.9949,0.9986,1.0076,1.0229,1.0375,1.0375,1.0248,1.0279,1.0353,1.0462,1.0462,1.051,1.0609,1.064,1.0653,1.0657,1.0691,1.0704,1.0704,1.0704,1.0704,1.0704,1.0704,1.0704,1.0704,1.9395,1.9395,1.9395,1.9395,1.9395,1.9395,1.9395,1.9395,1.9395,1.9395,1.9395,1.9395,1.9395,1.9395,1.9395,1.9395,1.9063,1.8752,1.8516,1.7942,1.7861,1.8427,1.8461,1.8746,1.9381,1.909,1.8852,1.8698,1.8852,1.8999,1.9132,1.9132,1.9233,1.9395,1.9395,1.9395,1.9395,1.9395,1.9395,1.9395,1.9395,1.9395,1.9141,1.6753,1.5326,1.4292,1.1916,1.0509,0.9807,0.9807,0.9807,0.9807,0.9807,0.9807,0.9807,0.9807,0.9807,0.9807,0.9807,0.9807,0.9807,0.9807,0.9807,0.9807,0.9807,0.9807,0.9807,0.9807,0.9807,0.9807,0.9807,0.9807,0.9807,0.9807,0.9807,0.9807,0.9807,0.9807,0.9807,0.9807,0.9807,0.9807,0.9807,0.9807,0.9807,0.9807,0.9807,0.9807,0.9807,0.9859,0.9922,0.9999,1.0157,1.0284,1.0398,1.0527,1.0565,1.049,1.049,1.0527,1.0602,1.0602,1.0626,1.0704,1.0704,1.0704,1.0704,1.0704,1.0704,1.0704,1.0704,1.0704,1.0704,1.0704,1.0704,1.0704,1.9395,1.9395,1.9395,1.9395,1.9395,1.9395,1.9395,1.9395,1.9395,1.9395,1.9395,1.9395,1.9395,1.9395,1.9395,1.9395,1.9092,1.8833,1.8657,1.8085,1.8253,1.9355,1.9406,1.9408,1.9408,1.9403,1.926,1.8984,1.926,1.9395,1.9395,1.9395,1.9395,1.9395,1.9395,1.9395,1.9395,1.9395,1.9395,1.9395,1.9395,1.9395,1.9054,1.5839,1.4604,1.4187,1.0959,0.9807,0.9807,0.9807,0.9807,0.9807,0.9807,0.9807,0.9807,0.9807,0.9807,0.9807,0.9807,0.9807,0.9807,0.9807,0.9807,0.9807,0.9807,0.9807,0.9807,0.9807,0.9807,0.9807,0.9807,0.9807,0.9807,0.9807,0.9807,0.9807,0.9807,0.9807,0.9807,0.9807,0.9807,0.9807,0.9807,0.9807,0.9807,0.9807,0.9807,0.9802,0.9829,0.9935,1.0026,1.0077,1.0365,1.0504,1.0531,1.064,1.0704,1.0704,1.0704,1.0704,1.0704,1.0704,1.0704,1.0704,1.0704,1.0704,1.0704,1.0704,1.0704,1.0704,1.0704,1.0704,1.0704,1.0704,1.0704,1.0704,1.9395,1.9395,1.9395,1.9395,1.9395,1.9395,1.9395,1.9395,1.9395,1.9395,1.9395,1.9395,1.9395,1.9395,1.9395,1.9395,1.9092,1.9009,1.9263,1.8716,1.8675,1.9364,1.9394,1.9406,1.9406,1.9403,1.9381,1.9334,1.9381,1.9395,1.9395,1.9395,1.9395,1.9395,1.9395,1.9395,1.9395,1.9395,1.9395,1.9395,1.9395,1.9395,1.9054,1.5839,1.4604,1.4187,1.0959,0.9807,0.9807,0.9807,0.9807,0.9807,0.9807,0.9807,0.9807,0.9807,0.9807,0.9807,0.9807,0.9807,0.9807,0.9807,0.9807,0.9807,0.9807,0.9807,0.9807,0.9807,0.9807,0.9807,0.9807,0.9807,0.9807,0.9807,0.9807,0.9807,0.9807,0.9807,0.9807,0.9807,0.9807,0.9807,0.9807,0.9807,0.9807,0.9807,0.9807,0.9849,0.9965,0.9992,1.0133,1.0426,1.0486,1.0555,1.067,1.0694,1.0704,1.0704,1.0704,1.0704,1.0704,1.0704,1.0704,1.0704,1.0704,1.0704,1.0704,1.0704,1.0704,1.0704,1.0704,1.0704,1.0704,1.0704,1.0704,1.0704,1.9395,1.9395,1.9395,1.9395,1.9395,1.9395,1.9395,1.9395,1.9395,1.9395,1.9395,1.9395,1.9395,1.9395,1.9395,1.9395,1.926,1.9236,1.9385,1.9151,1.9122,1.9385,1.9392,1.9395,1.9395,1.9395,1.9395,1.9395,1.9395,1.9395,1.9395,1.9395,1.9395,1.9395,1.9395,1.9395,1.9395,1.9395,1.9395,1.9395,1.9395,1.9395,1.9054,1.5839,1.4604,1.4187,1.0959,0.9807,0.9807,0.9807,0.9807,0.9807,0.9807,0.9807,0.9807,0.9807,0.9807,0.9807,0.9807,0.9807,0.9807,0.9807,0.9807,0.9807,0.9807,0.9807,0.9807,0.9807,0.9807,0.9807,0.9807,0.9807,0.9807,0.9807,0.9807,0.9807,0.9807,0.9807,0.9807,0.9807,0.9807,0.9807,0.9807,0.9807,0.9807,0.9807,0.9869,0.9932,0.9999,1.0174,1.0358,1.0503,1.0575,1.0636,1.0704,1.0704,1.0704,1.0704,1.0704,1.0704,1.0704,1.0704,1.0704,1.0704,1.0704,1.0704,1.0704,1.0704,1.0704,1.0704,1.0704,1.0704,1.0704,1.0704,1.0704,1.0704]}]]